[[{"header":{"parameterUnit":"m.s-1","parameterCategory":1,"la1":30.6,"la2":29.2853,"lo1":-89.7004,"lo2":-87.6739,"dy":0.0162,"dx":0.0183,"nx":112,"ny":82,"refTime":"2024-08-16T18:00:00:Z","depth":0,"parameterNumber":2,"parameterNumberName":"U-component_of_WINDS"},"data":[0.0,0.0,0.0,0.0,0.0,0.0,0.0,0.0,0.0,0.0,0.0,0.0,0.0,0.0,0.0,0.0,0.0,0.0,0.0,0.0,0.0,0.0,0.0,0.0,0.0,0.0,0.0,0.0,0.0,0.0,0.0,0.0,0.0,0.0,0.0,0.0,0.0,0.0,0.0,0.0,0.0,0.0,0.0,0.0,0.0,0.0,0.0,0.0,0.0,0.0,0.0,0.0,0.0,0.0,0.0,0.0,0.0,0.0,0.0,0.0,0.0,0.0,0.0,0.0,0.0,0.0,0.0,0.0,0.0,0.0,0.0,0.0,0.0,0.0,0.0,0.0,0.0,0.0,0.0,0.0,0.0,0.0,0.0,0.0,0.0,0.0,0.0,0.0,0.0,0.0,-1.1798,-1.2271,-1.2331,-1.2223,-1.1939,-1.1199,-1.0314,-0.9315,0.0,0.0,0.0,0.0,0.0,0.0,0.0,0.0,0.0,0.0,0.0,0.0,0.0,0.0,0.0,0.0,0.0,0.0,0.0,0.0,0.0,0.0,0.0,0.0,0.0,0.0,0.0,0.0,0.0,0.0,0.0,0.0,0.0,0.0,0.0,0.0,0.0,0.0,0.0,0.0,0.0,0.0,0.0,0.0,0.0,0.0,0.0,0.0,0.0,0.0,0.0,0.0,0.0,0.0,0.0,0.0,0.0,0.0,0.0,0.0,0.0,0.0,0.0,0.0,0.0,0.0,0.0,0.0,0.0,0.0,0.0,0.0,0.0,0.0,0.0,0.0,0.0,0.0,0.0,0.0,0.0,0.0,0.0,0.0,0.0,0.0,0.0,0.0,0.0,0.0,0.0,0.0,0.0,0.0,0.0,0.0,0.0,0.0,0.0,0.0,0.0,0.0,0.0,0.0,-1.1869,-1.2336,-1.2496,-1.2395,-1.2018,-1.1094,-1.037,-0.9979,0.0,0.0,0.0,0.0,0.0,0.0,0.0,0.0,0.0,0.0,0.0,0.0,0.0,0.0,0.0,0.0,0.0,0.0,0.0,0.0,0.0,0.0,0.0,0.0,0.0,0.0,0.0,0.0,0.0,0.0,0.0,0.0,0.0,0.0,0.0,0.0,0.0,0.0,0.0,0.0,0.0,0.0,0.0,0.0,0.0,0.0,0.0,0.0,0.0,0.0,0.0,0.0,0.0,0.0,0.0,0.0,0.0,0.0,0.0,0.0,0.0,0.0,0.0,0.0,0.0,0.0,0.0,0.0,0.0,0.0,0.0,0.0,0.0,0.0,0.0,0.0,0.0,0.0,0.0,0.0,0.0,0.0,0.0,0.0,0.0,0.0,0.0,0.0,0.0,0.0,0.0,0.0,0.0,0.0,0.0,0.0,0.0,0.0,0.0,0.0,0.0,0.0,0.0,-1.1602,-1.1892,-1.2161,-1.2336,-1.2293,-1.1969,-1.1464,-1.0906,-1.0293,-0.9078,0.0,0.0,0.0,0.0,0.0,0.0,0.0,0.0,0.0,0.0,0.0,0.0,0.0,0.0,0.0,0.0,0.0,0.0,0.0,0.0,0.0,0.0,0.0,0.0,0.0,0.0,0.0,0.0,0.0,0.0,0.0,0.0,0.0,0.0,0.0,0.0,0.0,0.0,0.0,0.0,0.0,0.0,0.0,0.0,0.0,0.0,0.0,0.0,0.0,0.0,0.0,0.0,0.0,0.0,0.0,0.0,0.0,0.0,0.0,0.0,0.0,0.0,0.0,0.0,0.0,0.0,0.0,0.0,0.0,0.0,0.0,0.0,0.0,0.0,0.0,0.0,0.0,0.0,0.0,0.0,0.0,0.0,0.0,0.0,0.0,0.0,0.0,0.0,0.0,0.0,0.0,0.0,0.0,0.0,0.0,0.0,0.0,0.0,0.0,0.0,0.0,0.0,-1.2045,-1.2073,-1.2082,-1.2265,-1.2248,-1.1955,-1.1723,-1.1305,-1.0599,-0.9702,0.0,0.0,0.0,0.0,0.0,0.0,0.0,0.0,0.0,0.0,0.0,0.0,0.0,0.0,0.0,0.0,0.0,0.0,0.0,0.0,0.0,0.0,0.0,0.0,0.0,0.0,0.0,0.0,0.0,0.0,0.0,0.0,0.0,0.0,0.0,0.0,0.0,0.0,0.0,0.0,0.0,0.0,0.0,0.0,0.0,0.0,0.0,0.0,0.0,0.0,0.0,0.0,0.0,0.0,0.0,0.0,0.0,0.0,0.0,0.0,0.0,0.0,0.0,0.0,0.0,0.0,0.0,0.0,0.0,0.0,0.0,0.0,0.0,0.0,0.0,0.0,0.0,0.0,0.0,0.0,0.0,0.0,0.0,0.0,0.0,0.0,0.0,0.0,0.0,0.0,0.0,0.0,0.0,0.0,0.0,0.0,0.0,0.0,0.0,0.0,0.0,0.0,-1.2316,-1.2503,-1.2375,-1.2497,-1.242,-1.2032,-1.1585,-1.1245,-1.1065,-0.9717,0.0,0.0,0.0,0.0,0.0,0.0,0.0,0.0,0.0,0.0,0.0,0.0,0.0,0.0,0.0,0.0,0.0,0.0,0.0,0.0,0.0,0.0,0.0,0.0,0.0,0.0,0.0,0.0,0.0,0.0,0.0,0.0,0.0,0.0,0.0,0.0,0.0,0.0,0.0,0.0,0.0,0.0,0.0,0.0,0.0,0.0,0.0,0.0,0.0,0.0,0.0,0.0,0.0,0.0,0.0,0.0,0.0,0.0,0.0,0.0,0.0,0.0,0.0,0.0,0.0,0.0,0.0,0.0,0.0,0.0,0.0,0.0,0.0,0.0,0.0,0.0,0.0,0.0,0.0,0.0,0.0,0.0,0.0,0.0,0.0,0.0,0.0,0.0,0.0,0.0,0.0,0.0,0.0,0.0,0.0,0.0,0.0,0.0,0.0,0.0,0.0,0.0,-1.2074,-1.2371,0.0,-1.241,-1.236,-1.2206,-1.1795,-1.1465,-1.1302,0.0,0.0,0.0,0.0,0.0,0.0,0.0,0.0,0.0,0.0,0.0,0.0,0.0,0.0,0.0,0.0,0.0,0.0,0.0,0.0,0.0,0.0,0.0,0.0,0.0,0.0,0.0,0.0,0.0,0.0,0.0,0.0,0.0,0.0,0.0,0.0,0.0,0.0,0.0,0.0,0.0,0.0,0.0,0.0,0.0,0.0,0.0,0.0,0.0,0.0,0.0,0.0,0.0,0.0,0.0,0.0,0.0,0.0,0.0,0.0,0.0,0.0,0.0,0.0,0.0,0.0,0.0,0.0,0.0,0.0,0.0,0.0,0.0,0.0,0.0,0.0,0.0,0.0,0.0,0.0,0.0,0.0,0.0,0.0,0.0,0.0,0.0,0.0,0.0,0.0,0.0,0.0,0.0,0.0,0.0,0.0,0.0,0.0,0.0,0.0,0.0,0.0,-1.16,-1.2051,-1.239,0.0,-1.2394,-1.2342,-1.2397,-1.1876,-1.1495,-1.1415,0.0,0.0,0.0,0.0,0.0,0.0,0.0,0.0,0.0,0.0,0.0,0.0,0.0,0.0,0.0,0.0,0.0,0.0,0.0,0.0,0.0,0.0,0.0,0.0,0.0,0.0,0.0,0.0,0.0,0.0,0.0,0.0,0.0,0.0,0.0,0.0,0.0,0.0,0.0,0.0,0.0,0.0,0.0,0.0,0.0,0.0,0.0,0.0,0.0,0.0,0.0,0.0,0.0,0.0,0.0,0.0,0.0,0.0,0.0,0.0,0.0,0.0,0.0,0.0,0.0,0.0,0.0,0.0,0.0,0.0,0.0,0.0,0.0,0.0,0.0,0.0,0.0,0.0,0.0,0.0,0.0,0.0,0.0,0.0,0.0,0.0,0.0,0.0,0.0,0.0,0.0,0.0,0.0,0.0,0.0,0.0,0.0,0.0,0.0,0.0,0.0,0.0,-1.1966,-1.2355,-1.2673,-1.2881,-1.2544,-1.2378,-1.2581,-1.1735,-1.1265,0.0,0.0,0.0,0.0,0.0,0.0,0.0,0.0,0.0,0.0,0.0,0.0,0.0,0.0,0.0,0.0,0.0,0.0,0.0,0.0,0.0,0.0,0.0,0.0,0.0,0.0,0.0,0.0,0.0,0.0,0.0,0.0,0.0,0.0,0.0,0.0,0.0,0.0,0.0,0.0,0.0,0.0,0.0,0.0,0.0,0.0,0.0,0.0,0.0,0.0,0.0,0.0,0.0,0.0,0.0,0.0,0.0,0.0,0.0,0.0,0.0,0.0,0.0,0.0,0.0,0.0,0.0,0.0,0.0,0.0,0.0,0.0,0.0,0.0,0.0,0.0,0.0,0.0,0.0,0.0,0.0,0.0,0.0,0.0,0.0,0.0,0.0,0.0,0.0,0.0,0.0,0.0,0.0,0.0,0.0,0.0,0.0,0.0,0.0,0.0,0.0,0.0,0.0,-1.1983,-1.2604,-1.2936,-1.2709,-1.2581,-1.2489,-1.2397,-1.1832,-1.1458,-1.1402,0.0,0.0,0.0,0.0,0.0,0.0,0.0,0.0,0.0,0.0,0.0,0.0,0.0,0.0,0.0,0.0,0.0,0.0,0.0,0.0,0.0,0.0,0.0,0.0,0.0,0.0,0.0,0.0,0.0,0.0,0.0,0.0,0.0,0.0,0.0,0.0,0.0,0.0,0.0,0.0,0.0,0.0,0.0,0.0,0.0,0.0,0.0,0.0,0.0,0.0,0.0,0.0,0.0,0.0,0.0,0.0,0.0,0.0,0.0,0.0,0.0,0.0,0.0,0.0,0.0,0.0,0.0,0.0,0.0,0.0,0.0,0.0,0.0,0.0,0.0,0.0,0.0,0.0,0.0,0.0,0.0,0.0,0.0,0.0,0.0,0.0,0.0,0.0,0.0,0.0,0.0,0.0,0.0,0.0,0.0,0.0,0.0,0.0,0.0,0.0,0.0,0.0,-1.2163,-1.2717,-1.3028,-1.2856,-1.2618,-1.2386,-1.2156,-1.175,-1.1407,-1.1134,0.0,0.0,0.0,0.0,0.0,0.0,0.0,0.0,0.0,0.0,0.0,0.0,0.0,0.0,0.0,0.0,0.0,0.0,0.0,0.0,0.0,0.0,0.0,0.0,0.0,0.0,0.0,0.0,0.0,0.0,0.0,0.0,0.0,0.0,0.0,0.0,0.0,0.0,0.0,0.0,0.0,0.0,0.0,0.0,0.0,0.0,0.0,0.0,0.0,0.0,0.0,0.0,0.0,0.0,0.0,0.0,0.0,0.0,0.0,0.0,0.0,0.0,0.0,0.0,0.0,0.0,0.0,0.0,0.0,0.0,0.0,0.0,0.0,0.0,0.0,0.0,0.0,0.0,0.0,0.0,0.0,0.0,0.0,0.0,0.0,0.0,0.0,0.0,0.0,0.0,0.0,0.0,0.0,0.0,0.0,0.0,0.0,0.0,0.0,0.0,0.0,0.0,-1.2485,-1.2753,-1.2997,-1.3162,-1.2675,-1.2203,-1.1897,-1.1562,-1.1184,-1.0728,0.0,0.0,0.0,0.0,0.0,0.0,0.0,0.0,0.0,0.0,0.0,0.0,0.0,0.0,0.0,0.0,0.0,0.0,0.0,0.0,0.0,0.0,0.0,0.0,0.0,0.0,0.0,0.0,0.0,0.0,0.0,0.0,0.0,0.0,0.0,0.0,0.0,0.0,0.0,0.0,0.0,0.0,0.0,0.0,0.0,0.0,0.0,0.0,0.0,0.0,0.0,0.0,0.0,0.0,0.0,0.0,0.0,0.0,0.0,0.0,-1.2972,-1.2531,0.0,0.0,0.0,0.0,0.0,0.0,0.0,0.0,0.0,0.0,0.0,0.0,0.0,0.0,0.0,0.0,0.0,0.0,0.0,0.0,0.0,0.0,0.0,0.0,0.0,0.0,0.0,0.0,0.0,0.0,0.0,0.0,0.0,0.0,0.0,0.0,0.0,0.0,0.0,0.0,-1.2637,-1.2981,-1.3181,-1.3042,-1.2736,-1.2294,-1.1712,-1.1412,-1.1082,-1.0728,-1.0441,0.0,0.0,0.0,0.0,0.0,0.0,0.0,0.0,0.0,0.0,0.0,0.0,0.0,0.0,0.0,0.0,0.0,0.0,0.0,0.0,0.0,0.0,0.0,0.0,0.0,0.0,0.0,0.0,0.0,0.0,0.0,0.0,0.0,0.0,0.0,0.0,0.0,0.0,0.0,0.0,0.0,0.0,0.0,0.0,0.0,0.0,0.0,0.0,0.0,0.0,0.0,0.0,0.0,0.0,0.0,0.0,0.0,0.0,0.0,-1.3293,-1.294,0.0,0.0,0.0,0.0,0.0,0.0,0.0,0.0,0.0,0.0,0.0,0.0,0.0,0.0,0.0,0.0,0.0,0.0,0.0,0.0,0.0,0.0,0.0,0.0,0.0,0.0,0.0,0.0,0.0,0.0,0.0,0.0,0.0,0.0,0.0,0.0,0.0,0.0,0.0,0.0,-1.213,-1.2453,-1.2553,-1.222,-1.1949,-1.1558,-1.0976,-1.0885,-1.0762,-1.0526,-1.0466,0.0,0.0,0.0,0.0,0.0,0.0,0.0,0.0,0.0,0.0,0.0,0.0,0.0,0.0,0.0,0.0,0.0,0.0,0.0,0.0,0.0,0.0,0.0,0.0,0.0,0.0,0.0,0.0,0.0,0.0,0.0,0.0,0.0,0.0,0.0,0.0,0.0,0.0,0.0,0.0,0.0,0.0,0.0,0.0,0.0,0.0,0.0,0.0,0.0,0.0,0.0,0.0,0.0,-1.4803,-1.4825,-1.5447,-1.4637,-1.4269,-1.4179,-1.302,-1.2832,-1.3259,-1.2781,0.0,0.0,0.0,0.0,0.0,0.0,0.0,0.0,0.0,0.0,0.0,0.0,0.0,0.0,0.0,0.0,0.0,0.0,0.0,0.0,0.0,0.0,-0.9777,-0.9411,-0.9773,-1.0286,-1.0602,0.0,0.0,0.0,0.0,0.0,0.0,0.0,0.0,0.0,0.0,0.0,-1.1579,-1.1832,-1.186,-1.1447,-1.1085,-1.0688,-1.026,-1.0315,-1.0322,-1.0232,-1.0411,-1.0595,0.0,0.0,0.0,0.0,0.0,0.0,0.0,0.0,0.0,0.0,0.0,0.0,0.0,0.0,0.0,0.0,0.0,0.0,0.0,0.0,0.0,0.0,0.0,0.0,0.0,0.0,0.0,0.0,0.0,0.0,0.0,0.0,-0.9111,-1.039,0.0,0.0,0.0,0.0,0.0,0.0,0.0,0.0,0.0,0.0,0.0,0.0,0.0,-1.3456,-1.3948,-1.371,-1.3977,-1.4741,-1.452,-1.4472,-1.4539,-1.3744,-1.3577,-1.3918,-1.3329,0.0,-1.3283,-1.2967,0.0,0.0,0.0,0.0,0.0,0.0,0.0,0.0,0.0,0.0,0.0,0.0,0.0,0.0,0.0,0.0,0.0,0.0,0.0,0.0,0.0,0.0,-0.8098,-0.7908,-0.8457,-0.9155,-0.967,-1.0004,-1.02,-1.0173,-0.9859,-0.9856,0.0,0.0,0.0,0.0,0.0,0.0,-1.1761,-1.1973,-1.2082,-1.1853,-1.1164,-1.0632,-1.0394,-1.0027,-0.9844,-0.9952,-1.0135,-1.0571,-1.1276,-1.1115,0.0,0.0,0.0,0.0,0.0,0.0,0.0,0.0,0.0,0.0,0.0,0.0,0.0,0.0,0.0,0.0,0.0,0.0,0.0,0.0,0.0,0.0,0.0,0.0,0.0,0.0,0.0,0.0,0.0,-0.8726,-0.9529,-1.0234,-1.1062,-1.1492,0.0,0.0,0.0,0.0,0.0,0.0,0.0,0.0,0.0,-1.3159,-1.3135,-1.3291,-1.3728,-1.377,-1.3824,-1.3865,-1.3802,-1.3641,-1.3378,-1.3015,-1.2962,-1.3169,-1.2962,-1.3035,-1.3332,-1.3694,-1.3763,-1.362,0.0,0.0,0.0,0.0,-1.2755,-1.2532,-1.1016,-1.0383,-1.0182,-0.9591,0.0,0.0,0.0,0.0,0.0,0.0,0.0,-0.8416,-0.8413,-0.8138,-0.7782,-0.7503,-0.7874,-0.829,-0.8295,-0.849,-0.9013,-1.0233,-1.0105,-0.9968,-1.0519,-1.057,0.0,0.0,0.0,-1.219,-1.1866,-1.1866,-1.1828,-1.1582,-1.1304,-1.1017,-1.0653,-1.0436,-1.041,-1.0665,-1.0764,-1.1179,-1.1979,-1.1917,-1.1679,0.0,0.0,0.0,0.0,0.0,0.0,0.0,0.0,0.0,0.0,0.0,0.0,0.0,0.0,0.0,0.0,0.0,0.0,0.0,0.0,0.0,0.0,0.0,0.0,0.0,0.0,0.0,0.0,-0.9532,-1.0142,-1.0315,-1.1197,-1.1483,0.0,0.0,0.0,0.0,0.0,0.0,-1.2203,-1.2251,-1.2431,-1.2804,-1.2942,-1.3151,-1.3459,-1.3723,-1.3633,-1.3258,-1.3169,-1.2922,-1.2492,-1.2461,-1.2475,-1.2492,-1.2254,-1.2439,-1.297,-1.3811,-1.4085,-1.3941,-1.3884,-1.3931,-1.3894,-1.2704,-1.2172,-1.1834,-1.0308,-0.9539,-0.9186,-0.8922,-0.8793,-0.8802,-0.9319,0.0,0.0,0.0,0.0,-0.7864,-0.8053,-0.7911,-0.7661,-0.7321,-0.7516,-0.7683,-0.7408,-0.7539,-0.8196,-0.9868,-0.979,-0.9559,-0.9978,-1.0062,0.0,0.0,0.0,-1.174,-1.1629,-1.1639,-1.1527,-1.1215,-1.1248,-1.1178,-1.0898,-1.0854,-1.1002,-1.1384,-1.1458,-1.1797,-1.2494,-1.2515,-1.2313,-1.1909,0.0,0.0,0.0,0.0,0.0,0.0,0.0,0.0,0.0,0.0,0.0,0.0,0.0,0.0,0.0,0.0,0.0,0.0,0.0,0.0,0.0,0.0,0.0,0.0,0.0,0.0,0.0,0.0,0.0,-1.0973,-1.1558,0.0,0.0,0.0,0.0,-1.2095,-1.2399,-1.255,-1.2482,-1.2488,-1.2441,-1.2346,-1.2597,-1.2843,-1.3118,-1.313,-1.3137,-1.3118,-1.2857,-1.254,-1.2212,-1.2098,-1.21,-1.2178,-1.1338,-1.1285,-1.1835,-1.2658,-1.3188,-1.3456,-1.2698,-1.232,-1.2163,-1.1578,-1.1359,-1.1155,-0.9735,-0.9379,-0.9348,-0.8013,-0.7504,-0.7473,-0.7877,-0.7638,0.0,0.0,-0.7761,-0.7652,-0.7788,-0.7584,-0.7293,-0.7142,-0.7226,-0.7361,-0.746,-0.7594,-0.7818,-0.817,-0.7908,-0.794,-0.8909,0.0,-0.9104,-1.0286,-1.0895,-1.1138,-1.0892,-1.1238,-1.1324,-1.088,-1.0765,-1.0837,-1.1064,-1.1024,-1.1188,-1.1658,-1.1855,-1.2143,-1.2581,-1.2535,-1.2392,-1.2184,-1.1411,0.0,0.0,0.0,0.0,0.0,0.0,0.0,0.0,0.0,0.0,0.0,0.0,0.0,0.0,0.0,0.0,0.0,0.0,0.0,0.0,0.0,0.0,0.0,0.0,0.0,0.0,0.0,0.0,-1.0084,-1.0719,0.0,-1.0055,-1.0552,-1.0744,-1.0291,-1.0929,-1.1251,-1.1085,-1.1261,-1.1404,-1.1523,-1.1445,-1.1408,-1.1438,-1.1559,-1.1343,-1.0789,-1.0853,-1.058,-1.0014,-0.9973,-0.9963,-0.9994,-0.9687,-0.9931,-1.0546,-1.0653,-1.125,-1.2044,-1.1586,-1.1475,-1.1445,-1.02,-0.9749,-0.9552,-0.8194,-0.7904,-0.807,-0.7841,-0.7691,-0.7657,-0.7796,-0.7801,-0.7723,-0.7661,-0.7596,-0.7552,-0.7601,-0.7389,-0.7138,-0.6992,-0.7078,-0.7164,-0.7126,-0.7229,-0.7403,-0.7655,-0.7665,-0.7849,-0.8565,-0.8743,-0.909,-0.9941,-1.0024,-1.0233,-1.0962,-1.0487,-1.0271,-1.0745,-1.0888,-1.0845,-1.0553,-1.097,-1.1017,-1.045,-1.068,-1.1093,-1.1678,-1.1878,-1.1972,-1.1935,-1.1657,-1.0765,0.0,0.0,0.0,0.0,0.0,0.0,0.0,0.0,0.0,0.0,0.0,0.0,0.0,0.0,0.0,0.0,0.0,0.0,0.0,0.0,0.0,0.0,0.0,0.0,0.0,0.0,-0.9753,-0.9587,-1.0116,-1.0147,-0.9214,-0.9606,-0.9738,-0.9298,-0.9926,-1.033,-1.0338,-1.0523,-1.0648,-1.0666,-1.0512,-1.0312,-1.0067,-1.0192,-0.9972,-0.94,-0.9575,-0.94,-0.8933,-0.8938,-0.8934,-0.8913,-0.8605,-0.8792,-0.9281,-0.8785,-0.916,-1.0014,-1.0054,-1.0104,-1.0032,-0.8827,-0.8398,-0.8293,-0.7279,-0.6996,-0.714,-0.7418,-0.7493,-0.7511,-0.7596,-0.7748,-0.784,-0.7579,-0.7507,-0.7484,-0.7393,-0.7231,-0.7071,-0.6977,-0.7028,-0.7068,-0.6977,-0.7031,-0.7165,-0.7323,-0.7518,-0.7741,-0.8111,-0.8319,-0.8635,-0.9209,-0.9144,-0.9374,-1.0309,-0.9758,-0.95,-1.0038,-1.0335,-1.0329,-0.9921,-1.0503,-1.0572,-0.9811,-0.9979,-1.0307,-1.0743,-1.0967,-1.1101,-1.1167,-1.0919,-1.0248,-0.9128,0.0,0.0,0.0,0.0,0.0,0.0,0.0,0.0,0.0,0.0,0.0,0.0,0.0,0.0,0.0,0.0,0.0,0.0,0.0,0.0,0.0,0.0,0.0,-0.9348,-1.0275,-1.0533,-0.957,-0.9771,-0.9676,-0.8831,-0.8761,-0.8905,-0.9314,-0.958,-0.989,-1.0297,-1.0362,-1.0208,-0.9737,-0.9786,-0.9606,-0.9113,-0.9126,-0.913,-0.9122,-0.9126,-0.9134,-0.9132,-0.9126,-0.9134,-0.9073,-0.8154,-0.7925,-0.8091,-0.7168,-0.7061,-0.7539,-0.8117,-0.8188,-0.7914,-0.7532,-0.7429,-0.7431,-0.7119,-0.6871,-0.6709,-0.6709,-0.6789,-0.6957,-0.7211,-0.7382,-0.7484,-0.7484,-0.7484,-0.7437,-0.7165,-0.7095,-0.7117,-0.7095,-0.7095,-0.7095,-0.7095,-0.7095,-0.7095,-0.7095,-0.7301,-0.7484,-0.7484,-0.7484,-0.7625,-0.8017,-0.8279,0.0,-0.8828,-0.9071,-0.9078,-0.8708,-0.9007,-0.9233,-0.9247,-0.9613,-0.9833,-0.9804,-0.9814,-0.982,-0.983,-0.9842,-0.9853,-0.9871,-0.9145,-0.889,-0.9171,0.0,0.0,0.0,0.0,0.0,0.0,0.0,0.0,0.0,0.0,0.0,0.0,0.0,0.0,0.0,0.0,0.0,0.0,0.0,0.0,0.0,-0.8217,-0.87,-0.9436,-0.9078,-0.8678,-0.85,-0.8102,-0.7829,-0.7786,-0.7693,-0.7758,-0.8084,-0.8155,-0.8245,-0.8364,-0.8389,-0.8246,-0.7918,-0.8133,-0.7869,-0.7095,-0.7637,-0.7647,-0.7173,-0.7507,-0.7599,-0.7454,-0.7452,-0.7467,-0.7454,-0.7188,-0.7209,-0.736,-0.6969,-0.6884,-0.702,-0.7164,-0.7294,-0.7306,-0.7068,-0.7005,-0.7041,-0.6956,-0.6886,-0.6843,-0.6843,-0.6941,-0.706,-0.7125,-0.7175,-0.7209,-0.7209,-0.7345,-0.7437,-0.7165,-0.7257,-0.7345,-0.7143,-0.7095,-0.7095,-0.7095,-0.7095,-0.7095,-0.7095,-0.7165,-0.7209,-0.7209,-0.7209,-0.7239,-0.7348,-0.735,0.0,-0.811,-0.764,-0.741,-0.7793,-0.7936,-0.7966,-0.785,-0.8481,-0.8524,-0.7703,-0.7882,-0.8118,-0.8358,-0.8607,-0.887,-0.9164,-0.8351,-0.8112,0.0,0.0,0.0,0.0,0.0,0.0,0.0,0.0,0.0,0.0,0.0,0.0,0.0,0.0,0.0,0.0,0.0,0.0,0.0,0.0,0.0,0.0,-0.8366,-0.878,-0.916,-0.8658,-0.8133,-0.787,-0.7449,-0.7168,-0.715,-0.6989,-0.6991,-0.7316,-0.7343,-0.7416,-0.7597,-0.7629,-0.7476,-0.7127,-0.7303,-0.7044,-0.6351,-0.7069,-0.7138,-0.6567,-0.7117,-0.7231,-0.6925,-0.6925,-0.6925,-0.6925,-0.6836,-0.7035,-0.7363,-0.6969,-0.7102,-0.7496,0.0,0.0,0.0,0.0,-0.6694,-0.6309,-0.6339,-0.602,-0.5594,-0.5594,-0.5717,-0.584,-0.584,-0.5874,-0.5935,-0.5935,-0.6049,-0.6118,-0.596,-0.6118,-0.6299,-0.6141,-0.6163,-0.6207,-0.6118,-0.6406,-0.6653,-0.6539,-0.683,0.0,-0.7095,-0.7095,-0.7095,-0.7095,-0.7024,-0.7114,-0.7438,-0.6946,-0.671,-0.7046,-0.7026,-0.6988,-0.6969,-0.74,0.0,0.0,0.0,-0.7142,-0.7324,-0.7521,0.0,0.0,0.0,0.0,0.0,0.0,0.0,0.0,-0.8052,-0.7714,0.0,0.0,0.0,0.0,0.0,0.0,0.0,0.0,0.0,0.0,0.0,0.0,0.0,0.0,0.0,0.0,-0.8693,-0.8975,-0.8711,-0.8621,-0.8341,-0.7608,-0.741,-0.7202,-0.6872,-0.659,-0.6595,-0.6976,-0.7008,-0.7178,-0.7516,-0.7597,0.0,0.0,0.0,-0.6874,-0.6406,-0.7092,-0.7228,-0.6817,-0.7433,-0.754,-0.7183,-0.7183,-0.7183,-0.7161,-0.6877,-0.7121,-0.7672,-0.6969,-0.7319,-0.8149,-0.6981,-0.6564,-0.6666,-0.6907,-0.6313,-0.5368,-0.5434,0.0,0.0,-0.3863,-0.3982,-0.4134,-0.4134,-0.4206,-0.4312,-0.4312,-0.4312,-0.4334,-0.4312,-0.4492,-0.4694,-0.4694,-0.483,-0.4919,-0.4761,-0.5389,-0.5902,-0.5675,-0.6299,-0.6874,-0.6874,-0.6985,-0.7095,-0.7095,-0.7095,-0.7045,-0.6924,-0.6789,-0.6668,-0.6535,0.0,0.0,-0.6508,-0.6518,-0.6576,-0.6692,-0.6715,-0.673,-0.6717,-0.6748,-0.6728,-0.6731,-0.7042,-0.7188,-0.7096,-0.7368,-0.7512,-0.7503,-0.7523,-0.7468,0.0,0.0,0.0,0.0,0.0,0.0,0.0,0.0,0.0,0.0,0.0,0.0,0.0,0.0,0.0,-0.7587,-0.8293,-0.8711,-0.8481,-0.8179,-0.7912,-0.7763,-0.7244,-0.6958,-0.7035,-0.6858,-0.6824,-0.7072,-0.7076,-0.7111,-0.7183,-0.72,-0.7098,-0.6837,-0.7001,-0.6874,-0.6406,-0.6918,-0.7054,-0.6795,-0.7098,0.0,-0.7672,-0.7672,-0.7672,-0.7628,-0.682,-0.6754,-0.7161,-0.6276,-0.6052,-0.6337,-0.7025,-0.6624,-0.5669,-0.5733,-0.5237,-0.4526,-0.455,-0.439,-0.4194,-0.4194,-0.4226,-0.4265,-0.4265,-0.4275,0.0,-0.4312,-0.4423,-0.4514,-0.4334,-0.4467,-0.4625,-0.4625,-0.4694,-0.4783,-0.4919,-0.5077,-0.5188,-0.5142,-0.5275,-0.5408,-0.5408,-0.634,-0.7095,-0.7095,-0.7095,-0.7045,-0.6924,-0.688,-0.6803,-0.6671,-0.663,-0.6627,-0.6654,-0.6658,-0.6668,-0.6698,-0.6796,-0.6871,-0.6862,-0.6974,-0.6981,-0.6865,-0.6367,-0.6025,-0.5838,-0.5326,-0.5069,-0.5122,-0.6859,-0.723,0.0,0.0,0.0,0.0,0.0,0.0,0.0,0.0,0.0,0.0,0.0,-0.5241,-0.5048,0.0,-0.6483,-0.6587,-0.702,-0.7185,-0.6717,-0.6876,-0.7154,-0.7418,-0.7142,-0.6988,-0.7095,-0.701,-0.6988,-0.7095,-0.7095,-0.7095,-0.7095,-0.7095,-0.701,-0.6817,-0.6903,-0.6833,-0.6612,-0.7294,-0.7294,-0.6612,-0.718,-0.7202,-0.6741,-0.6741,-0.6741,-0.6716,-0.6002,-0.5958,-0.6356,-0.5885,-0.542,-0.5092,-0.5933,-0.5664,-0.4845,-0.4845,-0.4312,-0.36,-0.36,-0.3266,-0.2841,-0.2841,-0.2841,-0.2841,-0.2841,-0.2841,-0.2841,-0.2841,-0.2931,-0.2975,-0.2886,-0.302,-0.3223,-0.3358,-0.3492,-0.3628,-0.3717,-0.4119,-0.4429,-0.4316,-0.4674,-0.501,-0.501,-0.5586,-0.6008,-0.5872,-0.6163,-0.6385,-0.6299,-0.6646,-0.6877,-0.6803,-0.6746,-0.6732,-0.6786,-0.6431,-0.5994,-0.5537,-0.5572,-0.5608,-0.5608,-0.5662,-0.5664,-0.5608,-0.524,-0.4997,-0.4899,-0.4563,-0.4441,-0.4532,-0.5626,-0.5876,0.0,0.0,0.0,0.0,0.0,0.0,0.0,0.0,-0.4293,-0.4253,-0.4552,-0.4883,-0.5025,-0.5296,-0.5506,-0.5457,-0.5645,-0.5588,-0.5064,-0.5507,-0.6085,-0.6561,-0.6946,-0.7209,-0.7253,-0.7209,-0.7098,-0.6918,-0.6852,-0.6738,-0.6561,-0.6561,-0.6473,-0.6324,-0.6324,-0.6324,-0.6324,-0.707,-0.7,-0.6141,-0.6795,-0.6666,-0.583,-0.5739,-0.5741,-0.5808,-0.5342,-0.5137,-0.5174,-0.5257,-0.4792,-0.4044,-0.4221,-0.4065,-0.3755,-0.3955,-0.3422,-0.2598,-0.2598,-0.2084,-0.1391,-0.1391,-0.1391,-0.1391,-0.1391,-0.1391,-0.1391,-0.1391,-0.1391,-0.1391,-0.1391,-0.157,-0.1794,-0.2064,-0.2243,-0.2379,-0.2469,-0.3093,-0.3604,-0.3492,-0.4072,-0.4587,-0.4587,-0.4543,-0.4541,-0.4672,-0.5184,-0.5564,-0.5564,-0.6078,-0.6449,-0.647,-0.6324,-0.6281,-0.6393,-0.5797,-0.5114,-0.4356,-0.4312,-0.4312,-0.4312,-0.4312,-0.4312,-0.4312,-0.4145,-0.4058,-0.4058,-0.3921,-0.3902,-0.4013,-0.4013,-0.4135,-0.2717,-0.2766,-0.277,-0.2731,-0.2559,-0.2458,0.0,0.0,-0.3421,-0.2721,-0.3294,-0.3769,-0.3226,-0.3674,-0.4225,-0.4495,-0.481,-0.5067,-0.5232,-0.4829,-0.4603,-0.4855,-0.6402,-0.7547,-0.779,-0.7591,-0.7098,-0.6267,-0.5983,-0.5494,-0.4665,-0.4623,-0.4601,-0.4579,-0.4579,-0.4579,-0.4579,-0.469,-0.487,-0.5144,-0.4845,-0.5267,-0.6318,-0.5888,-0.5933,-0.6296,-0.583,-0.4716,-0.3245,-0.3666,-0.3534,-0.2978,-0.2128,-0.177,-0.1837,-0.2732,-0.2419,-0.1569,-0.1569,-0.1502,-0.1391,-0.1391,-0.1391,-0.1391,-0.1391,-0.1391,-0.1391,-0.1391,-0.1391,-0.1391,-0.1391,-0.1413,-0.1503,-0.1772,-0.1861,-0.1997,-0.2401,-0.2581,-0.2715,-0.2941,-0.3053,-0.3142,-0.3142,-0.2939,-0.3272,-0.4743,-0.503,-0.5077,-0.5077,-0.4952,-0.4876,-0.4945,-0.4732,-0.4572,-0.4583,-0.4505,-0.4423,-0.4312,-0.4312,-0.4312,-0.4312,-0.4312,-0.4312,-0.4312,-0.3534,-0.3155,-0.3133,-0.2316,-0.1909,-0.1938,-0.1938,-0.244,-0.2366,-0.2463,-0.2488,0.0,-0.2538,-0.2603,-0.2554,-0.2893,-0.3109,-0.2772,-0.307,-0.3318,-0.3034,-0.3111,-0.3183,0.0,-0.3129,-0.3172,-0.3247,-0.3361,-0.3567,-0.3923,-0.506,-0.5853,-0.5961,-0.5761,-0.5539,-0.5292,-0.5048,-0.4712,-0.4312,-0.4312,-0.4223,-0.4069,-0.4069,-0.4069,-0.4069,-0.4332,-0.4376,-0.4182,-0.4267,-0.4469,-0.4766,-0.4563,-0.4585,-0.4743,-0.4271,-0.347,-0.2533,-0.3001,-0.2732,-0.2017,-0.1906,-0.1682,-0.1458,-0.1883,-0.1771,-0.1391,-0.1391,-0.1391,-0.1391,-0.1391,-0.1391,-0.1391,-0.1391,-0.1391,-0.1391,-0.1391,-0.1503,-0.1637,-0.1637,-0.1749,-0.193,-0.2154,-0.2109,-0.2109,-0.2424,-0.2491,-0.2536,-0.2649,-0.2784,-0.2897,-0.2897,-0.2806,-0.2962,-0.3676,-0.4007,-0.4182,-0.4182,-0.4561,-0.4852,-0.4875,-0.4625,-0.4247,-0.3714,-0.3558,-0.3243,-0.264,-0.2618,-0.2618,-0.2618,-0.2618,-0.27,-0.2894,-0.2395,-0.2229,-0.2425,-0.187,-0.1592,-0.1592,-0.1592,-0.1843,-0.2349,0.0,0.0,-0.2505,-0.2643,-0.2753,-0.266,-0.2761,-0.2917,-0.3003,-0.2982,-0.2959,-0.2975,-0.2691,-0.2384,-0.2156,-0.1912,-0.1803,-0.1888,-0.2256,-0.2665,-0.3058,-0.3528,-0.3838,-0.3835,-0.417,-0.4356,-0.4291,-0.4044,-0.3799,-0.351,-0.351,-0.342,-0.3223,-0.3202,-0.3202,-0.3202,-0.3552,-0.3552,-0.3223,-0.3556,-0.3602,-0.3406,-0.3542,-0.3609,-0.3587,-0.325,-0.2757,-0.2221,-0.2578,-0.2196,-0.1436,-0.1817,-0.1749,-0.1391,-0.1391,-0.1391,-0.1391,-0.1391,-0.1391,-0.1391,-0.1391,-0.1391,-0.1391,-0.1391,-0.1391,-0.1391,-0.1391,-0.1548,-0.1682,-0.1682,-0.1885,-0.2109,-0.2176,-0.2131,-0.2131,-0.2267,-0.2312,-0.2334,-0.2401,-0.2581,-0.2716,-0.2716,-0.2716,-0.2716,-0.2716,-0.3004,-0.3224,-0.3291,-0.3782,-0.4095,-0.4004,-0.3823,-0.3446,-0.2756,-0.2577,-0.2174,-0.1436,-0.1391,-0.1391,-0.1391,-0.142,-0.155,-0.1781,-0.1614,-0.1646,-0.1891,-0.1702,-0.1592,-0.1592,-0.1592,-0.1592,0.0,0.0,-0.2781,-0.2781,-0.2651,-0.2594,-0.2917,-0.2796,-0.2701,-0.3034,-0.2839,-0.2633,-0.2705,-0.2238,-0.1855,-0.1891,-0.1638,-0.1593,-0.2109,-0.1973,-0.1912,-0.2112,-0.1991,-0.1889,-0.1894,-0.3534,-0.4225,-0.3307,-0.3066,-0.2509,-0.1547,-0.148,-0.148,-0.148,-0.148,-0.148,-0.148,-0.148,-0.1749,-0.2243,-0.2266,-0.2489,-0.2935,-0.3384,-0.3609,-0.3609,-0.3587,-0.305,-0.2199,-0.2221,-0.1907,-0.1413,-0.1413,-0.1413,-0.1391,-0.1391,-0.1391,-0.1391,-0.1391,-0.1391,-0.1391,-0.1391,-0.1391,-0.1391,-0.1391,-0.1391,-0.1391,-0.1391,-0.1413,-0.1413,-0.1413,-0.1615,-0.1749,-0.1503,-0.1637,-0.1817,-0.1817,-0.1817,-0.1907,-0.2154,-0.2221,-0.2221,-0.2221,-0.2221,-0.2221,-0.2221,-0.2243,-0.2311,-0.2513,-0.2154,-0.1794,-0.1547,-0.1502,-0.148,-0.1458,-0.1458,-0.1436,-0.1413,-0.1391,-0.1391,-0.1391,-0.1463,-0.1503,-0.1504,-0.1564,-0.1595,-0.162,-0.1602,-0.1592,-0.1592,-0.1592,-0.1592,0.0,0.0,-0.202,-0.2652,-0.2784,-0.2778,-0.2846,-0.283,-0.2841,-0.2952,-0.2873,-0.2797,-0.2838,-0.2515,-0.2227,-0.2106,-0.2006,-0.1997,-0.2176,-0.1928,-0.1818,-0.2066,-0.1771,-0.1543,-0.1532,-0.2097,0.0,-0.2285,-0.2033,-0.1782,-0.1487,-0.1423,-0.1391,-0.1391,-0.1391,-0.1391,-0.1391,-0.1391,-0.148,-0.1682,-0.2019,-0.2288,-0.2444,-0.2914,-0.3294,-0.3587,-0.3272,-0.3138,-0.3094,-0.2802,-0.2377,-0.193,-0.193,-0.1705,-0.1391,-0.1391,-0.1391,-0.1391,-0.1391,-0.1391,-0.1391,-0.1391,-0.1391,-0.1391,-0.1391,-0.1391,-0.1391,-0.1391,-0.1525,-0.166,-0.166,-0.1861,-0.2042,-0.1952,-0.1391,-0.0874,-0.0874,-0.0317,-0.0046,-0.0854,-0.1087,-0.1366,-0.2069,-0.2199,-0.2199,-0.2199,-0.2199,-0.2221,-0.2289,-0.2154,-0.2042,-0.193,-0.1772,-0.166,-0.166,-0.1503,-0.1391,-0.1391,-0.1431,-0.1466,-0.1466,-0.1495,-0.1615,-0.1829,-0.1683,-0.168,-0.1877,-0.1688,-0.1592,-0.1592,-0.1592,-0.1592,-0.0649,-0.084,-0.1056,-0.1641,-0.2153,-0.2503,-0.2446,-0.2731,-0.3006,-0.3006,-0.2941,-0.2873,-0.2784,-0.2627,-0.243,-0.2243,-0.2201,-0.2252,-0.2359,-0.2198,-0.209,-0.2159,-0.1912,-0.1652,0.0,0.0,0.0,-0.1682,-0.1525,-0.1449,-0.1504,-0.1462,-0.1424,-0.1391,-0.1391,-0.1368,-0.13,-0.13,-0.1368,-0.1548,-0.1794,-0.2109,-0.2444,-0.2599,-0.2913,-0.3339,-0.3024,-0.3069,-0.3317,-0.2847,-0.2466,-0.2176,-0.1997,-0.1705,-0.1391,-0.1391,-0.1188,-0.0942,-0.1278,-0.1391,-0.1391,-0.1391,-0.1391,-0.1391,-0.1391,-0.1391,-0.1323,-0.0987,-0.1031,-0.1076,-0.0739,-0.0829,-0.0987,-0.0882,-0.0317,0.0204,0.032,0.0902,0.1185,0.0482,0.0253,-0.0023,-0.0726,-0.0878,-0.0918,-0.0918,-0.0918,-0.1188,-0.1952,-0.1974,-0.1907,-0.1907,-0.1749,-0.166,-0.166,-0.1513,-0.1429,-0.1429,-0.148,-0.1497,-0.1497,-0.1526,-0.1648,-0.1841,-0.1681,-0.1697,-0.1844,-0.1693,-0.1592,-0.1592,-0.1592,-0.1592,0.0062,0.0063,0.0043,0.0,-0.0872,-0.172,-0.1787,-0.2482,-0.3133,-0.3181,-0.3029,-0.2829,-0.2558,0.0,-0.2443,-0.2238,-0.2223,-0.2356,-0.2636,-0.2691,-0.2597,0.0,0.0,0.0,0.0,0.0,0.0,-0.1506,-0.1504,-0.149,-0.1508,-0.1504,-0.1467,-0.1391,-0.1391,-0.13,-0.1121,-0.1121,-0.1345,-0.1772,-0.1525,-0.1905,-0.2801,-0.2399,-0.2445,-0.2868,-0.2868,-0.2867,-0.2823,-0.2332,-0.2131,-0.2064,-0.1503,-0.13,-0.1323,-0.1278,-0.0718,-0.009,-0.0987,-0.1279,-0.1257,-0.128,-0.1259,-0.1237,-0.1235,-0.1235,-0.1055,-0.0179,0.0067,0.0269,0.1164,0.1254,0.1216,0.1516,0.1455,0.1394,0.1706,0.181,0.1834,0.1784,0.1687,0.1595,0.1595,0.1501,0.1414,0.1414,0.1414,0.0673,-0.1368,-0.1459,-0.1325,-0.1323,-0.137,-0.1415,-0.1415,-0.1464,-0.1504,-0.1506,-0.1511,-0.1504,-0.1504,-0.1558,-0.1573,-0.1524,-0.1577,-0.1566,-0.1515,-0.1515,-0.1515,-0.1515,-0.1465,-0.1439,0.102,0.085,0.0661,-0.0044,-0.0372,-0.0744,-0.1532,-0.1839,-0.2134,-0.284,-0.2941,-0.2873,-0.2806,-0.2839,0.0,-0.2266,-0.2576,0.0,-0.2454,-0.2408,0.0,-0.2315,0.0,-0.1731,-0.1585,-0.1581,0.0,0.0,-0.1527,-0.1499,-0.1491,-0.1493,-0.1467,-0.1391,-0.1391,-0.1368,-0.1323,-0.1323,-0.1391,-0.1503,-0.1436,-0.1524,-0.1793,-0.2063,-0.2266,-0.2377,-0.2377,-0.2376,-0.2306,-0.1434,-0.1076,-0.1009,-0.0157,-0.0045,-0.0269,0.0425,0.0627,0.0493,0.0247,0.0453,0.0779,0.0436,0.0579,0.0911,0.0852,0.0824,0.0868,0.1012,0.1052,0.1097,0.1342,0.1426,0.149,0.1591,0.2124,0.2646,0.2731,0.3369,0.3705,0.2909,0.2155,0.1676,0.1676,0.1645,0.1617,0.1617,0.1617,0.1367,0.0674,0.0023,-0.0365,-0.0359,-0.1023,-0.1469,-0.1469,-0.1499,-0.1491,-0.149,-0.1543,-0.1585,-0.1585,-0.159,-0.1228,-0.0426,-0.1183,-0.1212,-0.0403,-0.0403,-0.0403,-0.0378,0.0403,0.0782,0.1998,0.1785,0.1544,0.1046,0.059,0.0088,-0.0537,-0.1173,-0.1784,-0.2342,-0.2697,0.0,-0.2897,-0.2965,0.0,0.0,0.0,0.0,-0.2564,-0.2519,-0.247,0.0,-0.2123,0.0,-0.179,-0.1782,-0.1718,0.0,-0.156,-0.1535,-0.1547,-0.1517,-0.1487,-0.1456,-0.142,-0.1368,-0.1278,-0.1278,-0.1278,-0.1256,-0.0942,-0.0785,-0.0785,-0.0672,-0.0672,-0.0762,-0.0963,-0.1254,-0.1501,-0.0941,-0.083,-0.0942,-0.0202,-0.0067,-0.0247,0.0291,0.0582,0.0695,0.0695,0.1363,0.2007,0.0732,0.062,0.0973,0.1087,0.127,0.1523,0.2001,0.2137,0.2253,0.269,0.2853,0.2931,0.2958,0.3394,0.3816,0.3846,0.4332,0.4564,0.3917,0.3375,0.3006,0.2979,0.2974,0.2974,0.2974,0.2974,0.2926,0.2813,0.1603,0.0746,0.0738,0.0233,-0.0094,-0.0094,-0.0094,-0.0095,-0.0096,-0.0147,-0.0199,-0.0199,-0.0201,0.0076,0.068,0.0101,0.0101,0.0706,0.0706,0.0706,0.0706,0.131,0.1588,0.27,0.2565,0.2378,0.2393,0.1625,0.0836,0.0659,-0.0541,-0.1658,-0.1812,0.0,-0.2897,-0.2897,-0.2965,-0.3001,-0.304,0.0,-0.3036,-0.2819,-0.2775,-0.2674,-0.2472,-0.2396,-0.2271,-0.2071,-0.2046,-0.1945,-0.1667,-0.1642,-0.1629,-0.1598,-0.1543,-0.1487,-0.1476,-0.1427,-0.1323,-0.1188,-0.1076,-0.1009,-0.1031,-0.0269,0.009,0.0112,0.094,0.1209,0.1031,0.0649,0.0134,-0.0426,-0.0381,-0.0583,-0.0874,-0.0471,-0.0314,-0.0314,-0.0314,0.0202,0.0897,0.0897,0.1701,0.2433,0.0565,0.0203,0.0567,0.0759,0.1155,0.176,0.2865,0.316,0.3374,0.4252,0.4474,0.4504,0.4558,0.4584,0.4612,0.4659,0.471,0.4721,0.4649,0.4694,0.47,0.4644,0.4632,0.4632,0.4632,0.4632,0.4632,0.4632,0.3014,0.1885,0.1879,0.1765,0.1696,0.1696,0.1699,0.1692,0.1697,0.1623,0.1588,0.1588,0.1588,0.1664,0.1815,0.1664,0.1664,0.1815,0.1815,0.1815,0.1815,0.1966,0.2016,0.2384,0.2302,0.2178,0.1964,0.1847,0.1577,0.084,-0.0043,0.0,0.0,-0.2238,-0.2897,-0.2897,-0.2965,-0.2932,-0.273,-0.293,-0.3036,0.0,0.0,-0.2522,0.0,0.0,0.0,0.0,-0.2321,0.0,0.0,-0.1921,-0.1829,-0.1622,-0.1543,-0.1477,-0.1422,-0.1416,-0.148,-0.1682,-0.0919,-0.0605,-0.0762,0.0157,0.0583,0.0583,0.074,0.0807,0.0785,0.0919,0.1008,0.1054,0.1278,0.1458,0.1592,0.166,0.1705,0.1705,0.1702,0.1792,0.193,0.193,0.1709,0.1468,0.1739,0.2465,0.3153,0.2692,0.2889,0.3296,0.3456,0.3511,0.3556,0.3739,0.3811,0.3864,0.3876,0.3953,0.4054,0.4043,0.424,0.4379,0.4366,0.459,0.4783,0.4767,0.4765,0.4765,0.4765,0.4765,0.4765,0.4765,0.3641,0.2856,0.2858,0.2172,0.1706,0.1706,0.1712,0.1677,0.1629,0.1611,0.1588,0.1588,0.1588,0.2016,0.2897,0.2041,0.2041,0.2922,0.2922,0.2922,0.2947,0.3827,0.4255,0.2221,0.2071,0.1899,0.1775,0.1823,0.1811,0.1452,0.0,0.0,0.0,-0.1892,-0.2897,-0.2897,-0.2965,0.0,-0.2872,-0.3003,0.0,0.0,0.0,0.0,0.0,0.0,0.0,0.0,-0.2598,-0.2497,-0.2222,-0.2197,-0.2037,-0.1621,-0.1673,-0.1685,-0.1617,-0.1233,-0.1099,-0.1233,-0.0291,0.0134,0.0045,0.1008,0.1478,0.1501,0.1994,0.2129,0.2016,0.2129,0.204,0.1839,0.2062,0.2017,0.1794,0.193,0.1907,0.1794,0.1792,0.1793,0.1817,0.2109,0.1974,0.1729,0.2132,0.2406,0.2634,0.2749,0.3144,0.3585,0.3727,0.3752,0.3752,0.3752,0.378,0.3807,0.3807,0.3864,0.3893,0.3893,0.4025,0.4154,0.4154,0.4284,0.4383,0.4383,0.4383,0.4435,0.456,0.4585,0.4636,0.4784,0.4321,0.3984,0.3973,0.3581,0.3304,0.3304,0.3304,0.3292,0.3272,0.3274,0.3274,0.3274,0.3274,0.35,0.4029,0.3525,0.3525,0.4029,0.4029,0.4029,0.4054,0.4556,0.4809,0.2017,0.1801,0.1612,0.1606,0.1663,0.1735,0.189,0.0837,0.0,0.0,-0.1463,-0.2649,-0.2851,0.0,-0.301,0.0,-0.304,0.0,0.0,0.0,0.0,0.0,0.0,0.0,-0.2851,-0.2876,0.0,-0.2497,-0.2412,-0.2203,-0.1772,-0.1891,-0.1944,-0.1887,-0.1323,-0.0942,-0.0785,0.0157,0.0718,0.0852,0.186,0.2352,0.2374,0.3115,0.3341,0.3138,0.3183,0.2892,0.2422,0.2644,0.2397,0.1884,0.1996,0.1929,0.1771,0.1569,0.1525,0.1637,0.2064,0.2131,0.2064,0.2289,0.2064,0.1823,0.2353,0.287,0.3344,0.361,0.3697,0.3697,0.3697,0.3697,0.37,0.3715,0.3712,0.3707,0.3722,0.3808,0.3884,0.3884,0.3947,0.4008,0.4008,0.4008,0.4085,0.4286,0.4313,0.4386,0.4609,0.4634,0.4634,0.4634,0.4734,0.4809,0.4809,0.4809,0.4809,0.4809,0.4809,0.4809,0.4809,0.4809,0.4809,0.4809,0.4809,0.4809,0.4809,0.4809,0.4809,0.4809,0.4809,0.4809,0.1661,0.1493,0.1347,0.1344,0.1348,0.1421,0.1679,0.0,0.0,-0.0245,-0.0985,-0.1817,-0.2739,-0.2901,-0.2941,0.0,0.0,-0.2759,0.0,0.0,0.0,0.0,0.0,0.0,-0.313,-0.3155,-0.3054,-0.2775,-0.2483,-0.2294,-0.2233,-0.2247,-0.2224,-0.2157,-0.2086,-0.1749,-0.1076,-0.0067,0.074,0.1345,0.2355,0.2829,0.2829,0.2918,0.2941,0.2941,0.3117,0.3159,0.3138,0.3384,0.3452,0.3363,0.2957,0.289,0.2936,0.2086,0.1907,0.2131,0.2176,0.1885,0.1615,0.2536,0.2806,0.2694,0.2339,0.2566,0.295,0.298,0.2981,0.2981,0.2981,0.2981,0.3017,0.307,0.3087,0.3107,0.3164,0.3373,0.3543,0.3543,0.3789,0.4008,0.4008,0.4008,0.4008,0.4033,0.4033,0.4058,0.4058,0.4083,0.4083,0.4083,0.451,0.4809,0.4809,0.4809,0.4809,0.4809,0.4809,0.4809,0.4809,0.4809,0.4809,0.4809,0.4809,0.4809,0.4809,0.4809,0.4809,0.4809,0.4809,0.4809,0.1535,0.136,0.1305,0.1305,0.1339,0.1419,0.1648,0.0,0.0488,-0.0246,-0.0942,-0.1705,-0.2716,-0.2897,-0.2936,-0.3077,-0.2978,-0.2849,-0.2735,0.0,0.0,0.0,0.0,0.0,0.0,0.0,-0.3155,-0.3054,-0.2354,-0.192,-0.1883,-0.2263,-0.2451,-0.2381,-0.1952,-0.13,-0.0448,0.0515,0.1436,0.2312,0.2716,0.2897,0.2897,0.2897,0.2897,0.2897,0.2984,0.3094,0.3227,0.3497,0.3609,0.3587,0.352,0.3475,0.3384,0.2847,0.2713,0.2781,0.267,0.2491,0.2379,0.2761,0.2897,0.2873,0.2672,0.2761,0.2897,0.2897,0.2897,0.2897,0.2897,0.2897,0.2911,0.299,0.3033,0.3077,0.309,0.3225,0.3319,0.3319,0.344,0.3506,0.3506,0.3506,0.3581,0.3734,0.3759,0.381,0.3984,0.4008,0.4008,0.4008,0.4183,0.4309,0.4309,0.4309,0.4309,0.4309,0.4309,0.4384,0.4562,0.4562,0.4636,0.4809,0.4809,0.4809,0.4809,0.4809,0.4809,0.4809,0.4809,0.4711,0.1529,0.1369,0.1308,0.1316,0.1418,0.1545,0.0,0.1375,0.083,-0.0269,-0.0807,-0.1478,-0.2738,-0.2928,-0.2946,0.0,-0.2955,-0.2748,-0.2515,-0.2438,0.0,0.0,0.0,-0.2775,0.0,-0.2901,-0.2725,-0.2725,-0.1774,-0.1183,-0.1119,-0.158,-0.18,-0.1773,-0.1256,-0.0538,0.0403,0.1076,0.1907,0.2897,0.2897,0.2897,0.2897,0.2897,0.2897,0.2897,0.2897,0.3051,0.3339,0.352,0.3631,0.37,0.3924,0.3855,0.3587,0.3384,0.3272,0.316,0.2963,0.2897,0.2897,0.2897,0.2897,0.2897,0.2897,0.2897,0.2897,0.2897,0.2897,0.2897,0.2897,0.2897,0.2915,0.3014,0.3065,0.3095,0.3125,0.3175,0.3205,0.3205,0.3205,0.3205,0.3205,0.3205,0.3256,0.3458,0.3484,0.3558,0.3732,0.3758,0.3758,0.3758,0.3758,0.3831,0.3982,0.4008,0.4008,0.4008,0.4008,0.4085,0.4261,0.4286,0.4361,0.4558,0.4558,0.4558,0.4558,0.4558,0.4558,0.4558,0.4558,0.446,0.1702,0.1493,0.1312,0.1382,0.1607,0.1725,0.0,0.1817,0.1637,-0.0291,-0.0538,-0.0958,-0.2767,-0.2986,-0.2963,-0.3162,-0.2648,-0.2329,-0.2642,-0.2517,0.0,0.0,0.0,-0.3205,-0.3205,-0.2244,-0.1613,-0.1613,-0.0632,-0.0024,-0.0024,-0.0023,-0.0022,-0.0022,-0.0022,0.0426,0.1368,0.1391,0.1907,0.2897,0.2897,0.2897,0.2897,0.2897,0.2897,0.2897,0.2897,0.3165,0.3587,0.3609,0.3723,0.3924,0.419,0.4009,0.3609,0.3587,0.343,0.316,0.2963,0.2897,0.2897,0.2897,0.2897,0.2897,0.2897,0.2897,0.2897,0.2897,0.2897,0.2897,0.2897,0.2897,0.2926,0.3068,0.3095,0.3107,0.3178,0.3205,0.3205,0.3205,0.3205,0.3205,0.3205,0.3205,0.3205,0.3205,0.3205,0.3205,0.3205,0.3205,0.3205,0.3205,0.3205,0.343,0.3959,0.4008,0.4008,0.4008,0.4008,0.4008,0.4008,0.4008,0.4008,0.4008,0.4008,0.4008,0.4008,0.4008,0.4008,0.4008,0.4008,0.4008,0.1777,0.1543,0.1366,0.1396,0.1599,0.1735,0.1456,0.193,0.1817,-0.0269,-0.0403,-0.0716,-0.2624,-0.2927,-0.2946,-0.3094,-0.2954,0.0,0.0,0.0,0.0,-0.1689,-0.1285,-0.1008,0.0,0.0,-0.0504,-0.0504,0.0413,0.0951,0.0951,0.1604,0.1368,0.0045,0.0,0.0448,0.1391,0.1391,0.1907,0.2897,0.2897,0.2897,0.2897,0.2897,0.2897,0.2897,0.2897,0.3051,0.3317,0.3317,0.3475,0.3723,0.3946,0.3946,0.379,0.3655,0.3542,0.3408,0.303,0.2897,0.2897,0.2897,0.2897,0.2897,0.2897,0.2897,0.2897,0.2897,0.2897,0.2897,0.2897,0.2926,0.2997,0.3077,0.3104,0.3108,0.3188,0.3205,0.3205,0.3205,0.3205,0.3205,0.3205,0.3205,0.3205,0.3205,0.3205,0.3205,0.3205,0.3205,0.3205,0.3205,0.3205,0.3281,0.343,0.3457,0.3457,0.3457,0.3457,0.3533,0.371,0.3736,0.381,0.4008,0.4008,0.4008,0.4008,0.4008,0.4008,0.4008,0.381,0.3833,0.0,0.1633,0.1391,0.1391,0.1592,0.1749,0.1592,0.1974,0.193,0.0314,0.0202,-0.0045,-0.1596,-0.1817,-0.1933,-0.2481,-0.21,0.0,0.0,0.0,0.0,-0.0731,0.0,0.0,0.0,0.0378,0.0603,0.0574,0.1478,0.204,0.2001,0.2582,0.2334,0.1121,0.1099,0.1368,0.1952,0.1974,0.2289,0.2897,0.2897,0.2897,0.2897,0.2897,0.2897,0.2897,0.2897,0.3006,0.0,0.3205,0.3294,0.3475,0.379,0.3857,0.3767,0.3654,0.3609,0.3542,0.3053,0.2897,0.2897,0.2897,0.2897,0.2897,0.2897,0.2897,0.2897,0.2897,0.2897,0.2897,0.2897,0.2938,0.3019,0.3081,0.3095,0.3108,0.3192,0.3205,0.3205,0.3205,0.3205,0.3205,0.3205,0.3205,0.3205,0.3205,0.3205,0.3205,0.3205,0.3205,0.3205,0.3205,0.3205,0.3205,0.3205,0.3205,0.3205,0.3205,0.3205,0.3281,0.3433,0.3458,0.3533,0.3707,0.3707,0.3707,0.3707,0.3707,0.3707,0.3682,0.3533,0.3533,0.0,0.1781,0.1455,0.1457,0.166,0.1839,0.1839,0.2042,0.0,0.1256,0.1121,0.0847,-0.0022,-0.0022,-0.0274,-0.1386,-0.042,0.0,0.0,-0.0123,0.0,0.0,0.0227,0.0,0.0227,0.1133,0.1673,0.1619,0.2525,0.3065,0.3007,0.2927,0.2897,0.2897,0.2897,0.2897,0.2897,0.2897,0.2897,0.2897,0.2897,0.2897,0.2897,0.2897,0.2897,0.2897,0.2897,0.3006,0.3183,0.3183,0.3183,0.325,0.3678,0.3745,0.3587,0.3587,0.3564,0.3497,0.3053,0.2897,0.2897,0.2897,0.2897,0.2897,0.2897,0.2897,0.2897,0.2897,0.2897,0.2897,0.2901,0.2968,0.3026,0.3088,0.3102,0.3112,0.3193,0.3205,0.3205,0.3205,0.3205,0.3205,0.3205,0.3205,0.3205,0.3205,0.3205,0.3205,0.3205,0.3205,0.3205,0.3205,0.3205,0.3205,0.3205,0.3205,0.3205,0.3205,0.3205,0.3205,0.3205,0.3205,0.3205,0.3205,0.3205,0.3205,0.3205,0.3205,0.3205,0.3205,0.3205,0.3205,0.2181,0.0,0.1956,0.1988,0.2176,0.2289,0.0,0.2424,0.2424,0.1323,0.0,0.1057,0.0182,0.0069,0.0,-0.0285,0.0,0.0,-0.0199,0.0,0.0,0.2346,0.2447,0.2447,0.2447,0.264,0.2734,0.2723,0.2921,0.3019,0.3005,0.2927,0.2897,0.2897,0.2897,0.2897,0.2897,0.2897,0.2897,0.2897,0.2897,0.2897,0.2897,0.2897,0.2897,0.2897,0.2897,0.2918,0.2963,0.2963,0.3051,0.3205,0.3317,0.3452,0.3564,0.3361,0.3294,0.325,0.2985,0.2897,0.2897,0.2897,0.2897,0.2897,0.2897,0.2897,0.2897,0.2897,0.2897,0.2907,0.2974,0.3029,0.309,0.3104,0.314,0.3188,0.3202,0.3205,0.3205,0.3205,0.3205,0.3205,0.3205,0.3205,0.3205,0.3205,0.3205,0.3205,0.3205,0.3205,0.3205,0.3205,0.3205,0.3205,0.3205,0.3205,0.3205,0.3205,0.3205,0.3205,0.3205,0.3205,0.3205,0.3205,0.3205,0.3205,0.3205,0.3205,0.3205,0.3205,0.3205,0.3205,0.235,0.2265,0.2145,0.2192,0.2283,0.2367,0.2391,0.0,0.0,0.0,0.0,0.1805,0.1495,0.1349,0.0,0.0,0.1202,0.0,0.0,0.0,0.2548,0.313,0.3205,0.3194,0.3166,0.311,0.3092,0.306,0.3018,0.2993,0.2967,0.2914,0.2897,0.2897,0.2897,0.2897,0.2897,0.2897,0.2897,0.2897,0.2897,0.2897,0.2897,0.2897,0.2897,0.2897,0.2897,0.2897,0.2897,0.2897,0.2963,0.3072,0.316,0.3294,0.3406,0.325,0.3205,0.316,0.2963,0.2897,0.2897,0.2897,0.2897,0.2897,0.2897,0.2897,0.2897,0.2897,0.2915,0.2965,0.2997,0.3047,0.31,0.3108,0.3162,0.3205,0.3205,0.3205,0.3205,0.3205,0.3205,0.3205,0.3205,0.3205,0.3205,0.3205,0.3205,0.3205,0.3205,0.3205,0.3205,0.3205,0.3205,0.3205,0.3205,0.3205,0.3205,0.3205,0.3205,0.3205,0.3205,0.3205,0.3205,0.3205,0.3205,0.3205,0.3205,0.3205,0.3205,0.3205,0.3205,0.3205,0.231,0.2243,0.212,0.2255,0.2297,0.2382,0.2606,0.0,0.0,0.0,0.0,0.0,0.0,0.285,0.0,0.0,0.0,0.0,0.3205,0.3205,0.3205,0.3205,0.3205,0.0,0.3095,0.3106,0.3079,0.3012,0.2997,0.2971,0.29,0.2897,0.2897,0.2897,0.2897,0.2897,0.2897,0.2897,0.2897,0.2897,0.2897,0.2897,0.2897,0.2897,0.2897,0.2897,0.2897,0.2897,0.2897,0.2897,0.2918,0.2963,0.3094,0.3183,0.3205,0.316,0.316,0.3138,0.2963,0.2897,0.2897,0.2897,0.2897,0.2897,0.2897,0.2897,0.2899,0.2907,0.2967,0.3008,0.3004,0.3063,0.3093,0.3102,0.3167,0.3205,0.3205,0.3205,0.3205,0.3205,0.3205,0.3205,0.3205,0.3205,0.3205,0.3205,0.3205,0.3205,0.3205,0.3205,0.3205,0.3205,0.3205,0.3205,0.3205,0.3205,0.3205,0.3205,0.3205,0.3205,0.3205,0.3205,0.3205,0.3205,0.3205,0.3205,0.3205,0.3205,0.3205,0.3205,0.3205,0.3205,0.1274,0.1557,0.1721,0.2512,0.2789,0.2878,0.2853,0.0,0.0,0.0,0.0,0.0,0.0,0.2861,0.3004,0.0,0.0,0.3205,0.0,0.0,0.3205,0.3205,0.0,0.3182,0.3095,0.3093,0.3081,0.301,0.2937,0.2905,0.2897,0.2897,0.2897,0.2897,0.2897,0.2897,0.2897,0.2897,0.2897,0.2897,0.2897,0.2897,0.2897,0.2897,0.2897,0.2897,0.2897,0.2897,0.2897,0.2897,0.3006,0.3138,0.3006,0.3051,0.3183,0.3006,0.2941,0.2941,0.292,0.2897,0.2897,0.2897,0.2897,0.2897,0.2897,0.2897,0.2907,0.2978,0.2997,0.3006,0.306,0.3101,0.3103,0.3179,0.3198,0.3205,0.3205,0.3205,0.3205,0.3205,0.3205,0.3205,0.3205,0.3205,0.3205,0.3205,0.3205,0.3205,0.3205,0.3205,0.3205,0.3205,0.3205,0.3205,0.3205,0.3205,0.3205,0.3205,0.3205,0.3205,0.3205,0.3205,0.3205,0.3205,0.3205,0.3205,0.3205,0.3205,0.3205,0.3205,0.3205,0.3205,0.034,0.0964,0.154,0.1844,0.2393,0.2835,0.2811,0.0,0.0,0.0,0.0,0.0,0.0,0.0,0.2978,0.3134,0.0,0.3205,0.3205,0.3205,0.3205,0.0,0.3177,0.3133,0.3097,0.3059,0.3022,0.2962,0.2911,0.2897,0.2897,0.2897,0.2897,0.2897,0.2897,0.2897,0.2897,0.2897,0.2897,0.2897,0.2897,0.2897,0.2897,0.2897,0.2897,0.2897,0.2897,0.2897,0.2897,0.2897,0.2963,0.3029,0.2941,0.2963,0.3029,0.2941,0.2897,0.2897,0.2897,0.2897,0.2897,0.2897,0.2916,0.2965,0.2965,0.2989,0.3004,0.304,0.3056,0.3051,0.3092,0.3139,0.317,0.3198,0.3205,0.3205,0.3205,0.3205,0.3205,0.3205,0.3205,0.3205,0.3205,0.3205,0.3205,0.3205,0.3205,0.3205,0.3205,0.3205,0.3205,0.3205,0.3205,0.3205,0.3205,0.3205,0.3205,0.3205,0.3205,0.3205,0.3205,0.3205,0.3205,0.3205,0.3205,0.3205,0.3205,0.3205,0.3205,0.3205,0.3205,0.3205,-0.0611,0.0103,0.0837,0.1094,0.0,0.2785,0.2797,0.0,0.0,0.0,0.0,0.0,0.0,0.2885,0.0,0.3171,0.3205,0.3205,0.3205,0.3205,0.32,0.3186,0.3118,0.3086,0.3083,0.3032,0.298,0.2901,0.2897,0.2897,0.2897,0.2897,0.2897,0.2897,0.2897,0.2897,0.2897,0.2897,0.2897,0.2897,0.2897,0.2897,0.2897,0.2897,0.2897,0.2897,0.2897,0.2897,0.2897,0.2897,0.2897,0.2897,0.2897,0.2897,0.2897,0.2897,0.2897,0.2897,0.2897,0.2905,0.2916,0.2916,0.2979,0.3026,0.3026,0.3059,0.3109,0.3098,0.3106,0.3109,0.3121,0.317,0.3205,0.3205,0.3205,0.3205,0.3205,0.3205,0.3205,0.3205,0.3205,0.3205,0.3205,0.3205,0.3205,0.3205,0.3205,0.3205,0.3205,0.3205,0.3205,0.3205,0.3155,0.3079,0.3027,0.3002,0.3029,0.3104,0.3155,0.3205,0.3205,0.3205,0.3205,0.3205,0.3205,0.3205,0.3205,0.3205,0.3205,0.3205,0.3205,0.3205,-0.1573,-0.1343,-0.0999,0.0609,0.2009,0.0,0.3066,0.2823,0.0,0.0,0.0,0.0,0.0,0.2765,0.311,0.3196,0.3205,0.3205,0.3205,0.0,0.3185,0.3103,0.3093,0.307,0.3023,0.3007,0.298,0.2901,0.2897,0.2897,0.2897,0.2897,0.2897,0.2897,0.2897,0.2897,0.2897,0.2897,0.2897,0.2897,0.2897,0.2897,0.2897,0.2897,0.2897,0.2897,0.2897,0.2897,0.2897,0.2897,0.2897,0.2897,0.2897,0.2897,0.2897,0.2897,0.2897,0.2897,0.2897,0.2931,0.2998,0.2998,0.304,0.309,0.309,0.3093,0.3109,0.3098,0.3112,0.3123,0.3183,0.3202,0.3205,0.3205,0.3205,0.3205,0.3205,0.3205,0.3205,0.3205,0.3205,0.3205,0.3205,0.3205,0.3205,0.3205,0.3205,0.3205,0.3205,0.3205,0.3205,0.3205,0.2977,0.2725,0.2472,0.2447,0.2573,0.2801,0.3054,0.3205,0.3205,0.3205,0.3205,0.3205,0.3205,0.3205,0.3205,0.3205,0.3205,0.3205,0.3205,0.3205,-0.2355,-0.1478,-0.046,0.0108,0.1517,0.0,0.0,0.0,0.0,0.0,0.0,0.0,0.0,0.0,0.2677,0.2696,0.2699,0.2699,0.2699,0.2696,0.2695,0.2675,0.2594,0.2541,0.2502,0.2607,0.2624,0.247,0.2739,0.2829,0.2649,0.2806,0.2897,0.2897,0.2897,0.2897,0.2897,0.2897,0.2897,0.2897,0.2897,0.2897,0.2897,0.2897,0.2897,0.2897,0.2897,0.2897,0.2897,0.2897,0.2897,0.2897,0.2897,0.2897,0.2897,0.2897,0.2897,0.2901,0.2937,0.2986,0.3011,0.305,0.308,0.3105,0.3105,0.3132,0.3166,0.3165,0.3171,0.3177,0.3198,0.3205,0.3205,0.3205,0.3205,0.3205,0.3205,0.3205,0.3205,0.3205,0.3205,0.3205,0.3205,0.3205,0.3205,0.3205,0.3054,0.2952,0.2952,0.2801,0.2699,0.2699,0.2623,0.2522,0.2422,0.2548,0.2699,0.2801,0.275,0.2775,0.2952,0.2801,0.2699,0.2699,0.2876,0.2952,0.2952,0.2952,0.3029,0.3205,0.3029,0.3054,-0.2408,-0.1417,-0.025,0.0,0.0,0.0,0.0,0.0,0.0,0.0,0.0,0.0,0.0,0.0,0.0,0.0,0.2396,0.2391,0.2402,0.2448,0.2489,0.246,0.2446,0.2401,0.2293,0.2422,0.2424,0.2221,0.2491,0.2604,0.2424,0.2581,0.2716,0.2761,0.2784,0.2806,0.2897,0.2897,0.2897,0.2897,0.2897,0.2897,0.2897,0.2897,0.2897,0.2897,0.2897,0.2897,0.2897,0.2897,0.2897,0.2897,0.2897,0.2897,0.2897,0.2897,0.2897,0.2905,0.2985,0.3016,0.3043,0.3083,0.3119,0.3143,0.3143,0.3173,0.3205,0.3205,0.3205,0.3205,0.3205,0.3205,0.3205,0.3205,0.3205,0.3205,0.3205,0.3205,0.3205,0.3205,0.3205,0.3205,0.3205,0.3205,0.3205,0.3205,0.3054,0.2927,0.2927,0.2699,0.2472,0.2297,0.2346,0.2321,0.217,0.2322,0.2448,0.255,0.2297,0.2372,0.2901,0.275,0.2623,0.2522,0.2699,0.275,0.2674,0.275,0.2901,0.3079,0.2977,0.3029,-0.1634,-0.1295,-0.0718,0.0,0.0,0.0,0.0,0.0,0.0,0.0,0.0,0.0,0.0,0.0,0.0,0.2395,0.2395,0.2404,0.2384,0.2573,0.2658,0.2605,0.2821,0.2866,0.2518,0.2491,0.2401,0.2199,0.2199,0.2199,0.2199,0.2199,0.2289,0.2491,0.2491,0.2627,0.2897,0.2897,0.2897,0.2897,0.2897,0.2897,0.2897,0.2897,0.2897,0.2897,0.2897,0.2897,0.2897,0.2897,0.2897,0.2897,0.2897,0.2897,0.2897,0.2897,0.2897,0.2905,0.2985,0.3044,0.3106,0.3096,0.3156,0.3205,0.3205,0.3205,0.3205,0.3205,0.3205,0.3205,0.3205,0.3205,0.3205,0.3205,0.3205,0.3205,0.3205,0.3205,0.3205,0.3205,0.3205,0.3205,0.3205,0.3205,0.3205,0.3205,0.3205,0.3205,0.3205,0.2952,0.26,0.2071,0.2246,0.2196,0.1642,0.1617,0.1718,0.1996,0.1768,0.2096,0.3155,0.318,0.3054,0.2801,0.2801,0.2674,0.2396,0.2674,0.2801,0.2801,0.3079,0.3205,-0.1789,-0.089,0.0,0.037,0.0,0.0,0.0,0.0,0.0,0.0,0.0,0.1718,0.1718,0.0,0.0,0.1835,0.1831,0.1819,0.1784,0.1948,0.2063,0.2039,0.2101,0.2122,0.202,0.2019,0.1907,0.166,0.1997,0.2109,0.193,0.2109,0.2221,0.2289,0.2424,0.2536,0.2627,0.2806,0.2897,0.2897,0.2897,0.2897,0.2897,0.2897,0.2897,0.2897,0.2897,0.2897,0.2897,0.2897,0.2897,0.2897,0.2897,0.2897,0.2897,0.2897,0.2897,0.2905,0.2985,0.3044,0.3106,0.3096,0.3156,0.3205,0.3205,0.3205,0.3205,0.3205,0.3054,0.2952,0.3155,0.3054,0.2977,0.3155,0.3205,0.3205,0.3205,0.3205,0.3205,0.3205,0.3205,0.3205,0.3205,0.3205,0.3205,0.3205,0.3029,0.2851,0.2674,0.2573,0.2447,0.2297,0.2346,0.2346,0.217,0.2347,0.2473,0.255,0.2676,0.2625,0.2374,0.2172,0.2045,0.1969,0.2147,0.2297,0.2396,0.2472,0.2725,0.3079,0.2977,0.3027,-0.0999,-0.0078,0.0,0.0881,0.1312,0.0,0.0,0.0,0.0,0.0,0.0,0.1598,0.1598,0.1589,0.0,0.1556,0.1553,0.1543,0.1513,0.1679,0.1799,0.1807,0.1899,0.1907,0.1817,0.1794,0.1682,0.1413,0.1705,0.1817,0.166,0.1794,0.193,0.2042,0.2154,0.2267,0.2379,0.2627,0.2739,0.2739,0.2851,0.2897,0.2897,0.2897,0.2897,0.2897,0.2897,0.2897,0.2897,0.2897,0.2897,0.2897,0.2897,0.2897,0.2897,0.2897,0.2897,0.2905,0.2985,0.3029,0.307,0.3083,0.312,0.3169,0.3169,0.3186,0.318,0.3079,0.2927,0.2801,0.2876,0.2851,0.2876,0.313,0.3205,0.3205,0.3205,0.3205,0.3205,0.3205,0.3205,0.3205,0.3205,0.3205,0.3205,0.3205,0.3054,0.2851,0.2598,0.2648,0.2623,0.2422,0.2497,0.2522,0.2422,0.2548,0.2648,0.2648,0.2801,0.2675,0.2171,0.2197,0.2197,0.207,0.2247,0.2348,0.2396,0.2497,0.2725,0.3029,0.2977,0.3054,0.026,0.0,0.0,0.1394,0.139,0.0,0.0,0.0,0.0,0.1571,0.0,0.1592,0.1592,0.1545,0.1501,0.1498,0.1498,0.1488,0.148,0.1661,0.181,0.1798,0.2019,0.2064,0.1817,0.1772,0.166,0.1413,0.1391,0.1391,0.1391,0.1391,0.1503,0.1749,0.1794,0.1907,0.2154,0.2379,0.2469,0.2469,0.2716,0.2829,0.2829,0.2873,0.2897,0.2897,0.2897,0.2897,0.2897,0.2897,0.2897,0.2897,0.2897,0.2897,0.2897,0.2897,0.2897,0.2904,0.2979,0.3,0.3014,0.3069,0.3106,0.3106,0.3106,0.3144,0.314,0.2868,0.2794,0.2743,0.2496,0.2623,0.2876,0.313,0.3205,0.3205,0.318,0.318,0.3205,0.3205,0.3205,0.3205,0.3205,0.3205,0.3205,0.3205,0.3205,0.3104,0.2876,0.3054,0.3002,0.2522,0.2699,0.275,0.2497,0.2472,0.2472,0.2472,0.2472,0.2472,0.2472,0.2901,0.3002,0.2775,0.2775,0.2648,0.2447,0.2674,0.2801,0.2851,0.3079,0.3205,0.0137,0.0775,0.0,0.0,0.139,0.1413,0.0,0.0,0.1501,0.1514,0.1516,0.1512,0.1512,0.1506,0.1495,0.1494,0.1491,0.148,0.1427,0.1648,0.1804,0.1795,0.1861,0.1861,0.1817,0.1615,0.1458,0.1413,0.1391,0.1391,0.1391,0.1391,0.1436,0.148,0.1682,0.1817,0.1885,0.2131,0.2267,0.2267,0.2334,0.2357,0.2357,0.2739,0.2897,0.2897,0.2897,0.2897,0.2897,0.2897,0.2897,0.2897,0.2897,0.2897,0.2897,0.2897,0.2897,0.2899,0.2911,0.2967,0.3007,0.3019,0.3066,0.3092,0.3092,0.3102,0.3074,0.2801,0.2713,0.2724,0.2714,0.275,0.2876,0.313,0.3205,0.313,0.2927,0.3054,0.3205,0.3205,0.3205,0.3205,0.3205,0.3205,0.3205,0.3205,0.3205,0.318,0.313,0.3155,0.3155,0.3029,0.3079,0.3079,0.3029,0.3029,0.3029,0.3029,0.3029,0.3029,0.3029,0.2725,0.2548,0.2497,0.2497,0.2573,0.2725,0.2775,0.2901,0.3104,0.318,0.3205,0.0562,0.0,0.0,0.1433,0.0,0.0,0.0,0.0,0.1441,0.1456,0.1471,0.1504,0.1504,0.1469,0.1455,0.1461,0.1459,0.1431,0.1415,0.1525,0.1615,0.1615,0.1615,0.1615,0.1615,0.148,0.1391,0.1391,0.1391,0.1391,0.1391,0.1391,0.1391,0.1391,0.1525,0.1615,0.1615,0.1885,0.2019,0.2019,0.2131,0.2199,0.2221,0.2558,0.2784,0.2897,0.2897,0.2897,0.2897,0.2897,0.2897,0.2897,0.2897,0.2897,0.2897,0.2897,0.2897,0.2897,0.2897,0.2915,0.2941,0.2941,0.3004,0.3052,0.3052,0.3073,0.3031,0.2749,0.2678,0.2678,0.2581,0.2682,0.2801,0.2826,0.3002,0.3155,0.3027,0.3104,0.3205,0.3205,0.3205,0.3205,0.3205,0.3205,0.3205,0.3205,0.3205,0.3205,0.3205,0.3205,0.3205,0.3205,0.3205,0.3205,0.3205,0.3205,0.3205,0.3205,0.3205,0.3205,0.3205,0.2927,0.2775,0.2775,0.2775,0.2851,0.3002,0.3002,0.3054,0.3205,0.3205,0.3205,0.1098,0.0,0.141,0.1467,0.1495,0.0,0.1504,0.1457,0.1391,0.1391,0.1455,0.1473,0.1473,0.143,0.1391,0.1391,0.1391,0.1391,0.1391,0.1391,0.1391,0.1391,0.1391,0.1391,0.1391,0.1391,0.1391,0.1391,0.1391,0.1391,0.1391,0.1391,0.1391,0.1391,0.1391,0.1391,0.1391,0.166,0.1772,0.1727,0.1952,0.2086,0.2131,0.2312,0.2513,0.2784,0.2784,0.2784,0.2784,0.2806,0.2829,0.2829,0.2873,0.2897,0.2897,0.2897,0.2897,0.2897,0.2897,0.2897,0.2897,0.2897,0.2929,0.2989,0.2989,0.3026,0.2997,0.2699,0.2661,0.2699,0.2447,0.2605,0.2789,0.2596,0.2876,0.318,0.313,0.3155,0.3205,0.3205,0.3205,0.3205,0.3205,0.3205,0.3205,0.3205,0.3205,0.3205,0.3205,0.3205,0.3205,0.3205,0.3205,0.3205,0.3205,0.3205,0.3205,0.3205,0.3205,0.3205,0.3205,0.3205,0.3205,0.3205,0.3205,0.3205,0.3205,0.3205,0.3205,0.3205,0.3205,0.3205,0.0,0.0,0.1399,0.0,0.1464,0.1504,0.0,0.0,0.1391,0.0,0.1416,0.1418,0.1418,0.1416,0.1391,0.1391,0.1391,0.1391,0.1391,0.1391,0.1391,0.1391,0.1391,0.1391,0.1391,0.1391,0.1391,0.1391,0.1391,0.1391,0.1391,0.1391,0.1391,0.1391,0.1391,0.1391,0.1391,0.166,0.1682,0.1458,0.148,0.1637,0.1861,0.1885,0.2042,0.2289,0.2289,0.2289,0.2312,0.2491,0.2558,0.2581,0.2806,0.2897,0.2897,0.2897,0.2897,0.2897,0.2897,0.2897,0.2897,0.2897,0.2901,0.2908,0.2908,0.2914,0.2886,0.266,0.2769,0.2913,0.2698,0.285,0.3066,0.3093,0.3155,0.313,0.2901,0.3029,0.3205,0.3205,0.3205,0.3205,0.3205,0.3205,0.3205,0.3205,0.3205,0.3205,0.3205,0.3205,0.3205,0.3205,0.3205,0.3205,0.3205,0.3205,0.3205,0.3205,0.3205,0.3205,0.3205,0.3205,0.3205,0.3205,0.3205,0.3205,0.3205,0.3205,0.3205,0.3205,0.3205,0.3205,0.1218,0.1306,0.1368,0.0,0.1509,0.1506,0.1506,0.0,0.1456,0.1416,0.1391,0.1391,0.1391,0.1391,0.1391,0.1391,0.1391,0.1391,0.1391,0.1391,0.1391,0.1391,0.1391,0.1391,0.1391,0.1391,0.1391,0.1391,0.1391,0.1391,0.1391,0.1391,0.1391,0.1391,0.1391,0.148,0.1615,0.1749,0.1817,0.1839,0.1705,0.1682,0.1794,0.1637,0.1794,0.2199,0.2199,0.2199,0.2199,0.2289,0.2401,0.2513,0.2627,0.2761,0.2897,0.2897,0.2897,0.2897,0.2897,0.2897,0.2897,0.2897,0.2897,0.2897,0.2897,0.2897,0.288,0.2793,0.2889,0.2978,0.2946,0.3016,0.3106,0.319,0.3205,0.318,0.3054,0.313,0.3205,0.3205,0.3205,0.3205,0.3205,0.3205,0.3205,0.3205,0.3205,0.3205,0.3205,0.3205,0.3205,0.3205,0.3205,0.3205,0.3205,0.3205,0.3205,0.3205,0.3205,0.3205,0.3205,0.3783,0.4108,0.4108,0.3506,0.3205,0.3205,0.3205,0.3205,0.3205,0.3205,0.3205,0.0,0.0,0.1345,0.1517,0.1525,0.1504,0.0,0.0,0.1497,0.0,0.1418,0.1391,0.1391,0.1391,0.1391,0.1391,0.1391,0.1391,0.1391,0.1391,0.1391,0.1391,0.1391,0.1391,0.1391,0.1391,0.1391,0.1391,0.1391,0.1391,0.1391,0.1391,0.1436,0.1503,0.1503,0.1592,0.1794,0.1794,0.1952,0.2267,0.2019,0.1907,0.1885,0.1705,0.1817,0.2199,0.2131,0.2131,0.2199,0.2243,0.2357,0.2513,0.2581,0.2716,0.2897,0.2897,0.2897,0.2897,0.2897,0.2897,0.2897,0.2897,0.2897,0.2897,0.2897,0.2897,0.2897,0.2897,0.2927,0.3,0.3077,0.3106,0.3112,0.3188,0.3205,0.3205,0.3205,0.3205,0.3205,0.3205,0.3205,0.3205,0.3205,0.3205,0.3205,0.3205,0.3205,0.3205,0.3205,0.3205,0.3205,0.3205,0.3205,0.3205,0.3205,0.3205,0.3205,0.3205,0.3457,0.3607,0.3607,0.4632,0.5206,0.5206,0.4431,0.3882,0.3607,0.3607,0.3457,0.3205,0.3205,0.3205,0.0,0.1198,0.0,0.1384,0.0,0.0,0.0,0.0,0.1504,0.1502,0.1433,0.1391,0.1391,0.1391,0.1391,0.1391,0.1391,0.1391,0.1391,0.1391,0.1391,0.1391,0.1391,0.1391,0.1391,0.1391,0.1391,0.1391,0.1391,0.1391,0.1391,0.1391,0.1525,0.1772,0.1772,0.1794,0.1794,0.1794,0.2019,0.2491,0.2267,0.2176,0.2176,0.2154,0.2176,0.2176,0.193,0.1974,0.2221,0.2401,0.2491,0.2513,0.2784,0.2897,0.2897,0.2897,0.2897,0.2897,0.2897,0.2897,0.2897,0.2897,0.2897,0.2897,0.2897,0.2897,0.2897,0.2897,0.2899,0.2927,0.3066,0.3098,0.3109,0.3178,0.3205,0.3205,0.3205,0.3205,0.3205,0.3205,0.3205,0.3205,0.3205,0.3205,0.3205,0.3205,0.3205,0.3205,0.3205,0.3205,0.3205,0.3205,0.3205,0.3205,0.3205,0.3205,0.3205,0.3205,0.4158,0.4709,0.4709,0.5752,0.6323,0.6323,0.6274,0.5727,0.4709,0.4709,0.4183,0.3205,0.3205,0.3205,0.0,0.0,0.0,0.1382,0.1429,0.1458,0.1531,0.154,0.1551,0.1512,0.1472,0.1458,0.1416,0.1391,0.1391,0.1391,0.1391,0.1391,0.1391,0.1391,0.1391,0.1391,0.1391,0.1391,0.1391,0.1506,0.1582,0.1582,0.1714,0.1722,0.1592,0.1722,0.1765,0.1743,0.1851,0.2015,0.2176,0.2408,0.2581,0.2761,0.2513,0.2401,0.2379,0.2266,0.2267,0.2379,0.2289,0.2221,0.2199,0.2289,0.2379,0.2513,0.2604,0.2739,0.2897,0.2897,0.2897,0.2897,0.2897,0.2897,0.2897,0.2897,0.2897,0.2897,0.2897,0.2897,0.2897,0.2897,0.2897,0.2925,0.3065,0.3097,0.3127,0.3177,0.3205,0.3205,0.3205,0.3205,0.3205,0.3205,0.3205,0.3205,0.3205,0.3205,0.3205,0.3205,0.3205,0.3205,0.3205,0.3806,0.3957,0.3281,0.4431,0.4979,0.4282,0.4855,0.5252,0.5252,0.5602,0.5827,0.5827,0.685,0.7422,0.7422,0.8099,0.7599,0.5827,0.5827,0.5627,0.5227,0.4556,0.4234,0.1213,0.0,0.0,0.0,0.0,0.137,0.1387,0.1478,0.152,0.15,0.1558,0.1566,0.1454,0.1487,0.1503,0.1413,0.1391,0.1391,0.1391,0.1391,0.1391,0.1391,0.1391,0.1391,0.1391,0.1583,0.1695,0.1695,0.1894,0.1934,0.1807,0.1934,0.1976,0.1913,0.2039,0.2224,0.2493,0.2658,0.2777,0.2866,0.2707,0.2627,0.2627,0.2334,0.2357,0.2627,0.2379,0.2334,0.2424,0.2424,0.2513,0.2627,0.2627,0.2739,0.2897,0.2897,0.2897,0.2897,0.2897,0.2897,0.2897,0.2897,0.2897,0.2897,0.2897,0.2897,0.2897,0.2897,0.2897,0.2919,0.304,0.3073,0.3129,0.3182,0.3205,0.3205,0.3205,0.3205,0.3205,0.3205,0.3205,0.3205,0.3205,0.3205,0.3205,0.3205,0.3205,0.3205,0.3205,0.4133,0.4533,0.3806,0.5327,0.6099,0.5406,0.6002,0.6398,0.6398,0.6747,0.6946,0.6946,0.7971,0.8549,0.8549,0.9229,0.8899,0.7471,0.712,0.6747,0.6373,0.5679,0.5331,0.0,0.0,0.0,0.0,0.0,0.0,0.1208,0.0,0.1427,0.1487,0.1664,0.1732,0.1525,0.166,0.1705,0.1436,0.1391,0.1391,0.1391,0.1391,0.1391,0.1391,0.1413,0.1413,0.1391,0.1583,0.1715,0.1715,0.1892,0.2014,0.2014,0.2014,0.2098,0.2308,0.2309,0.2436,0.2689,0.2515,0.2543,0.2805,0.2867,0.2897,0.2873,0.2401,0.2446,0.2829,0.2109,0.2199,0.2873,0.2873,0.2873,0.2873,0.2873,0.2873,0.2897,0.2897,0.2897,0.2897,0.2897,0.2897,0.2897,0.2897,0.2897,0.2897,0.2897,0.2897,0.2897,0.2897,0.2897,0.291,0.2989,0.3046,0.3128,0.3188,0.3202,0.3204,0.3205,0.3205,0.3205,0.3205,0.3205,0.3205,0.3205,0.3205,0.3205,0.3205,0.323,0.3256,0.3256,0.4209,0.4885,0.486,0.5827,0.6473,0.6448,0.6473,0.6498,0.6498,0.7471,0.8046,0.8046,0.9051,0.9603,0.9603,0.9603,0.9603,0.9603,0.8549,0.7521,0.6498,0.6473,0.6423,0.116,0.0,0.0,0.0,0.0,0.0,0.0,0.0,0.1345,0.1403,0.1481,0.1489,0.1444,0.1463,0.148,0.1413,0.1391,0.1391,0.1391,0.1391,0.1391,0.1391,0.157,0.1615,0.1413,0.1844,0.2079,0.0,0.219,0.23,0.2159,0.2139,0.2239,0.244,0.2501,0.2545,0.2627,0.2666,0.2718,0.2805,0.2666,0.2604,0.2604,0.2131,0.1974,0.2086,0.1885,0.1907,0.2109,0.2312,0.2289,0.2131,0.2312,0.2491,0.2604,0.2604,0.2739,0.2897,0.2897,0.2897,0.2897,0.2897,0.2897,0.2897,0.2897,0.2897,0.2897,0.2897,0.2897,0.291,0.2989,0.304,0.3114,0.3125,0.314,0.3152,0.3196,0.3205,0.3205,0.3205,0.3205,0.3205,0.3205,0.3205,0.3205,0.3205,0.3858,0.4359,0.4359,0.5979,0.6828,0.6052,0.7624,0.8396,0.7624,0.8273,0.8722,0.8722,0.9002,0.915,0.915,0.9451,0.9603,0.9603,0.9603,0.9603,0.9603,0.9303,0.8998,0.8697,0.7922,0.7148,0.0,0.0,0.0,0.0,0.0,0.0,0.1032,0.1108,0.1223,0.0,0.1498,0.1541,0.1412,0.148,0.1525,0.1413,0.1391,0.1436,0.1548,0.166,0.1727,0.1727,0.1862,0.1907,0.1749,0.211,0.2302,0.2174,0.2433,0.2515,0.237,0.2346,0.2373,0.2491,0.2545,0.2564,0.2564,0.2576,0.2602,0.258,0.2422,0.2272,0.2163,0.1878,0.1704,0.1617,0.1521,0.1416,0.1351,0.1519,0.1727,0.1997,0.2221,0.2401,0.2513,0.2627,0.2761,0.2897,0.2897,0.2897,0.2897,0.2897,0.2897,0.2897,0.2897,0.2897,0.2897,0.2897,0.2897,0.291,0.2989,0.3032,0.3073,0.3087,0.3097,0.3101,0.3161,0.3188,0.3205,0.3205,0.3205,0.3205,0.3205,0.3205,0.3356,0.3806,0.4408,0.4958,0.5406,0.6952,0.7773,0.7123,0.8598,0.9352,0.8722,0.9249,0.9603,0.9603,0.9603,0.9603,0.9603,0.9603,0.9603,0.9603,0.9603,0.9603,0.9603,0.9603,0.9603,0.9579,0.8949,0.8322,0.0,0.0,0.0,0.0,0.0502,0.0,0.0687,0.0856,0.1045,0.1284,0.1541,0.1664,0.1397,0.1574,0.1664,0.1394,0.1402,0.1498,0.1727,0.1952,0.2131,0.2154,0.2176,0.2199,0.2199,0.2355,0.2435,0.2412,0.2577,0.2669,0.2574,0.2533,0.2501,0.2462,0.2455,0.2431,0.2431,0.2309,0.2234,0.2236,0.2121,0.1934,0.1702,0.1618,0.1492,0.1304,0.1051,0.0845,0.0696,0.0732,0.1253,0.2064,0.2289,0.2424,0.2491,0.2761,0.2873,0.2897,0.2897,0.2897,0.2897,0.2897,0.2897,0.2897,0.2873,0.2851,0.2851,0.2829,0.2829,0.2839,0.2889,0.2902,0.2918,0.2977,0.3008,0.3,0.3055,0.3202,0.3345,0.337,0.3275,0.3281,0.3506,0.3456,0.3732,0.4809,0.5083,0.5507,0.6448,0.7521,0.8173,0.8173,0.9027,0.9603,0.9603,0.9603,0.9603,0.9603,0.9603,0.9603,0.9603,0.9603,0.9603,0.9603,0.9603,0.9603,0.9603,0.9603,0.9603,0.9603,0.9603,0.9603,0.0958,0.075,0.0555,0.0517,0.0,0.0,0.0808,0.0848,0.0866,0.0974,0.1163,0.126,0.1103,0.1251,0.132,0.1114,0.1395,0.1605,0.1499,0.1525,0.1637,0.1861,0.2064,0.2199,0.2199,0.251,0.263,0.2413,0.2577,0.2603,0.2361,0.2493,0.2482,0.226,0.2099,0.2019,0.2019,0.1887,0.1807,0.1807,0.1788,0.1744,0.1681,0.1136,0.0884,0.0821,0.0613,0.0578,0.0718,0.094,0.1017,0.1031,0.1458,0.1885,0.2289,0.2491,0.2716,0.2897,0.2897,0.2897,0.2897,0.2897,0.2897,0.2851,0.2649,0.2581,0.2536,0.2379,0.2334,0.2336,0.2344,0.2347,0.236,0.2363,0.2382,0.2446,0.2721,0.3498,0.4209,0.4381,0.3743,0.3756,0.5477,0.5056,0.4857,0.5927,0.6825,0.745,0.767,0.8623,0.9278,0.9278,0.948,0.9603,0.9603,0.9603,0.9603,0.9603,0.9603,0.9603,0.9603,0.9603,0.9603,0.9603,0.9603,0.9603,0.9603,0.9603,0.9603,0.9603,0.9603,0.9603,0.0743,0.0552,0.0395,0.0403,0.0,0.0,0.0,0.0742,0.0779,0.1047,0.1185,0.1226,0.1152,0.1499,0.1665,0.1219,0.1651,0.2043,0.2001,0.1888,0.1846,0.1983,0.2119,0.2202,0.2201,0.2377,0.2452,0.2319,0.2359,0.2352,0.2202,0.2259,0.2179,0.191,0.1806,0.1707,0.1608,0.1409,0.1298,0.1299,0.1192,0.1097,0.0996,0.0854,0.0631,0.0366,0.0453,0.05,0.0527,0.0746,0.0846,0.0907,0.1542,0.2019,0.2379,0.2604,0.2784,0.2897,0.2897,0.2897,0.2897,0.2897,0.2897,0.2851,0.2581,0.2424,0.2334,0.2221,0.2199,0.2199,0.2199,0.2199,0.2205,0.2205,0.2594,0.285,0.253,0.3691,0.4861,0.5103,0.4687,0.4755,0.6163,0.5952,0.5952,0.7049,0.7645,0.8198,0.8726,0.9274,0.9603,0.9603,0.9603,0.9603,0.9603,0.9603,0.9603,0.9603,0.9603,0.9603,0.9603,0.9603,0.9603,0.9603,0.9603,0.9603,0.9603,0.9603,0.9603,0.9603,0.9603,0.9603,0.0,0.0,0.0,0.0,0.0,0.0114,0.0,0.0,0.0,0.1038,0.1119,0.0,0.0,0.0,0.0,0.1248,0.0,0.0,0.0,0.2403,0.0,0.2342,0.2221,0.2145,0.2168,0.2193,0.2199,0.2199,0.2142,0.2099,0.2055,0.2034,0.1867,0.1544,0.1496,0.1376,0.1167,0.091,0.0789,0.0786,0.0668,0.051,0.0373,0.0648,0.051,0.0079,0.0401,0.0486,0.0387,0.0602,0.089,0.1257,0.1924,0.2281,0.2469,0.2784,0.2897,0.2897,0.2897,0.2897,0.2897,0.2897,0.2873,0.2784,0.2558,0.2357,0.2243,0.2422,0.2466,0.2489,0.2623,0.2533,0.2422,0.2578,0.3086,0.3397,0.2804,0.4129,0.5485,0.576,0.5932,0.6217,0.6826,0.6772,0.7024,0.8149,0.8297,0.8623,0.9501,0.9603,0.9603,0.9603,0.9603,0.9603,0.9603,0.9603,0.9603,0.9603,0.9603,0.9603,0.9603,0.9603,0.9603,0.9603,0.9603,0.9603,0.9603,0.9603,0.9603,0.9603,0.9603,0.9603,0.0,0.0,0.0,0.0,0.002,0.0,0.0,0.0,0.0343,0.0402,0.0,0.0,0.0,0.0,0.0,0.0,0.0,0.0,0.2403,0.2528,0.2647,0.2874,0.2287,0.192,0.2098,0.2175,0.2199,0.2199,0.2194,0.2079,0.1855,0.1993,0.1859,0.1358,0.1165,0.0934,0.0689,0.0466,0.0361,0.0373,0.053,0.0589,0.0569,0.0432,0.0334,0.0275,0.0315,0.0459,0.0672,0.0878,0.1324,0.1903,0.2054,0.2162,0.2289,0.2739,0.2897,0.2897,0.2897,0.2897,0.2897,0.2897,0.2739,0.2536,0.2513,0.2357,0.2378,0.3202,0.3444,0.358,0.418,0.3712,0.3242,0.3911,0.3518,0.3257,0.4218,0.5332,0.6245,0.6518,0.7466,0.8372,0.8806,0.8106,0.7904,0.9225,0.9426,0.9451,0.9579,0.9603,0.9603,0.9603,0.9603,0.9603,0.9603,0.9603,0.9603,0.9603,0.9603,0.9603,0.9603,0.9603,0.9603,0.9603,0.9603,0.9603,0.9603,0.9603,0.9603,0.9603,0.9603,0.9603,0.0,0.0,0.0,0.0,0.0,0.0,0.0256,0.0,0.0351,0.0,0.0,0.0,0.0,0.0,0.0,0.0,0.17,0.0,0.0,0.0,0.3237,0.3703,0.0,0.0,0.2432,0.1993,0.1727,0.1727,0.1727,0.1682,0.157,0.1646,0.1541,0.1196,0.0958,0.0833,0.0835,0.0361,0.0238,0.0471,0.0314,0.0373,0.0589,0.051,0.053,0.0648,0.0648,0.0711,0.0837,0.1077,0.1415,0.1797,0.2105,0.235,0.256,0.2637,0.2761,0.2963,0.3341,0.3585,0.3721,0.3721,0.354,0.3315,0.3315,0.3179,0.3202,0.4156,0.4421,0.4465,0.4756,0.4532,0.4332,0.4643,0.4734,0.4734,0.465,0.5754,0.6648,0.6316,0.7141,0.8059,0.8532,0.8445,0.8528,0.9257,0.9356,0.943,0.9579,0.9603,0.9603,0.9603,0.9603,0.9603,0.9603,0.9603,0.9603,0.9603,0.9603,0.9603,0.9603,0.9603,0.9603,0.9603,0.9603,0.9603,0.9603,0.9603,0.9603,0.9603,0.9603,0.9603,0.0442,0.0,0.0,0.0,0.0,0.0,0.0,0.0,0.0,0.0,0.0,0.0,0.0,0.0,0.0,0.0,0.0,0.3129,0.0,0.3663,0.0,0.0,0.0,0.0,0.0,0.2529,0.2083,0.1838,0.1816,0.1681,0.1413,0.1391,0.1315,0.1098,0.0908,0.0825,0.0842,0.0465,0.0378,0.0589,0.0432,0.051,0.0786,0.0786,0.0864,0.1021,0.1061,0.11,0.1119,0.1356,0.1587,0.1795,0.2088,0.2426,0.2721,0.2533,0.2648,0.2961,0.3597,0.4162,0.461,0.461,0.4496,0.4385,0.4385,0.4293,0.438,0.5309,0.5578,0.5622,0.5819,0.5686,0.5553,0.5753,0.5999,0.6065,0.5603,0.6406,0.704,0.646,0.6904,0.7533,0.7922,0.8337,0.8731,0.9051,0.9084,0.9154,0.9352,0.9377,0.9377,0.9377,0.9455,0.948,0.948,0.9554,0.9583,0.9555,0.9551,0.9531,0.9458,0.9551,0.9579,0.9555,0.9579,0.9603,0.9603,0.9603,0.9603,0.9603,0.9603,0.9603,0.0,0.0,0.0,0.0056,0.0,0.0,0.0,0.0,0.0298,0.0,0.0,0.0,0.0,0.0,0.0,0.0,0.0,0.0,0.0,0.0,0.0,0.0,0.0,0.0,0.0,0.4221,0.3822,0.2911,0.2844,0.2419,0.1458,0.1391,0.13,0.1098,0.1097,0.0878,0.0421,0.0778,0.0842,0.0609,0.1041,0.1257,0.1277,0.1277,0.1277,0.1296,0.1493,0.1572,0.1591,0.1788,0.2004,0.2164,0.1992,0.2195,0.258,0.2462,0.2568,0.288,0.3423,0.438,0.5359,0.5359,0.5494,0.563,0.563,0.563,0.583,0.676,0.7029,0.7205,0.7911,0.7423,0.6912,0.7632,0.7088,0.664,0.7584,0.7635,0.7484,0.7444,0.7429,0.7396,0.7429,0.787,0.8362,0.8753,0.8825,0.8825,0.8825,0.8825,0.8825,0.8825,0.9055,0.9212,0.9212,0.9455,0.9551,0.942,0.9412,0.9311,0.912,0.9421,0.9543,0.9416,0.9539,0.9603,0.9603,0.9603,0.9603,0.9603,0.9603,0.9603,0.0,0.0,0.0276,0.0208,0.0,0.0,0.0,0.0,0.0,0.0,0.0,0.0,0.0,0.0,0.0,0.0,0.0,0.0,0.0,0.0,0.0,0.0,0.0,0.0,0.0,0.0,0.3046,0.2719,0.2252,0.0,0.1414,0.1432,0.141,0.1301,0.1174,0.1214,0.1451,0.1161,0.1155,0.1451,0.1354,0.1434,0.1706,0.1706,0.1765,0.1902,0.1961,0.1924,0.1808,0.1867,0.2022,0.2198,0.2117,0.2637,0.3293,0.2486,0.2347,0.2724,0.406,0.5514,0.6697,0.6229,0.6226,0.6425,0.6425,0.6517,0.683,0.7808,0.8098,0.8142,0.8406,0.8226,0.805,0.83,0.7959,0.7687,0.8025,0.7918,0.7768,0.7768,0.7612,0.7505,0.7577,0.7639,0.7807,0.822,0.8269,0.8341,0.8504,0.8528,0.8528,0.8528,0.8627,0.8679,0.8679,0.8747,0.8839,0.8942,0.8824,0.8847,0.91,0.904,0.9128,0.9404,0.9441,0.9506,0.9603,0.9603,0.9603,0.9603,0.9603,0.9603,0.0972,0.0747,0.0,0.0334,0.02,0.0,0.0017,0.0,0.0107,0.0,0.0,0.0,0.0,0.0,0.0,0.0,0.0,0.0,0.0,0.4884,0.0,0.0,0.0,0.0,0.0,0.0,0.3929,0.3658,0.2892,0.0,0.0,0.1642,0.146,0.1429,0.129,0.135,0.1682,0.1457,0.1505,0.1786,0.1753,0.1864,0.2117,0.2117,0.2176,0.2314,0.2314,0.2237,0.214,0.2452,0.2647,0.2761,0.2761,0.3365,0.4093,0.2911,0.2912,0.3671,0.4901,0.6279,0.7418,0.6944,0.6962,0.7202,0.7268,0.7379,0.765,0.8388,0.859,0.859,0.859,0.859,0.859,0.859,0.8472,0.8336,0.8336,0.816,0.8006,0.8006,0.7812,0.7668,0.7766,0.7671,0.7636,0.7824,0.7855,0.7926,0.8086,0.811,0.811,0.811,0.8204,0.8297,0.8387,0.8335,0.8347,0.8482,0.837,0.8417,0.8658,0.8625,0.8711,0.8934,0.9148,0.9292,0.9384,0.9522,0.9603,0.9603,0.9603,0.9603]},{"header":{"parameterUnit":"m.s-1","parameterCategory":1,"la1":30.6,"la2":29.2853,"lo1":-89.7004,"lo2":-87.6739,"dy":0.0162,"dx":0.0183,"nx":112,"ny":82,"refTime":"2024-08-16T18:00:00:Z","depth":0,"parameterNumber":3,"parameterNumberName":"V-component_of_WINDS"},"data":[0.0,0.0,0.0,0.0,0.0,0.0,0.0,0.0,0.0,0.0,0.0,0.0,0.0,0.0,0.0,0.0,0.0,0.0,0.0,0.0,0.0,0.0,0.0,0.0,0.0,0.0,0.0,0.0,0.0,0.0,0.0,0.0,0.0,0.0,0.0,0.0,0.0,0.0,0.0,0.0,0.0,0.0,0.0,0.0,0.0,0.0,0.0,0.0,0.0,0.0,0.0,0.0,0.0,0.0,0.0,0.0,0.0,0.0,0.0,0.0,0.0,0.0,0.0,0.0,0.0,0.0,0.0,0.0,0.0,0.0,0.0,0.0,0.0,0.0,0.0,0.0,0.0,0.0,0.0,0.0,0.0,0.0,0.0,0.0,0.0,0.0,0.0,0.0,0.0,0.0,3.32,3.3944,3.388,3.3525,3.2859,3.3716,3.367,3.2154,0.0,0.0,0.0,0.0,0.0,0.0,0.0,0.0,0.0,0.0,0.0,0.0,0.0,0.0,0.0,0.0,0.0,0.0,0.0,0.0,0.0,0.0,0.0,0.0,0.0,0.0,0.0,0.0,0.0,0.0,0.0,0.0,0.0,0.0,0.0,0.0,0.0,0.0,0.0,0.0,0.0,0.0,0.0,0.0,0.0,0.0,0.0,0.0,0.0,0.0,0.0,0.0,0.0,0.0,0.0,0.0,0.0,0.0,0.0,0.0,0.0,0.0,0.0,0.0,0.0,0.0,0.0,0.0,0.0,0.0,0.0,0.0,0.0,0.0,0.0,0.0,0.0,0.0,0.0,0.0,0.0,0.0,0.0,0.0,0.0,0.0,0.0,0.0,0.0,0.0,0.0,0.0,0.0,0.0,0.0,0.0,0.0,0.0,0.0,0.0,0.0,0.0,0.0,0.0,3.4107,3.4895,3.4215,3.3711,3.3703,3.408,3.3592,3.1954,0.0,0.0,0.0,0.0,0.0,0.0,0.0,0.0,0.0,0.0,0.0,0.0,0.0,0.0,0.0,0.0,0.0,0.0,0.0,0.0,0.0,0.0,0.0,0.0,0.0,0.0,0.0,0.0,0.0,0.0,0.0,0.0,0.0,0.0,0.0,0.0,0.0,0.0,0.0,0.0,0.0,0.0,0.0,0.0,0.0,0.0,0.0,0.0,0.0,0.0,0.0,0.0,0.0,0.0,0.0,0.0,0.0,0.0,0.0,0.0,0.0,0.0,0.0,0.0,0.0,0.0,0.0,0.0,0.0,0.0,0.0,0.0,0.0,0.0,0.0,0.0,0.0,0.0,0.0,0.0,0.0,0.0,0.0,0.0,0.0,0.0,0.0,0.0,0.0,0.0,0.0,0.0,0.0,0.0,0.0,0.0,0.0,0.0,0.0,0.0,0.0,0.0,0.0,3.2876,3.3582,3.446,3.4066,3.3603,3.3222,3.3771,3.3442,3.1855,3.2121,0.0,0.0,0.0,0.0,0.0,0.0,0.0,0.0,0.0,0.0,0.0,0.0,0.0,0.0,0.0,0.0,0.0,0.0,0.0,0.0,0.0,0.0,0.0,0.0,0.0,0.0,0.0,0.0,0.0,0.0,0.0,0.0,0.0,0.0,0.0,0.0,0.0,0.0,0.0,0.0,0.0,0.0,0.0,0.0,0.0,0.0,0.0,0.0,0.0,0.0,0.0,0.0,0.0,0.0,0.0,0.0,0.0,0.0,0.0,0.0,0.0,0.0,0.0,0.0,0.0,0.0,0.0,0.0,0.0,0.0,0.0,0.0,0.0,0.0,0.0,0.0,0.0,0.0,0.0,0.0,0.0,0.0,0.0,0.0,0.0,0.0,0.0,0.0,0.0,0.0,0.0,0.0,0.0,0.0,0.0,0.0,0.0,0.0,0.0,0.0,0.0,0.0,3.3319,3.3226,3.4177,3.3987,3.3537,3.2957,3.3393,3.3124,3.1734,3.1734,0.0,0.0,0.0,0.0,0.0,0.0,0.0,0.0,0.0,0.0,0.0,0.0,0.0,0.0,0.0,0.0,0.0,0.0,0.0,0.0,0.0,0.0,0.0,0.0,0.0,0.0,0.0,0.0,0.0,0.0,0.0,0.0,0.0,0.0,0.0,0.0,0.0,0.0,0.0,0.0,0.0,0.0,0.0,0.0,0.0,0.0,0.0,0.0,0.0,0.0,0.0,0.0,0.0,0.0,0.0,0.0,0.0,0.0,0.0,0.0,0.0,0.0,0.0,0.0,0.0,0.0,0.0,0.0,0.0,0.0,0.0,0.0,0.0,0.0,0.0,0.0,0.0,0.0,0.0,0.0,0.0,0.0,0.0,0.0,0.0,0.0,0.0,0.0,0.0,0.0,0.0,0.0,0.0,0.0,0.0,0.0,0.0,0.0,0.0,0.0,0.0,0.0,3.3782,3.4005,3.5006,3.4277,3.3723,3.3801,3.3234,3.2484,3.1574,3.1115,0.0,0.0,0.0,0.0,0.0,0.0,0.0,0.0,0.0,0.0,0.0,0.0,0.0,0.0,0.0,0.0,0.0,0.0,0.0,0.0,0.0,0.0,0.0,0.0,0.0,0.0,0.0,0.0,0.0,0.0,0.0,0.0,0.0,0.0,0.0,0.0,0.0,0.0,0.0,0.0,0.0,0.0,0.0,0.0,0.0,0.0,0.0,0.0,0.0,0.0,0.0,0.0,0.0,0.0,0.0,0.0,0.0,0.0,0.0,0.0,0.0,0.0,0.0,0.0,0.0,0.0,0.0,0.0,0.0,0.0,0.0,0.0,0.0,0.0,0.0,0.0,0.0,0.0,0.0,0.0,0.0,0.0,0.0,0.0,0.0,0.0,0.0,0.0,0.0,0.0,0.0,0.0,0.0,0.0,0.0,0.0,0.0,0.0,0.0,0.0,0.0,0.0,3.306,3.3533,0.0,3.433,3.3787,3.3822,3.3657,3.2945,3.1532,0.0,0.0,0.0,0.0,0.0,0.0,0.0,0.0,0.0,0.0,0.0,0.0,0.0,0.0,0.0,0.0,0.0,0.0,0.0,0.0,0.0,0.0,0.0,0.0,0.0,0.0,0.0,0.0,0.0,0.0,0.0,0.0,0.0,0.0,0.0,0.0,0.0,0.0,0.0,0.0,0.0,0.0,0.0,0.0,0.0,0.0,0.0,0.0,0.0,0.0,0.0,0.0,0.0,0.0,0.0,0.0,0.0,0.0,0.0,0.0,0.0,0.0,0.0,0.0,0.0,0.0,0.0,0.0,0.0,0.0,0.0,0.0,0.0,0.0,0.0,0.0,0.0,0.0,0.0,0.0,0.0,0.0,0.0,0.0,0.0,0.0,0.0,0.0,0.0,0.0,0.0,0.0,0.0,0.0,0.0,0.0,0.0,0.0,0.0,0.0,0.0,0.0,3.2089,3.261,3.3359,0.0,3.4169,3.3793,3.3773,3.3421,3.2686,3.147,0.0,0.0,0.0,0.0,0.0,0.0,0.0,0.0,0.0,0.0,0.0,0.0,0.0,0.0,0.0,0.0,0.0,0.0,0.0,0.0,0.0,0.0,0.0,0.0,0.0,0.0,0.0,0.0,0.0,0.0,0.0,0.0,0.0,0.0,0.0,0.0,0.0,0.0,0.0,0.0,0.0,0.0,0.0,0.0,0.0,0.0,0.0,0.0,0.0,0.0,0.0,0.0,0.0,0.0,0.0,0.0,0.0,0.0,0.0,0.0,0.0,0.0,0.0,0.0,0.0,0.0,0.0,0.0,0.0,0.0,0.0,0.0,0.0,0.0,0.0,0.0,0.0,0.0,0.0,0.0,0.0,0.0,0.0,0.0,0.0,0.0,0.0,0.0,0.0,0.0,0.0,0.0,0.0,0.0,0.0,0.0,0.0,0.0,0.0,0.0,0.0,0.0,3.1223,3.2663,3.3671,3.3612,3.3719,3.378,3.3705,3.2351,3.1483,0.0,0.0,0.0,0.0,0.0,0.0,0.0,0.0,0.0,0.0,0.0,0.0,0.0,0.0,0.0,0.0,0.0,0.0,0.0,0.0,0.0,0.0,0.0,0.0,0.0,0.0,0.0,0.0,0.0,0.0,0.0,0.0,0.0,0.0,0.0,0.0,0.0,0.0,0.0,0.0,0.0,0.0,0.0,0.0,0.0,0.0,0.0,0.0,0.0,0.0,0.0,0.0,0.0,0.0,0.0,0.0,0.0,0.0,0.0,0.0,0.0,0.0,0.0,0.0,0.0,0.0,0.0,0.0,0.0,0.0,0.0,0.0,0.0,0.0,0.0,0.0,0.0,0.0,0.0,0.0,0.0,0.0,0.0,0.0,0.0,0.0,0.0,0.0,0.0,0.0,0.0,0.0,0.0,0.0,0.0,0.0,0.0,0.0,0.0,0.0,0.0,0.0,0.0,3.1217,3.2568,3.3591,3.3657,3.3705,3.3739,3.3773,3.2898,3.2078,3.1433,0.0,0.0,0.0,0.0,0.0,0.0,0.0,0.0,0.0,0.0,0.0,0.0,0.0,0.0,0.0,0.0,0.0,0.0,0.0,0.0,0.0,0.0,0.0,0.0,0.0,0.0,0.0,0.0,0.0,0.0,0.0,0.0,0.0,0.0,0.0,0.0,0.0,0.0,0.0,0.0,0.0,0.0,0.0,0.0,0.0,0.0,0.0,0.0,0.0,0.0,0.0,0.0,0.0,0.0,0.0,0.0,0.0,0.0,0.0,0.0,0.0,0.0,0.0,0.0,0.0,0.0,0.0,0.0,0.0,0.0,0.0,0.0,0.0,0.0,0.0,0.0,0.0,0.0,0.0,0.0,0.0,0.0,0.0,0.0,0.0,0.0,0.0,0.0,0.0,0.0,0.0,0.0,0.0,0.0,0.0,0.0,0.0,0.0,0.0,0.0,0.0,0.0,3.1126,3.2545,3.3556,3.3601,3.3691,3.3631,3.3341,3.2616,3.1826,3.1011,0.0,0.0,0.0,0.0,0.0,0.0,0.0,0.0,0.0,0.0,0.0,0.0,0.0,0.0,0.0,0.0,0.0,0.0,0.0,0.0,0.0,0.0,0.0,0.0,0.0,0.0,0.0,0.0,0.0,0.0,0.0,0.0,0.0,0.0,0.0,0.0,0.0,0.0,0.0,0.0,0.0,0.0,0.0,0.0,0.0,0.0,0.0,0.0,0.0,0.0,0.0,0.0,0.0,0.0,0.0,0.0,0.0,0.0,0.0,0.0,0.0,0.0,0.0,0.0,0.0,0.0,0.0,0.0,0.0,0.0,0.0,0.0,0.0,0.0,0.0,0.0,0.0,0.0,0.0,0.0,0.0,0.0,0.0,0.0,0.0,0.0,0.0,0.0,0.0,0.0,0.0,0.0,0.0,0.0,0.0,0.0,0.0,0.0,0.0,0.0,0.0,0.0,3.1145,3.2636,3.3693,3.3629,3.3732,3.347,3.2687,3.1874,3.1097,3.0347,0.0,0.0,0.0,0.0,0.0,0.0,0.0,0.0,0.0,0.0,0.0,0.0,0.0,0.0,0.0,0.0,0.0,0.0,0.0,0.0,0.0,0.0,0.0,0.0,0.0,0.0,0.0,0.0,0.0,0.0,0.0,0.0,0.0,0.0,0.0,0.0,0.0,0.0,0.0,0.0,0.0,0.0,0.0,0.0,0.0,0.0,0.0,0.0,0.0,0.0,0.0,0.0,0.0,0.0,0.0,0.0,0.0,0.0,0.0,0.0,2.8966,2.8563,0.0,0.0,0.0,0.0,0.0,0.0,0.0,0.0,0.0,0.0,0.0,0.0,0.0,0.0,0.0,0.0,0.0,0.0,0.0,0.0,0.0,0.0,0.0,0.0,0.0,0.0,0.0,0.0,0.0,0.0,0.0,0.0,0.0,0.0,0.0,0.0,0.0,0.0,0.0,0.0,3.2031,3.349,3.4564,3.4596,3.4064,3.3436,3.2733,3.1949,3.1133,3.0347,2.9537,0.0,0.0,0.0,0.0,0.0,0.0,0.0,0.0,0.0,0.0,0.0,0.0,0.0,0.0,0.0,0.0,0.0,0.0,0.0,0.0,0.0,0.0,0.0,0.0,0.0,0.0,0.0,0.0,0.0,0.0,0.0,0.0,0.0,0.0,0.0,0.0,0.0,0.0,0.0,0.0,0.0,0.0,0.0,0.0,0.0,0.0,0.0,0.0,0.0,0.0,0.0,0.0,0.0,0.0,0.0,0.0,0.0,0.0,0.0,3.0894,3.0302,0.0,0.0,0.0,0.0,0.0,0.0,0.0,0.0,0.0,0.0,0.0,0.0,0.0,0.0,0.0,0.0,0.0,0.0,0.0,0.0,0.0,0.0,0.0,0.0,0.0,0.0,0.0,0.0,0.0,0.0,0.0,0.0,0.0,0.0,0.0,0.0,0.0,0.0,0.0,0.0,3.2497,3.3586,3.4257,3.392,3.3167,3.2415,3.1709,3.1224,3.0604,2.9776,2.93,0.0,0.0,0.0,0.0,0.0,0.0,0.0,0.0,0.0,0.0,0.0,0.0,0.0,0.0,0.0,0.0,0.0,0.0,0.0,0.0,0.0,0.0,0.0,0.0,0.0,0.0,0.0,0.0,0.0,0.0,0.0,0.0,0.0,0.0,0.0,0.0,0.0,0.0,0.0,0.0,0.0,0.0,0.0,0.0,0.0,0.0,0.0,0.0,0.0,0.0,0.0,0.0,0.0,3.3944,3.3892,3.4042,3.3612,3.3769,3.4336,3.2635,3.2164,3.256,3.2604,0.0,0.0,0.0,0.0,0.0,0.0,0.0,0.0,0.0,0.0,0.0,0.0,0.0,0.0,0.0,0.0,0.0,0.0,0.0,0.0,0.0,0.0,3.594,3.5432,3.5617,3.5798,3.5297,0.0,0.0,0.0,0.0,0.0,0.0,0.0,0.0,0.0,0.0,0.0,3.2926,3.3644,3.3903,3.3302,3.225,3.1374,3.0776,3.0552,3.0137,2.9403,2.9299,2.8963,0.0,0.0,0.0,0.0,0.0,0.0,0.0,0.0,0.0,0.0,0.0,0.0,0.0,0.0,0.0,0.0,0.0,0.0,0.0,0.0,0.0,0.0,0.0,0.0,0.0,0.0,0.0,0.0,0.0,0.0,0.0,0.0,2.7988,2.8497,0.0,0.0,0.0,0.0,0.0,0.0,0.0,0.0,0.0,0.0,0.0,0.0,0.0,3.2585,3.4093,3.5198,3.6058,3.6659,3.7397,3.6976,3.5539,3.5687,3.5312,3.4611,3.5239,0.0,3.4379,3.3726,0.0,0.0,0.0,0.0,0.0,0.0,0.0,0.0,0.0,0.0,0.0,0.0,0.0,0.0,0.0,0.0,0.0,0.0,0.0,0.0,0.0,0.0,3.7695,3.8333,3.7856,3.7593,3.8874,3.7254,3.5497,3.5403,3.4741,3.4092,0.0,0.0,0.0,0.0,0.0,0.0,3.3917,3.4588,3.5088,3.498,3.3007,3.1661,3.1637,3.0976,3.0522,3.0405,3.0344,3.0485,3.0876,3.0332,0.0,0.0,0.0,0.0,0.0,0.0,0.0,0.0,0.0,0.0,0.0,0.0,0.0,0.0,0.0,0.0,0.0,0.0,0.0,0.0,0.0,0.0,0.0,0.0,0.0,0.0,0.0,0.0,0.0,2.7312,2.8899,2.9051,3.0497,3.0943,0.0,0.0,0.0,0.0,0.0,0.0,0.0,0.0,0.0,3.3567,3.4163,3.5024,3.6174,3.7139,3.7535,3.7395,3.7793,3.7353,3.6201,3.6312,3.6103,3.5695,3.6165,3.6367,3.6322,3.579,3.5051,3.4247,0.0,0.0,0.0,0.0,3.4515,3.4784,3.6601,3.6968,3.6639,3.6838,0.0,0.0,0.0,0.0,0.0,0.0,0.0,3.7865,3.8246,3.8804,3.9236,3.9171,3.9138,3.9211,3.945,3.9308,3.8751,3.7455,3.6984,3.6252,3.4609,3.3652,0.0,0.0,0.0,3.5091,3.4769,3.4645,3.4411,3.3937,3.2484,3.1384,3.0994,3.0634,3.0395,3.0328,3.0293,3.0558,3.1155,3.0844,3.0475,0.0,0.0,0.0,0.0,0.0,0.0,0.0,0.0,0.0,0.0,0.0,0.0,0.0,0.0,0.0,0.0,0.0,0.0,0.0,0.0,0.0,0.0,0.0,0.0,0.0,0.0,0.0,0.0,2.8487,2.993,3.0118,3.1839,3.2483,0.0,0.0,0.0,0.0,0.0,0.0,3.347,3.4179,3.4924,3.5724,3.6359,3.7072,3.7875,3.8486,3.8497,3.7966,3.7977,3.7463,3.6537,3.6774,3.6749,3.6537,3.6823,3.7379,3.8004,3.7248,3.6811,3.6615,3.6407,3.641,3.6612,3.696,3.7118,3.7391,3.9154,3.9449,3.9011,3.9132,3.8861,3.8318,3.7291,0.0,0.0,0.0,0.0,3.9199,3.958,3.9887,3.9995,3.9622,3.9824,3.9991,3.9606,4.0674,4.1204,3.9489,3.9085,3.8338,3.6209,3.5455,0.0,0.0,0.0,3.58,3.5137,3.466,3.408,3.3278,3.2152,3.1348,3.0991,3.0758,3.0643,3.0754,3.0747,3.1036,3.1667,3.147,3.1109,3.0575,0.0,0.0,0.0,0.0,0.0,0.0,0.0,0.0,0.0,0.0,0.0,0.0,0.0,0.0,0.0,0.0,0.0,0.0,0.0,0.0,0.0,0.0,0.0,0.0,0.0,0.0,0.0,0.0,0.0,3.2618,3.3388,0.0,0.0,0.0,0.0,3.3571,3.4417,3.5317,3.6251,3.6332,3.6781,3.7718,3.7717,3.8109,3.8923,3.896,3.8979,3.8923,3.899,3.8169,3.6631,3.7511,3.7449,3.6663,3.7748,3.864,3.9169,3.7223,3.7308,3.8601,3.7951,3.8199,3.8946,3.9164,3.9208,3.9226,3.9783,3.9929,3.9896,4.0285,3.929,3.8222,3.9715,3.8508,0.0,0.0,3.9698,3.948,4.1144,4.0427,3.9469,4.025,3.9838,3.9476,4.0252,4.1101,4.1675,4.1548,4.0922,4.026,3.9876,0.0,3.6942,3.5798,3.7004,3.7155,3.4677,3.4977,3.5113,3.4312,3.2707,3.1983,3.2711,3.1961,3.1759,3.2525,3.2516,3.2805,3.3538,3.2762,3.2336,3.2373,3.0931,0.0,0.0,0.0,0.0,0.0,0.0,0.0,0.0,0.0,0.0,0.0,0.0,0.0,0.0,0.0,0.0,0.0,0.0,0.0,0.0,0.0,0.0,0.0,0.0,0.0,0.0,0.0,0.0,3.4738,3.6404,0.0,3.5802,3.6574,3.7088,3.6953,3.8112,3.8995,3.9388,3.9927,4.0353,4.0603,4.0666,4.0535,4.0221,4.0228,3.9721,3.874,3.8723,3.815,3.713,3.7465,3.7427,3.7136,3.754,3.8142,3.8767,3.8089,3.8365,3.9166,3.8958,3.9052,3.9346,3.9707,3.984,3.9787,3.961,3.951,3.9556,4.0219,4.0387,4.0453,4.1063,4.0605,3.9964,4.0353,4.0246,4.0135,4.0762,4.0483,3.9973,3.9781,3.9885,3.9988,3.9777,4.0354,4.0938,4.0931,4.1108,4.0854,3.9552,3.9233,3.8793,3.7675,3.7573,3.7212,3.6066,3.5332,3.4744,3.4273,3.3633,3.2949,3.2181,3.169,3.1384,3.1289,3.1748,3.233,3.3036,3.3255,3.3117,3.257,3.2027,3.143,0.0,0.0,0.0,0.0,0.0,0.0,0.0,0.0,0.0,0.0,0.0,0.0,0.0,0.0,0.0,0.0,0.0,0.0,0.0,0.0,0.0,0.0,0.0,0.0,0.0,0.0,3.6007,3.6334,3.8255,3.8974,3.7478,3.8527,3.9239,3.9105,4.0279,4.1145,4.1465,4.1721,4.183,4.1805,4.1582,4.1169,4.0566,4.0595,4.0087,3.9061,3.9038,3.8598,3.7847,3.8146,3.8127,3.7851,3.8223,3.8661,3.9129,3.9223,3.9479,3.9794,4.0046,4.0336,4.0615,4.0654,4.0486,4.0089,3.9153,3.8808,3.8881,3.9425,4.0186,4.0898,4.0862,4.1053,4.1174,4.0647,4.0502,4.0506,4.0503,4.0492,4.0362,3.9823,4.0112,4.0342,3.9823,4.0131,4.0504,4.0495,4.0936,4.0895,3.9647,3.9884,3.9876,3.8825,3.8459,3.7861,3.6705,3.5945,3.5226,3.4507,3.4338,3.385,3.2769,3.2505,3.2237,3.1843,3.2323,3.2814,3.3249,3.3505,3.3358,3.2779,3.2574,3.2197,3.1639,0.0,0.0,0.0,0.0,0.0,0.0,0.0,0.0,0.0,0.0,0.0,0.0,0.0,0.0,0.0,0.0,0.0,0.0,0.0,0.0,0.0,0.0,0.0,3.4963,3.6816,3.8062,3.7509,3.8828,3.9174,3.769,3.8328,3.9156,3.9944,4.0784,4.1594,4.238,4.156,4.1135,4.1249,4.0374,3.9915,3.997,4.0027,4.0046,4.0008,4.0027,3.9565,3.8783,3.9627,3.9565,3.8817,3.9858,4.0302,4.0329,4.0523,4.0562,4.0555,4.116,4.2002,4.283,4.2045,4.1211,4.0218,3.8527,3.7997,3.8046,3.8046,3.8627,3.9331,3.9265,3.9829,4.0506,4.0506,4.0506,4.0495,4.0504,4.0496,4.0492,4.0496,4.0496,4.0496,4.0496,4.0496,4.0496,4.0496,4.0499,4.0506,4.0506,4.0506,4.0161,3.9188,3.9693,0.0,3.6506,3.6809,3.6666,3.5088,3.475,3.461,3.4586,3.4445,3.4363,3.4331,3.4368,3.4387,3.4425,3.3628,3.3197,3.3192,3.2629,3.2679,3.3352,0.0,0.0,0.0,0.0,0.0,0.0,0.0,0.0,0.0,0.0,0.0,0.0,0.0,0.0,0.0,0.0,0.0,0.0,0.0,0.0,0.0,3.6969,3.8061,3.7583,3.8836,3.9967,4.0424,4.0964,4.1117,4.0648,4.1381,4.1985,4.2201,4.2446,4.2668,4.2903,4.2659,4.2548,4.259,4.2331,4.1944,4.1428,4.1332,4.1012,4.0423,4.0382,4.0266,4.0094,4.0333,4.029,4.0094,4.0381,4.0496,4.0449,4.0558,4.0592,4.0589,4.0762,4.0977,4.1173,4.0997,4.0373,3.9554,3.9073,3.8927,3.8934,3.8934,3.9492,4.0165,4.0154,4.0304,4.0496,4.0496,4.0491,4.0495,4.0504,4.0507,4.0491,4.0508,4.0496,4.0496,4.0496,4.0496,4.0496,4.0496,4.0504,4.0496,4.0496,4.0496,4.0411,4.0134,3.9776,0.0,3.7452,3.7033,3.6422,3.5242,3.507,3.4763,3.4088,3.3856,3.3563,3.312,3.364,3.4226,3.4812,3.5173,3.5329,3.5274,3.5295,3.505,0.0,0.0,0.0,0.0,0.0,0.0,0.0,0.0,0.0,0.0,0.0,0.0,0.0,0.0,0.0,0.0,0.0,0.0,0.0,0.0,0.0,0.0,3.9255,4.0545,4.038,4.095,4.1356,4.1208,4.1584,4.1713,4.1339,4.1763,4.2198,4.2579,4.2594,4.274,4.3085,4.2722,4.2532,4.2591,4.2225,4.1813,4.141,4.1274,4.1004,4.0605,4.0492,4.0492,4.0565,4.0565,4.0565,4.0565,4.058,4.0546,4.0468,4.0558,4.0535,4.0444,0.0,0.0,0.0,0.0,3.9733,3.9282,3.8921,3.8833,3.8877,3.8877,3.9431,4.0124,4.0124,4.0356,4.0623,4.0623,4.0626,4.0636,4.0639,4.0636,4.0628,4.0632,4.0629,4.0622,4.0636,4.0591,4.0571,4.057,4.0542,0.0,4.0496,4.0496,4.0496,4.0496,4.0092,3.9462,3.8487,3.7705,3.6875,3.5937,3.5523,3.5232,3.5036,3.4908,0.0,0.0,0.0,3.5599,3.5702,3.616,0.0,0.0,0.0,0.0,0.0,0.0,0.0,0.0,3.9141,3.9229,0.0,0.0,0.0,0.0,0.0,0.0,0.0,0.0,0.0,0.0,0.0,0.0,0.0,0.0,0.0,0.0,4.1342,4.2799,4.2814,4.2733,4.2171,4.0801,4.1234,4.137,4.0654,4.0601,4.0917,4.1686,4.174,4.2048,4.2762,4.2014,0.0,0.0,0.0,4.0534,4.0591,4.0477,4.0473,4.0603,4.0475,4.0436,4.0481,4.0481,4.0481,4.0485,4.0554,4.0512,4.0411,4.0558,4.0476,4.0278,4.0496,4.0586,4.051,3.9677,3.9439,3.9441,3.8663,0.0,0.0,3.8576,3.9114,3.9746,3.9746,4.023,4.0808,4.0808,4.0808,4.0806,4.0808,4.0808,4.0805,4.0805,4.0809,4.0798,4.0797,4.0759,4.0707,4.07,4.0628,4.0534,4.0534,4.0516,4.0496,4.0496,4.0496,4.0208,3.9396,3.8627,3.7815,3.6946,0.0,0.0,3.6792,3.685,3.7177,3.795,3.8084,3.7804,3.7032,3.7086,3.709,3.699,3.7091,3.7859,3.9365,3.9514,4.0779,4.2963,3.9743,3.9217,0.0,0.0,0.0,0.0,0.0,0.0,0.0,0.0,0.0,0.0,0.0,0.0,0.0,0.0,0.0,4.1956,4.2539,4.2814,4.288,4.2322,4.1797,4.1507,4.1085,4.0758,4.0546,4.0577,4.0642,4.0758,4.0777,4.085,4.0997,4.0835,4.0773,4.0858,4.0612,4.0534,4.0591,4.0527,4.0523,4.0607,4.0516,0.0,4.0411,4.0411,4.0411,4.0419,4.0484,4.0495,4.0485,4.0631,4.0646,4.0582,4.0489,4.0536,4.0661,4.0475,4.0463,4.051,4.033,4.0289,4.0329,4.0329,4.0424,4.0577,4.0577,4.0674,0.0,4.0808,4.0796,4.0806,4.0806,4.0791,4.0793,4.0793,4.0805,4.0795,4.0798,4.0798,4.0784,4.0771,4.0754,4.0736,4.0736,4.0602,4.0496,4.0496,4.0496,4.0208,3.9396,3.9146,3.8703,3.7834,3.7603,3.7584,3.7738,3.7757,3.7815,3.7988,3.8665,3.8969,3.8792,3.9427,3.9465,3.8811,4.0202,4.0768,4.042,4.1869,4.2826,4.3272,4.1685,4.194,0.0,0.0,0.0,0.0,0.0,0.0,0.0,0.0,0.0,0.0,0.0,3.8512,3.9857,0.0,4.2121,4.2955,4.3401,4.3374,4.2559,4.2078,4.1636,4.1153,4.0766,4.0535,4.0496,4.0531,4.0535,4.0496,4.0496,4.0496,4.0496,4.0496,4.0531,4.0603,4.0569,4.0561,4.0598,4.0461,4.0461,4.0598,4.0462,4.0458,4.0557,4.0557,4.0557,4.0541,4.0614,4.062,4.056,4.0591,4.0656,4.0738,4.0604,4.0623,4.0748,4.0748,4.0808,4.0896,4.0896,4.0924,4.0956,4.0956,4.0956,4.0956,4.0956,4.0956,4.0956,4.0956,4.095,4.0947,4.0953,4.0943,4.0948,4.0956,4.0945,4.0953,4.0945,4.0906,4.0854,4.0847,4.0827,4.0807,4.0807,4.0712,4.0652,4.0652,4.0629,4.0456,4.0054,3.9583,3.9127,3.8703,3.8257,3.818,3.8607,3.9084,3.937,3.9398,3.9807,4.0059,4.0059,4.0445,4.0465,4.0059,4.1369,4.1831,4.1391,4.2745,4.3622,4.4045,4.3465,4.3708,0.0,0.0,0.0,0.0,0.0,0.0,0.0,0.0,3.7863,3.9027,3.976,4.0685,4.2261,4.2936,4.3284,4.3467,4.3798,4.3549,4.2197,4.1826,4.1332,4.0428,4.0423,4.0496,4.0488,4.0496,4.0516,4.0527,4.0538,4.0537,4.0566,4.0566,4.0581,4.0644,4.0644,4.0644,4.0644,4.0481,4.0473,4.0632,4.0469,4.051,4.0678,4.0671,4.0691,4.0681,4.0745,4.0732,4.0668,4.0618,4.0676,4.0835,4.0798,4.0814,4.0863,4.0844,4.0912,4.1011,4.1011,4.1041,4.1109,4.1109,4.1109,4.1109,4.1109,4.1109,4.1109,4.1109,4.1109,4.1109,4.1109,4.1103,4.1094,4.11,4.1091,4.1103,4.1098,4.1016,4.0935,4.0945,4.0891,4.0856,4.0856,4.0861,4.0842,4.0808,4.0746,4.0715,4.0715,4.0069,3.9595,3.9592,3.8963,3.8831,3.9525,4.0288,4.0735,4.0803,4.0808,4.0808,4.0808,4.0808,4.0808,4.0808,4.1846,4.2384,4.2384,4.3456,4.4321,4.5017,4.5017,4.5006,3.5776,3.6673,3.6732,3.6754,3.6884,3.7811,0.0,0.0,4.0108,4.2589,4.3058,4.3352,4.4395,4.3929,4.3624,4.4402,4.3268,4.2216,4.2039,4.1379,4.0599,3.9724,4.0137,4.0474,4.0428,4.0466,4.0516,4.0573,4.0636,4.0705,4.0749,4.0774,4.0776,4.0779,4.0779,4.0779,4.0779,4.0766,4.0765,4.079,4.0748,4.0696,4.0605,4.061,4.0604,4.0609,4.0678,4.0802,4.0946,4.0871,4.0902,4.0986,4.1039,4.1056,4.1053,4.1003,4.1022,4.1083,4.1083,4.1086,4.1109,4.1109,4.1109,4.1109,4.1109,4.1109,4.1109,4.1109,4.1109,4.1109,4.1109,4.1108,4.1105,4.1095,4.1091,4.1104,4.1102,4.1091,4.1082,4.1086,4.1078,4.1071,4.1071,4.1067,4.1002,4.0839,4.0785,4.0798,4.0798,4.0696,4.0626,4.0638,4.0545,4.0524,4.0621,4.0728,4.0796,4.0808,4.0808,4.0808,4.0808,4.0808,4.0808,4.0808,4.2529,4.3421,4.3442,4.5136,4.6035,4.6112,4.6112,4.6068,3.6407,3.7576,3.7965,0.0,3.8725,3.9719,4.0662,4.105,4.1524,4.2644,4.3231,4.3683,4.4075,4.3796,4.3477,0.0,4.2737,4.2068,4.1553,4.0721,4.0017,3.9611,3.9777,3.9905,3.9889,4.0352,4.0699,4.0712,4.0743,4.0764,4.0808,4.0808,4.0817,4.0852,4.0852,4.0852,4.0852,4.0786,4.0781,4.0861,4.0813,4.0811,4.0836,4.084,4.0837,4.0839,4.0851,4.0947,4.1055,4.0984,4.1003,4.1064,4.1089,4.1098,4.1107,4.107,4.1075,4.1109,4.1109,4.1109,4.1109,4.1109,4.1109,4.1109,4.1109,4.1109,4.1109,4.1109,4.1105,4.11,4.11,4.1095,4.1107,4.1096,4.1098,4.1098,4.11,4.1096,4.1094,4.1106,4.1097,4.1109,4.1109,4.1096,4.1065,4.0988,4.0917,4.0861,4.0861,4.082,4.0806,4.0804,4.0793,4.0834,4.0906,4.092,4.0926,4.097,4.0971,4.0971,4.0971,4.0971,4.1201,4.1716,4.3,4.3908,4.4426,4.5684,4.6301,4.6301,4.6301,4.6272,3.6761,0.0,0.0,3.8865,3.9991,4.0982,4.0577,4.1431,4.238,4.2609,4.2983,4.3336,4.357,4.3217,4.2805,4.2465,4.2203,4.1817,4.1187,4.0504,3.9989,3.9687,3.9824,3.9855,3.96,4.0312,4.0803,4.083,4.0835,4.0859,4.0885,4.0885,4.0892,4.0948,4.0969,4.0969,4.0969,4.0861,4.0861,4.0948,4.09,4.0916,4.0991,4.1,4.0994,4.0996,4.1004,4.104,4.1092,4.1052,4.1054,4.1108,4.1093,4.1095,4.1109,4.1109,4.1109,4.1109,4.1109,4.1109,4.1109,4.1109,4.1109,4.1109,4.1109,4.1109,4.1109,4.1109,4.1104,4.1098,4.1098,4.1109,4.1098,4.1095,4.1097,4.1097,4.1109,4.1107,4.1106,4.1102,4.1091,4.1102,4.1102,4.1102,4.1102,4.1102,4.1023,4.0967,4.0962,4.0919,4.0889,4.0879,4.0876,4.0929,4.1021,4.1032,4.1056,4.1108,4.1109,4.1109,4.1109,4.1323,4.1768,4.2384,4.3486,4.4364,4.4999,4.5867,4.6301,4.6301,4.6301,4.6301,0.0,0.0,3.9766,3.9766,4.044,4.1305,4.2047,4.231,4.2629,4.339,4.2953,4.2673,4.3451,4.2265,4.1443,4.2262,4.1686,4.1121,4.1098,4.1085,4.0736,3.9885,4.0537,4.0718,3.9877,4.0392,4.0837,4.0882,4.096,4.1017,4.1084,4.1087,4.1087,4.1087,4.1087,4.1087,4.1087,4.1087,4.1095,4.1091,4.109,4.1057,4.1008,4.0993,4.0994,4.0994,4.0996,4.1039,4.1093,4.1092,4.1108,4.1108,4.1108,4.1108,4.1109,4.1109,4.1109,4.1109,4.1109,4.1109,4.1109,4.1109,4.1109,4.1109,4.1109,4.1109,4.1109,4.1109,4.1108,4.1108,4.1108,4.1101,4.1095,4.1105,4.11,4.1093,4.1093,4.1093,4.1108,4.1096,4.1092,4.1092,4.1092,4.1092,4.1092,4.1092,4.1091,4.1087,4.1095,4.1096,4.1094,4.1084,4.1086,4.1087,4.1107,4.1107,4.1108,4.1108,4.1109,4.1109,4.1109,4.1908,4.2376,4.2395,4.4093,4.4972,4.499,4.587,4.6301,4.6301,4.6301,4.6301,0.0,0.0,3.9792,3.9794,4.0451,4.1019,4.0701,4.1114,4.1602,4.1888,4.1737,4.1625,4.1896,4.1486,4.1209,4.1489,4.1299,4.1104,4.1095,4.0599,4.0135,3.9829,4.0567,4.0986,4.0694,4.0864,0.0,4.1852,4.1376,4.1329,4.1927,4.1401,4.1109,4.1109,4.1109,4.1109,4.1109,4.1109,4.1106,4.1098,4.1103,4.1089,4.106,4.1029,4.1001,4.0996,4.1002,4.1013,4.1036,4.1037,4.1064,4.1107,4.1107,4.1097,4.1109,4.1109,4.1109,4.1109,4.1109,4.1109,4.1109,4.1109,4.1109,4.1109,4.1109,4.1109,4.1109,4.1109,4.1104,4.1099,4.1099,4.1091,4.1102,4.1106,4.1109,4.1104,4.1104,4.1522,4.1738,4.1202,4.1529,4.1735,4.1198,4.1093,4.1093,4.1093,4.1093,4.1092,4.1108,4.1096,4.1102,4.1107,4.1095,4.1099,4.1099,4.1105,4.1109,4.1109,4.1635,4.1967,4.1967,4.2806,4.3525,4.4103,4.4695,4.5281,4.586,4.616,4.6301,4.6301,4.6301,4.6301,3.7201,3.8487,3.9498,4.0103,4.0666,4.092,4.0356,4.065,4.1062,4.1062,4.1086,4.1091,4.1097,4.1107,4.1198,4.1502,4.1563,4.1658,4.1945,4.1504,4.1177,4.1193,4.1694,4.2038,0.0,0.0,0.0,4.2818,4.2355,4.2143,4.2395,4.1869,4.1421,4.1109,4.1109,4.109,4.1093,4.1093,4.111,4.1104,4.1094,4.1098,4.106,4.1031,4.101,4.0997,4.1002,4.0998,4.0999,4.1034,4.1059,4.1095,4.1104,4.1097,4.1109,4.1109,4.1096,4.1102,4.1093,4.1109,4.1109,4.1109,4.1109,4.1109,4.1109,4.1109,4.1092,4.1101,4.11,4.1099,4.1067,4.1066,4.114,4.1455,4.1522,4.1601,4.1932,4.2393,4.2601,4.2087,4.2167,4.2148,4.1615,4.128,4.1064,4.1064,4.1064,4.1076,4.1106,4.1105,4.1108,4.1108,4.1095,4.1099,4.1099,4.1398,4.1557,4.1557,4.2376,4.2864,4.2864,4.3704,4.4422,4.4982,4.5301,4.573,4.6291,4.6297,4.6301,4.6301,4.6301,4.6301,3.7988,3.8535,3.9023,4.0625,4.0987,4.094,4.0937,4.094,4.0954,4.099,4.106,4.1094,4.1092,0.0,4.1432,4.2265,4.2422,4.2728,4.3494,4.3608,4.3634,0.0,0.0,0.0,0.0,0.0,0.0,4.3822,4.3744,4.3334,4.2512,4.2415,4.2006,4.1129,4.1109,4.1093,4.1098,4.1098,4.1091,4.1095,4.1104,4.1069,4.1018,4.1063,4.108,4.1013,4.1013,4.0994,4.1016,4.1067,4.1097,4.11,4.1105,4.1093,4.1092,4.1093,4.1107,4.1094,4.1101,4.1132,4.1153,4.1171,4.1192,4.1212,4.1173,4.1153,4.1158,4.1113,4.1094,4.1073,4.1019,4.1035,4.1271,4.2102,4.2338,4.2594,4.3423,4.3634,4.3653,4.3596,4.2936,4.2372,4.2372,4.1672,4.1128,4.1128,4.1128,4.1127,4.109,4.1146,4.115,4.1092,4.1149,4.1167,4.1167,4.1927,4.2415,4.2454,4.3274,4.3763,4.3763,4.4602,4.5051,4.5052,4.5871,4.6302,4.6284,4.6284,4.6284,4.6284,4.6285,4.6286,3.7408,3.8955,4.0385,4.0176,4.0115,4.011,4.0107,4.0114,4.0295,4.0937,4.1086,4.1091,4.1096,4.1583,0.0,4.2361,4.2891,0.0,4.3642,4.3664,0.0,4.3708,0.0,4.4673,4.4679,4.5265,0.0,0.0,4.4427,4.3607,4.3373,4.2747,4.2006,4.1129,4.1109,4.109,4.1092,4.1092,4.1109,4.1105,4.1108,4.1085,4.1074,4.1081,4.109,4.1064,4.1064,4.1044,4.1009,4.1069,4.1099,4.1101,4.1093,4.1094,4.1093,4.1033,4.1069,4.1091,4.1093,4.1482,4.2004,4.2048,4.2476,4.2842,4.2198,4.1984,4.1866,4.1218,4.1022,4.102,4.0994,4.1479,4.2024,4.2255,4.276,4.3259,4.3488,4.4031,4.4298,4.3653,4.3384,4.3268,4.3268,4.3074,4.2938,4.2938,4.2938,4.2478,4.1186,4.1641,4.1815,4.117,4.1687,4.2064,4.2064,4.2278,4.2689,4.3334,4.4192,4.4679,4.4679,4.5519,4.5941,4.5896,4.6157,4.6273,4.6229,4.6229,4.6229,4.6229,4.6229,4.6224,3.8131,3.9413,4.042,3.9928,4.0074,4.0137,3.9391,3.9807,4.0351,4.046,4.0809,0.0,4.1109,4.175,0.0,0.0,0.0,0.0,4.4731,4.4792,4.4795,0.0,4.5224,0.0,4.557,4.6001,4.6296,0.0,4.5383,4.4661,4.4289,4.343,4.2572,4.1693,4.1304,4.109,4.1093,4.1093,4.1093,4.1094,4.1102,4.1106,4.1106,4.1069,4.1069,4.1106,4.1063,4.1055,4.1047,4.1083,4.1105,4.1102,4.1093,4.1094,4.1093,4.1054,4.107,4.1107,4.1107,4.1638,4.2257,4.1927,4.2124,4.2489,4.2388,4.2325,4.2277,4.214,4.2094,4.2108,4.2102,4.2463,4.2927,4.3317,4.3736,4.4171,4.4522,4.4987,4.5082,4.4221,4.4109,4.4018,4.3629,4.3551,4.3551,4.3551,4.3551,4.3202,4.2211,4.2587,4.2747,4.2259,4.2636,4.2929,4.2929,4.3281,4.3711,4.4199,4.5039,4.5527,4.5527,4.5996,4.623,4.6206,4.623,4.623,4.6205,4.6205,4.6205,4.6205,4.6192,4.6203,3.9224,3.98,3.9949,3.983,4.0241,4.0323,3.8979,3.9703,4.0513,3.9998,0.0,4.1109,4.1109,4.175,4.259,4.3468,0.0,4.5191,4.6086,4.6206,4.6192,4.6203,4.6207,4.6233,4.6282,4.6283,4.6287,4.6298,4.6299,4.5928,4.505,4.4172,4.3256,4.2259,4.1499,4.1092,4.1096,4.1099,4.1101,4.11,4.1093,4.1094,4.1094,4.1044,4.1037,4.11,4.1049,4.1054,4.1091,4.1092,4.1109,4.1104,4.1091,4.1092,4.1092,4.1092,4.1093,4.1103,4.1103,4.1567,4.2039,4.1441,4.1347,4.1559,4.2181,4.2347,4.2424,4.299,4.3166,4.3169,4.317,4.3246,4.3537,4.4297,4.455,4.4822,4.5524,4.5774,4.5635,4.4936,4.4892,4.4715,4.3954,4.3838,4.3838,4.3838,4.3838,4.3838,4.3838,4.3783,4.3709,4.3592,4.3695,4.3776,4.3776,4.4479,4.4949,4.5066,4.5772,4.6203,4.6203,4.6203,4.62,4.6195,4.62,4.62,4.6195,4.6195,4.6195,4.6195,4.6189,4.6167,3.8637,3.9777,4.0703,3.9971,3.9351,3.905,3.9483,3.9238,0.0,0.0,4.0994,4.1109,4.1109,4.175,4.2594,4.3469,4.4337,4.5191,0.0,0.0,4.6201,0.0,0.0,0.0,0.0,4.6211,0.0,0.0,4.6308,4.5921,4.5049,4.4172,4.2963,4.1382,4.1187,4.1106,4.1098,4.1103,4.1109,4.1106,4.1093,4.1109,4.1109,4.1087,4.1086,4.1106,4.1083,4.1081,4.11,4.1093,4.1107,4.1102,4.1099,4.1097,4.1097,4.1039,4.1055,4.1107,4.1107,4.1195,4.14,4.1917,4.2585,4.3068,4.2493,4.2304,4.2176,4.1595,4.1433,4.143,4.1433,4.1976,4.2559,4.2695,4.3277,4.3856,4.3994,4.4545,4.4963,4.4827,4.5335,4.5747,4.5591,4.5572,4.5572,4.5572,4.5572,4.5572,4.5572,4.5009,4.4322,4.3598,4.4204,4.4674,4.4674,4.4811,4.5203,4.5928,4.6124,4.6203,4.6203,4.6203,4.6167,4.612,4.6166,4.6166,4.6118,4.6118,4.6118,4.6117,4.6052,4.6034,3.8373,3.9105,3.9544,3.8709,3.8844,3.904,3.8566,0.0,0.0,0.0,4.0776,4.1109,4.1109,4.175,0.0,4.346,4.4332,0.0,0.0,0.0,0.0,0.0,0.0,0.0,0.0,4.6196,4.6202,4.6255,4.6256,4.6088,4.5694,4.4422,4.2896,4.116,4.1095,4.1099,4.1095,4.1093,4.1093,4.1094,4.1062,4.1048,4.1047,4.1045,4.1058,4.1044,4.1058,4.1063,4.1092,4.1061,4.1064,4.1094,4.1107,4.1108,4.1094,4.1055,4.1074,4.1093,4.1098,4.1105,4.1155,4.1547,4.1962,4.2301,4.2293,4.2305,4.2309,4.2336,4.2354,4.2354,4.2354,4.2665,4.2976,4.2976,4.3618,4.4223,4.4223,4.4878,4.5475,4.5475,4.5796,4.6042,4.6042,4.6042,4.6056,4.6044,4.6042,4.6037,4.6002,4.5655,4.5255,4.4844,4.519,4.5466,4.5466,4.5466,4.5643,4.6075,4.6095,4.6095,4.6095,4.6095,4.6078,4.6054,4.6076,4.6076,4.6054,4.6054,4.6054,4.6052,4.6005,4.5999,3.8091,3.8376,3.8364,3.7739,3.8577,3.9239,3.8039,3.9346,0.0,0.0,4.0618,4.1106,4.1093,0.0,4.2374,0.0,4.4173,0.0,0.0,0.0,0.0,0.0,0.0,0.0,4.6201,4.62,0.0,4.6202,4.603,4.5865,4.5747,4.4432,4.2905,4.1168,4.1092,4.1102,4.1106,4.1093,4.1107,4.1104,4.1052,4.1026,4.1025,4.1015,4.1016,4.1013,4.1009,4.1031,4.1061,4.1028,4.1024,4.109,4.1084,4.1087,4.1075,4.1083,4.1104,4.11,4.11,4.1097,4.11,4.1108,4.11,4.1229,4.1848,4.2031,4.2192,4.2876,4.3064,4.3064,4.3064,4.3064,4.3103,4.3278,4.3808,4.4318,4.4493,4.523,4.5832,4.5832,4.5983,4.6096,4.6096,4.6096,4.6108,4.609,4.6107,4.6081,4.602,4.6017,4.6017,4.6017,4.6007,4.5999,4.5999,4.5999,4.5999,4.5999,4.5999,4.5999,4.5999,4.5999,4.5999,4.5999,4.5999,4.5999,4.5999,4.5999,4.5999,4.5999,4.5999,4.5999,3.758,3.7998,3.857,3.8492,3.8609,3.8861,3.9437,0.0,0.0,4.0839,4.1043,4.1093,4.11,4.1167,4.1732,0.0,0.0,4.4309,0.0,0.0,0.0,0.0,0.0,0.0,4.6203,4.6201,4.6208,4.6206,4.5479,4.4707,4.3986,4.379,4.2891,4.1154,4.1099,4.1095,4.1099,4.1094,4.1107,4.1091,4.1085,4.1094,4.1094,4.1088,4.1086,4.1086,4.1034,4.0992,4.1013,4.0993,4.1007,4.1015,4.1007,4.1011,4.1028,4.108,4.1108,4.1097,4.1095,4.1109,4.1101,4.1094,4.1096,4.1103,4.1184,4.1209,4.1223,4.1318,4.1338,4.1338,4.1338,4.1338,4.1512,4.2252,4.2486,4.2758,4.3537,4.4403,4.5017,4.5017,4.5604,4.6096,4.6096,4.6096,4.6096,4.6093,4.6093,4.6091,4.6091,4.6089,4.6089,4.6089,4.6049,4.5999,4.5999,4.5999,4.5999,4.5999,4.5999,4.5999,4.5999,4.5999,4.5999,4.5999,4.5999,4.5999,4.5999,4.5999,4.5999,4.5999,4.5999,4.5999,3.8016,3.8335,3.8591,3.8591,3.8961,3.9408,3.9731,0.0,4.0681,4.1034,4.1102,4.1097,4.1102,4.1109,4.1654,4.3328,4.3609,4.4205,4.5954,0.0,0.0,0.0,0.0,0.0,0.0,0.0,4.6201,4.6208,4.5388,4.4529,4.367,4.3183,4.2351,4.1142,4.1106,4.1093,4.1091,4.109,4.1108,4.1107,4.1102,4.1109,4.1109,4.1109,4.1109,4.1109,4.1064,4.1036,4.1006,4.1003,4.0994,4.0996,4.1001,4.1005,4.0993,4.1034,4.1043,4.1058,4.1085,4.1096,4.1103,4.1099,4.1109,4.1091,4.1105,4.1099,4.1109,4.1109,4.1109,4.1109,4.1109,4.1109,4.1304,4.2101,4.2705,4.3328,4.4189,4.506,4.568,4.568,4.5946,4.6156,4.6156,4.6156,4.615,4.6158,4.6156,4.6152,4.6117,4.6096,4.6096,4.6096,4.608,4.6068,4.6068,4.6068,4.6068,4.6068,4.6068,4.6061,4.6064,4.6064,4.6037,4.5999,4.5999,4.5999,4.5999,4.5999,4.5999,4.5999,4.5999,4.6029,3.8387,3.8589,3.8669,3.8903,3.9388,3.9872,0.0,4.066,4.1105,4.1093,4.1105,4.1028,4.0748,4.0911,4.1477,0.0,4.3278,4.4133,4.5614,4.6049,0.0,0.0,0.0,4.6206,0.0,4.6198,4.6209,4.6209,4.5141,4.4242,4.3638,4.2588,4.1738,4.1114,4.1094,4.109,4.1092,4.1099,4.1108,4.1109,4.1109,4.1109,4.1109,4.1109,4.1109,4.1109,4.1109,4.1059,4.0997,4.1001,4.0992,4.1005,4.0984,4.0971,4.0996,4.0993,4.1002,4.1011,4.1085,4.1109,4.1109,4.1109,4.1109,4.1109,4.1109,4.1109,4.1109,4.1109,4.1109,4.1109,4.1109,4.1109,4.1362,4.2432,4.3153,4.3914,4.5048,4.5769,4.6197,4.6197,4.6197,4.6197,4.6197,4.6197,4.6194,4.6199,4.6197,4.6172,4.6138,4.6136,4.6136,4.6136,4.6136,4.6111,4.6098,4.6096,4.6096,4.6096,4.6096,4.6108,4.6092,4.609,4.6083,4.6025,4.6025,4.6025,4.6025,4.6025,4.6025,4.6025,4.6025,4.6054,3.8497,3.8545,3.8786,3.9585,3.9792,4.0021,0.0,4.1093,4.11,4.1093,4.111,4.0829,3.9885,4.0476,4.1085,4.1031,4.2535,4.3981,4.4805,4.5653,0.0,0.0,0.0,4.6197,4.6197,4.6195,4.6202,4.6202,4.4585,4.3613,4.3594,4.2012,4.1113,4.1094,4.1094,4.1091,4.109,4.1109,4.1108,4.1109,4.1109,4.1109,4.1109,4.1109,4.1109,4.1109,4.1109,4.107,4.0996,4.0994,4.1003,4.0984,4.0938,4.0937,4.0994,4.0996,4.1009,4.1011,4.1085,4.1109,4.1109,4.1109,4.1109,4.1109,4.1109,4.1109,4.1109,4.1109,4.1109,4.1109,4.1109,4.1109,4.1518,4.3192,4.3582,4.409,4.5808,4.6197,4.6197,4.6197,4.6197,4.6197,4.6197,4.6197,4.6197,4.6197,4.6197,4.6197,4.6197,4.6197,4.6197,4.6197,4.6197,4.6162,4.6119,4.6096,4.6096,4.6096,4.6096,4.6096,4.6096,4.6096,4.6096,4.6096,4.6096,4.6096,4.6096,4.6096,4.6096,4.6096,4.6096,4.6096,3.9237,3.9833,4.0367,4.062,4.0691,4.0764,4.1048,4.1107,4.1093,4.1093,4.1092,4.1009,4.0716,4.0891,4.1477,4.2583,4.3259,0.0,0.0,0.0,0.0,4.6199,4.6193,4.62,0.0,0.0,4.6208,4.6208,4.4588,4.3603,4.3603,4.2001,4.109,4.1094,4.1094,4.1091,4.1109,4.1109,4.1108,4.1109,4.1109,4.1109,4.1109,4.1109,4.1109,4.1109,4.1109,4.1059,4.0999,4.0999,4.1005,4.1003,4.0982,4.0982,4.0997,4.1009,4.1,4.1011,4.108,4.1109,4.1109,4.1109,4.1109,4.1109,4.1109,4.1109,4.1109,4.1109,4.1109,4.1109,4.1109,4.1518,4.2198,4.3328,4.4051,4.4795,4.5944,4.6197,4.6197,4.6197,4.6197,4.6197,4.6197,4.6197,4.6197,4.6197,4.6197,4.6197,4.6197,4.6197,4.6197,4.6197,4.6197,4.6192,4.6162,4.6179,4.6179,4.6179,4.6179,4.6174,4.6179,4.6177,4.6152,4.6096,4.6096,4.6096,4.6096,4.6096,4.6096,4.6096,4.6152,4.613,0.0,4.0436,4.1109,4.1109,4.1102,4.1095,4.1102,4.1105,4.1107,4.1092,4.1093,4.0996,4.0633,4.1112,4.1674,4.2075,4.323,0.0,0.0,0.0,0.0,4.6205,0.0,0.0,0.0,4.6209,4.6051,4.5738,4.4409,4.3468,4.3137,4.1834,4.1106,4.1098,4.1099,4.109,4.1106,4.1105,4.1108,4.1109,4.1109,4.1109,4.1109,4.1109,4.1109,4.1109,4.1109,4.1062,0.0,4.1008,4.1001,4.1005,4.0997,4.0991,4.0999,4.099,4.0994,4.1,4.1078,4.1109,4.1109,4.1109,4.1109,4.1109,4.1109,4.1109,4.1109,4.1109,4.1109,4.1109,4.1109,4.1693,4.251,4.3387,4.4267,4.5147,4.6003,4.6197,4.6197,4.6197,4.6197,4.6197,4.6197,4.6197,4.6197,4.6197,4.6197,4.6197,4.6197,4.6197,4.6197,4.6197,4.6197,4.6197,4.6197,4.6197,4.6197,4.6197,4.6197,4.6192,4.6201,4.6199,4.6174,4.614,4.614,4.614,4.614,4.614,4.614,4.6142,4.6174,4.6174,0.0,4.0293,4.1029,4.1087,4.1099,4.1092,4.1092,4.1102,0.0,4.1094,4.1098,4.0851,4.0039,4.1211,4.1815,4.0308,4.2791,0.0,0.0,4.5176,0.0,0.0,4.6191,0.0,4.6191,4.6138,4.577,4.4951,4.4049,4.3153,4.2335,4.1538,4.1109,4.1109,4.1109,4.1109,4.1109,4.1109,4.1109,4.1109,4.1109,4.1109,4.1109,4.1109,4.1109,4.1109,4.1109,4.1062,4.1009,4.1009,4.1009,4.1004,4.1007,4.1001,4.0996,4.0996,4.0998,4.1003,4.1078,4.1109,4.1109,4.1109,4.1109,4.1109,4.1109,4.1109,4.1109,4.1109,4.1109,4.1109,4.1167,4.1789,4.2607,4.3484,4.4364,4.5205,4.6022,4.6197,4.6197,4.6197,4.6197,4.6197,4.6197,4.6197,4.6197,4.6197,4.6197,4.6197,4.6197,4.6197,4.6197,4.6197,4.6197,4.6197,4.6197,4.6197,4.6197,4.6197,4.6197,4.6197,4.6197,4.6197,4.6197,4.6197,4.6197,4.6197,4.6197,4.6197,4.6197,4.6197,4.6197,4.6197,3.7691,0.0,4.0265,4.0928,4.1095,4.1108,0.0,4.11,4.11,4.1092,0.0,4.1217,4.1621,4.2012,4.2598,4.3534,0.0,0.0,4.5527,0.0,0.0,4.621,4.6205,4.6205,4.6205,4.5607,4.5112,4.4917,4.3476,4.251,4.2315,4.1538,4.1109,4.1109,4.1109,4.1109,4.1109,4.1109,4.1109,4.1109,4.1109,4.1109,4.1109,4.1109,4.1109,4.1109,4.1109,4.1088,4.1085,4.1085,4.1059,4.1008,4.0999,4.1007,4.0998,4.0995,4.1001,4.1004,4.1083,4.1109,4.1109,4.1109,4.1109,4.1109,4.1109,4.1109,4.1109,4.1109,4.1109,4.1245,4.1867,4.2646,4.3504,4.4384,4.5262,4.5944,4.6158,4.6197,4.6197,4.6197,4.6197,4.6197,4.6197,4.6197,4.6197,4.6197,4.6197,4.6197,4.6197,4.6197,4.6197,4.6197,4.6197,4.6197,4.6197,4.6197,4.6197,4.6197,4.6197,4.6197,4.6197,4.6197,4.6197,4.6197,4.6197,4.6197,4.6197,4.6197,4.6197,4.6197,4.6197,4.6197,3.7094,3.8762,4.051,4.0976,4.1402,4.1691,4.1709,0.0,0.0,0.0,0.0,4.1347,4.2141,4.2635,0.0,0.0,4.4964,0.0,0.0,0.0,4.6199,4.6203,4.6197,4.6042,4.5632,4.5186,4.4561,4.376,4.2823,4.214,4.177,4.1343,4.1109,4.1109,4.1109,4.1109,4.1109,4.1109,4.1109,4.1109,4.1109,4.1109,4.1109,4.1109,4.1109,4.1109,4.1109,4.1109,4.1109,4.1109,4.1085,4.1037,4.1011,4.1001,4.0991,4.1004,4.1008,4.1011,4.1085,4.1109,4.1109,4.1109,4.1109,4.1109,4.1109,4.1109,4.1109,4.1109,4.1362,4.175,4.2198,4.3233,4.4325,4.4795,4.5574,4.6197,4.6197,4.6197,4.6197,4.6197,4.6197,4.6197,4.6197,4.6197,4.6197,4.6197,4.6197,4.6197,4.6197,4.6197,4.6197,4.6197,4.6197,4.6197,4.6197,4.6197,4.6197,4.6197,4.6197,4.6197,4.6197,4.6197,4.6197,4.6197,4.6197,4.6197,4.6197,4.6197,4.6197,4.6197,4.6197,4.6197,3.7096,3.9115,4.0882,4.0895,4.1655,4.2355,4.2224,0.0,0.0,0.0,0.0,0.0,0.0,4.3128,0.0,0.0,0.0,0.0,4.6197,4.6197,4.6197,4.6197,4.6197,0.0,4.4972,4.4775,4.4033,4.2413,4.2198,4.1828,4.1148,4.1109,4.1109,4.1109,4.1109,4.1109,4.1109,4.1109,4.1109,4.1109,4.1109,4.1109,4.1109,4.1109,4.1109,4.1109,4.1109,4.1109,4.1109,4.1109,4.1088,4.1085,4.1036,4.1009,4.1008,4.1011,4.1011,4.1013,4.1085,4.1109,4.1109,4.1109,4.1109,4.1109,4.1109,4.1109,4.1128,4.1245,4.177,4.2354,4.2629,4.3799,4.4933,4.5069,4.5652,4.6197,4.6197,4.6197,4.6197,4.6197,4.6197,4.6197,4.6197,4.6197,4.6197,4.6197,4.6197,4.6197,4.6197,4.6197,4.6197,4.6197,4.6197,4.6197,4.6197,4.6197,4.6197,4.6197,4.6197,4.6197,4.6197,4.6197,4.6197,4.6197,4.6197,4.6197,4.6197,4.6197,4.6197,4.6197,4.6197,4.6197,3.7654,3.909,3.9924,3.9999,4.1175,4.2148,4.1445,0.0,0.0,0.0,0.0,0.0,0.0,4.3656,4.4704,0.0,0.0,4.6197,0.0,0.0,4.6197,4.6197,0.0,4.5866,4.4972,4.4228,4.3387,4.2374,4.1674,4.1226,4.1109,4.1109,4.1109,4.1109,4.1109,4.1109,4.1109,4.1109,4.1109,4.1109,4.1109,4.1109,4.1109,4.1109,4.1109,4.1109,4.1109,4.1109,4.1109,4.1109,4.1062,4.1013,4.1062,4.1059,4.1009,4.1062,4.1086,4.1086,4.1107,4.1109,4.1109,4.1109,4.1109,4.1109,4.1109,4.1109,4.1245,4.1926,4.2198,4.2648,4.4113,4.4697,4.5089,4.5827,4.61,4.6197,4.6197,4.6197,4.6197,4.6197,4.6197,4.6197,4.6197,4.6197,4.6197,4.6197,4.6197,4.6197,4.6197,4.6197,4.6197,4.6197,4.6197,4.6197,4.6197,4.6197,4.6197,4.6197,4.6197,4.6197,4.6197,4.6197,4.6197,4.6197,4.6197,4.6197,4.6197,4.6197,4.6197,4.6197,4.6197,4.6197,3.6658,3.8406,3.9755,3.9742,4.1748,4.3619,4.3248,0.0,0.0,0.0,0.0,0.0,0.0,0.0,4.5058,4.5537,0.0,4.6197,4.6197,4.6197,4.6197,0.0,4.5788,4.5165,4.4286,4.3408,4.2549,4.1711,4.1304,4.1109,4.1109,4.1109,4.1109,4.1109,4.1109,4.1109,4.1109,4.1109,4.1109,4.1109,4.1109,4.1109,4.1109,4.1109,4.1109,4.1109,4.1109,4.1109,4.1109,4.1109,4.1085,4.106,4.1086,4.1085,4.106,4.1086,4.1109,4.1109,4.1109,4.1109,4.1109,4.1109,4.1382,4.175,4.175,4.2081,4.2629,4.3468,4.3369,4.3291,4.4561,4.5243,4.5691,4.61,4.6197,4.6197,4.6197,4.6197,4.6197,4.6197,4.6197,4.6197,4.6197,4.6197,4.6197,4.6197,4.6197,4.6197,4.6197,4.6197,4.6197,4.6197,4.6197,4.6197,4.6197,4.6197,4.6197,4.6197,4.6197,4.6197,4.6197,4.6197,4.6197,4.6197,4.6197,4.6197,4.6197,4.6197,4.6197,4.6197,4.6197,4.6197,3.6128,3.7812,3.9366,4.0122,0.0,4.4346,4.4541,0.0,0.0,0.0,0.0,0.0,0.0,4.477,0.0,4.6063,4.6197,4.6197,4.6197,4.6197,4.6119,4.5925,4.5303,4.4483,4.3406,4.2685,4.1965,4.1167,4.1109,4.1109,4.1109,4.1109,4.1109,4.1109,4.1109,4.1109,4.1109,4.1109,4.1109,4.1109,4.1109,4.1109,4.1109,4.1109,4.1109,4.1109,4.1109,4.1109,4.1109,4.1109,4.1109,4.1109,4.1109,4.1109,4.1109,4.1109,4.1109,4.1109,4.1109,4.1226,4.1382,4.1382,4.1945,4.2607,4.2607,4.3075,4.3776,4.4658,4.4423,4.4109,4.4989,4.5691,4.6197,4.6197,4.6197,4.6197,4.6197,4.6197,4.6197,4.6197,4.6197,4.6197,4.6197,4.6197,4.6197,4.6197,4.6197,4.6197,4.6197,4.6197,4.6197,4.6197,4.6201,4.6206,4.619,4.6191,4.6209,4.6204,4.6201,4.6197,4.6197,4.6197,4.6197,4.6197,4.6197,4.6197,4.6197,4.6197,4.6197,4.6197,4.6197,4.6197,3.7428,3.7867,3.8151,4.1324,4.2296,0.0,4.3505,4.3072,0.0,0.0,0.0,0.0,0.0,4.4406,4.5186,4.6061,4.6197,4.6197,4.6197,0.0,4.5905,4.5089,4.4933,4.4249,4.2568,4.2335,4.1965,4.1167,4.1109,4.1109,4.1109,4.1109,4.1109,4.1109,4.1109,4.1109,4.1109,4.1109,4.1109,4.1109,4.1109,4.1109,4.1109,4.1109,4.1109,4.1109,4.1109,4.1109,4.1109,4.1109,4.1109,4.1109,4.1109,4.1109,4.1109,4.1109,4.1109,4.1109,4.1109,4.1596,4.2218,4.2218,4.2802,4.3504,4.3504,4.3543,4.3776,4.4658,4.4853,4.5009,4.5886,4.6158,4.6197,4.6197,4.6197,4.6197,4.6197,4.6197,4.6197,4.6197,4.6197,4.6197,4.6197,4.6197,4.6197,4.6197,4.6197,4.6197,4.6197,4.6197,4.6197,4.6197,4.6193,4.6209,4.6203,4.6205,4.6198,4.6204,4.6208,4.6197,4.6197,4.6197,4.6197,4.6197,4.6197,4.6197,4.6197,4.6197,4.6197,4.6197,4.6197,4.6197,3.4764,3.6611,3.8317,3.9551,4.1496,0.0,0.0,0.0,0.0,0.0,0.0,0.0,0.0,0.0,4.582,4.6152,4.6191,4.6191,4.6191,4.5721,4.5271,4.494,4.3986,4.3089,4.2426,4.1872,4.1421,4.1117,4.11,4.1094,4.1106,4.1096,4.1109,4.1109,4.1109,4.1109,4.1109,4.1109,4.1109,4.1109,4.1109,4.1109,4.1109,4.1109,4.1109,4.1109,4.1109,4.1109,4.1109,4.1109,4.1109,4.1109,4.1109,4.1109,4.1109,4.1109,4.1109,4.1167,4.1674,4.2042,4.2393,4.2939,4.37,4.4403,4.4403,4.4793,4.528,4.5613,4.571,4.5788,4.61,4.6197,4.6197,4.6197,4.6197,4.6197,4.6197,4.6197,4.6197,4.6197,4.6197,4.6197,4.6197,4.6197,4.6197,4.6197,4.6208,4.6195,4.6195,4.6204,4.6191,4.6191,4.6195,4.6201,4.6206,4.6199,4.6191,4.6204,4.6207,4.6206,4.6195,4.6204,4.6191,4.6191,4.62,4.6195,4.6195,4.6195,4.6209,4.6197,4.6209,4.6208,3.3899,3.6066,3.8202,0.0,0.0,0.0,0.0,0.0,0.0,0.0,0.0,0.0,0.0,0.0,0.0,0.0,4.6207,4.611,4.5835,4.5285,4.4696,4.417,4.3075,4.2276,4.2008,4.1453,4.11,4.1092,4.1096,4.1109,4.11,4.1091,4.1102,4.1099,4.1097,4.1096,4.1109,4.1109,4.1109,4.1109,4.1109,4.1109,4.1109,4.1109,4.1109,4.1109,4.1109,4.1109,4.1109,4.1109,4.1109,4.1109,4.1109,4.1109,4.1109,4.1109,4.1109,4.1226,4.2023,4.2471,4.2841,4.3739,4.4598,4.5301,4.5301,4.573,4.6197,4.6197,4.6197,4.6197,4.6197,4.6197,4.6197,4.6197,4.6197,4.6197,4.6197,4.6197,4.6197,4.6197,4.6197,4.6197,4.6197,4.6197,4.6197,4.6197,4.6208,4.6196,4.6196,4.6191,4.6203,4.6232,4.621,4.6211,4.6238,4.6231,4.6224,4.6238,4.6232,4.6228,4.6198,4.6207,4.6195,4.6201,4.6191,4.6207,4.6192,4.6207,4.6198,4.6206,4.6193,4.6209,3.5646,3.652,3.7591,0.0,0.0,0.0,0.0,0.0,0.0,0.0,0.0,0.0,0.0,0.0,0.0,4.6188,4.6188,4.5874,4.5015,4.4887,4.4256,4.2596,4.2328,4.1972,4.1173,4.1096,4.1102,4.1093,4.1093,4.1093,4.1093,4.1093,4.1108,4.1096,4.1096,4.1107,4.1109,4.1109,4.1109,4.1109,4.1109,4.1109,4.1109,4.1109,4.1109,4.1109,4.1109,4.1109,4.1109,4.1109,4.1109,4.1109,4.1109,4.1109,4.1109,4.1109,4.1109,4.1226,4.2023,4.2861,4.3737,4.4619,4.5496,4.6197,4.6197,4.6197,4.6197,4.6197,4.6197,4.6197,4.6197,4.6197,4.6197,4.6197,4.6197,4.6197,4.6197,4.6197,4.6197,4.6197,4.6197,4.6197,4.6197,4.6197,4.6197,4.6197,4.6197,4.6197,4.6197,4.6195,4.6235,4.6282,4.6234,4.6237,4.6299,4.63,4.6296,4.6305,4.6294,4.6261,4.6201,4.6199,4.6208,4.6204,4.6204,4.6192,4.6207,4.6192,4.6204,4.6204,4.6206,4.6197,3.3096,3.4715,0.0,3.7693,0.0,0.0,0.0,0.0,0.0,0.0,0.0,4.6296,4.6296,0.0,0.0,4.5451,4.5354,4.5041,4.4183,4.3531,4.2958,4.2451,4.1842,4.1352,4.1122,4.1103,4.1108,4.1099,4.1104,4.1098,4.1107,4.1098,4.1092,4.1108,4.11,4.1094,4.1107,4.1096,4.1109,4.1109,4.1109,4.1109,4.1109,4.1109,4.1109,4.1109,4.1109,4.1109,4.1109,4.1109,4.1109,4.1109,4.1109,4.1109,4.1109,4.1109,4.1109,4.1226,4.2023,4.2861,4.3737,4.4619,4.5496,4.6197,4.6197,4.6197,4.6197,4.6197,4.6208,4.6195,4.6201,4.6208,4.6193,4.6201,4.6197,4.6197,4.6197,4.6197,4.6197,4.6197,4.6197,4.6197,4.6197,4.6197,4.6197,4.6197,4.6209,4.6201,4.6192,4.6198,4.6205,4.6232,4.621,4.621,4.6238,4.6229,4.6223,4.6238,4.6231,4.6234,4.6267,4.6277,4.6263,4.6267,4.6278,4.6251,4.6207,4.6203,4.6209,4.6206,4.6193,4.619,3.3911,3.5547,0.0,3.8466,4.0076,0.0,0.0,0.0,0.0,0.0,0.0,4.5773,4.5773,4.55,0.0,4.4563,4.4484,4.4172,4.3313,4.2721,4.2266,4.1914,4.1421,4.1108,4.1093,4.1094,4.1098,4.1108,4.1097,4.1093,4.1099,4.1094,4.1107,4.1102,4.1096,4.1109,4.1103,4.1107,4.11,4.11,4.1093,4.1109,4.1109,4.1109,4.1109,4.1109,4.1109,4.1109,4.1109,4.1109,4.1109,4.1109,4.1109,4.1109,4.1109,4.1109,4.1109,4.1226,4.2023,4.2646,4.3231,4.4091,4.497,4.5671,4.5671,4.5925,4.6199,4.6206,4.6196,4.6204,4.62,4.6201,4.62,4.6203,4.6197,4.6197,4.6197,4.6197,4.6197,4.6197,4.6197,4.6197,4.6197,4.6197,4.6197,4.6197,4.6208,4.6201,4.6196,4.6194,4.6195,4.6206,4.6202,4.6201,4.6206,4.6199,4.6194,4.6194,4.6204,4.6212,4.6258,4.6256,4.6256,4.6262,4.6254,4.6249,4.6207,4.6202,4.6209,4.6209,4.6193,4.6208,3.6718,0.0,0.0,4.0542,4.0445,0.0,0.0,0.0,0.0,4.5715,0.0,4.4874,4.4874,4.4231,4.3666,4.3587,4.3587,4.3275,4.2396,4.2272,4.1992,4.1191,4.1103,4.11,4.1093,4.1095,4.1099,4.1108,4.1109,4.1109,4.1109,4.1109,4.1105,4.1095,4.1094,4.1108,4.1096,4.1103,4.1098,4.1098,4.1102,4.1094,4.1094,4.1091,4.1109,4.1109,4.1109,4.1109,4.1109,4.1109,4.1109,4.1109,4.1109,4.1109,4.1109,4.1109,4.1109,4.1206,4.1945,4.2237,4.2432,4.3211,4.407,4.4775,4.4775,4.5321,4.5987,4.6063,4.6087,4.609,4.6182,4.6195,4.62,4.6203,4.6197,4.6197,4.6199,4.6199,4.6197,4.6197,4.6197,4.6197,4.6197,4.6197,4.6197,4.6197,4.6197,4.6204,4.62,4.6208,4.6191,4.6201,4.6191,4.6207,4.6202,4.6203,4.6203,4.6203,4.6203,4.6203,4.6203,4.6198,4.6191,4.6206,4.6206,4.6194,4.6205,4.6192,4.6204,4.6201,4.6206,4.6197,3.5781,3.6417,0.0,0.0,4.0445,4.1108,0.0,0.0,4.2982,4.4036,4.4114,4.3978,4.3978,4.3822,4.349,4.2786,4.2689,4.2376,4.1499,4.1373,4.1308,4.1113,4.1091,4.1091,4.1093,4.1101,4.1107,4.1108,4.1109,4.1109,4.1109,4.1109,4.1108,4.1106,4.1098,4.1093,4.1109,4.1097,4.1109,4.1109,4.1106,4.1104,4.1104,4.11,4.1109,4.1109,4.1109,4.1109,4.1109,4.1109,4.1109,4.1109,4.1109,4.1109,4.1109,4.1109,4.1109,4.1128,4.1304,4.177,4.2335,4.251,4.3172,4.3875,4.3875,4.4012,4.4307,4.4991,4.5172,4.5348,4.6014,4.6207,4.62,4.6203,4.6197,4.6203,4.6196,4.6208,4.6197,4.6197,4.6197,4.6197,4.6197,4.6197,4.6197,4.6197,4.6197,4.6199,4.6203,4.6201,4.6201,4.6209,4.6206,4.6206,4.6209,4.6209,4.6209,4.6209,4.6209,4.6209,4.6209,4.6209,4.6199,4.6202,4.6202,4.6198,4.6209,4.6206,4.6198,4.6204,4.6199,4.6197,3.5523,0.0,0.0,4.103,0.0,0.0,0.0,0.0,4.1909,4.2358,4.2787,4.3079,4.3079,4.2748,4.2319,4.1849,4.1771,4.1616,4.1167,4.1104,4.1101,4.1101,4.1101,4.1101,4.1101,4.1106,4.1109,4.1109,4.1109,4.1109,4.1109,4.1109,4.1109,4.1109,4.1104,4.1101,4.1101,4.1109,4.1103,4.1103,4.1097,4.1093,4.1092,4.1092,4.1097,4.1109,4.1109,4.1109,4.1109,4.1109,4.1109,4.1109,4.1109,4.1109,4.1109,4.1109,4.1109,4.1109,4.1109,4.1362,4.1732,4.1732,4.2296,4.2978,4.2978,4.327,4.3684,4.4153,4.4587,4.4998,4.5454,4.5898,4.6204,4.6203,4.6191,4.6201,4.619,4.6204,4.6197,4.6197,4.6197,4.6197,4.6197,4.6197,4.6197,4.6197,4.6197,4.6197,4.6197,4.6197,4.6197,4.6197,4.6197,4.6197,4.6197,4.6197,4.6197,4.6197,4.6197,4.6197,4.6197,4.6196,4.6206,4.6206,4.6206,4.6201,4.6191,4.6191,4.6208,4.6197,4.6197,4.6197,3.5295,0.0,4.0366,4.267,4.2825,0.0,4.2395,4.1732,4.1109,4.1109,4.1674,4.2181,4.2181,4.1596,4.1109,4.1109,4.1109,4.1109,4.1109,4.1109,4.1109,4.1109,4.1109,4.1109,4.1109,4.1109,4.1109,4.1109,4.1109,4.1109,4.1109,4.1109,4.1109,4.1109,4.1109,4.1109,4.1109,4.1099,4.1095,4.1096,4.1106,4.1099,4.1097,4.1107,4.1095,4.1097,4.1097,4.1097,4.1097,4.1096,4.1094,4.1094,4.1091,4.1109,4.1109,4.1109,4.1109,4.1109,4.1109,4.1109,4.1109,4.1109,4.1557,4.2081,4.2081,4.2607,4.3197,4.3353,4.3904,4.4528,4.4816,4.5433,4.6009,4.6157,4.62,4.6199,4.6203,4.6201,4.6197,4.6197,4.6197,4.6197,4.6197,4.6197,4.6197,4.6197,4.6197,4.6197,4.6197,4.6197,4.6197,4.6197,4.6197,4.6197,4.6197,4.6197,4.6197,4.6197,4.6197,4.6197,4.6197,4.6197,4.6197,4.6197,4.6197,4.6197,4.6197,4.6197,4.6197,4.6197,4.6197,4.6197,0.0,0.0,4.0073,0.0,4.1927,4.2395,0.0,0.0,4.1109,0.0,4.1187,4.1265,4.1265,4.1187,4.1109,4.1109,4.1109,4.1109,4.1109,4.1109,4.1109,4.1109,4.1109,4.1109,4.1109,4.1109,4.1109,4.1109,4.1109,4.1109,4.1109,4.1109,4.1109,4.1109,4.1109,4.1109,4.1109,4.1099,4.1098,4.1107,4.1106,4.11,4.1091,4.1109,4.1102,4.1108,4.1108,4.1108,4.1107,4.1096,4.1092,4.1091,4.1096,4.1109,4.1109,4.1109,4.1109,4.1109,4.1109,4.1109,4.1109,4.1109,4.1167,4.1265,4.1265,4.1343,4.1599,4.2358,4.2605,4.3007,4.4508,4.4988,4.5267,4.6029,4.6201,4.6203,4.6198,4.6209,4.6197,4.6197,4.6197,4.6197,4.6197,4.6197,4.6197,4.6197,4.6197,4.6197,4.6197,4.6197,4.6197,4.6197,4.6197,4.6197,4.6197,4.6197,4.6197,4.6197,4.6197,4.6197,4.6197,4.6197,4.6197,4.6197,4.6197,4.6197,4.6197,4.6197,4.6197,4.6197,4.6197,4.6197,3.6014,3.7985,3.9801,0.0,4.3216,4.3138,4.3138,0.0,4.1693,4.1206,4.1109,4.1109,4.1109,4.1109,4.1109,4.1109,4.1109,4.1109,4.1109,4.1109,4.1109,4.1109,4.1109,4.1109,4.1109,4.1109,4.1109,4.1109,4.1109,4.1109,4.1109,4.1109,4.1109,4.1109,4.1109,4.1106,4.1101,4.1095,4.1093,4.1092,4.1097,4.1098,4.1094,4.11,4.1094,4.1093,4.1093,4.1093,4.1093,4.1108,4.1102,4.1095,4.1107,4.1099,4.1109,4.1109,4.1109,4.1109,4.1109,4.1109,4.1109,4.1109,4.1109,4.1109,4.1109,4.1109,4.1188,4.1566,4.1971,4.2591,4.3846,4.4527,4.5127,4.5983,4.6197,4.6199,4.6208,4.6203,4.6197,4.6197,4.6197,4.6197,4.6197,4.6197,4.6197,4.6197,4.6197,4.6197,4.6197,4.6197,4.6197,4.6197,4.6197,4.6197,4.6197,4.6197,4.6197,4.6197,4.6197,4.6197,4.6197,4.6134,4.6087,4.6087,4.6156,4.6197,4.6197,4.6197,4.6197,4.6197,4.6197,4.6197,0.0,0.0,3.9137,4.2766,4.3684,4.3763,0.0,0.0,4.2219,0.0,4.1245,4.1109,4.1109,4.1109,4.1109,4.1109,4.1109,4.1109,4.1109,4.1109,4.1109,4.1109,4.1109,4.1109,4.1109,4.1109,4.1109,4.1109,4.1109,4.1109,4.1109,4.1109,4.1108,4.1105,4.1105,4.1102,4.1094,4.1094,4.1106,4.1109,4.1103,4.1108,4.1109,4.1097,4.1093,4.1093,4.1097,4.1097,4.1093,4.1091,4.1104,4.1095,4.1091,4.1102,4.1109,4.1109,4.1109,4.1109,4.1109,4.1109,4.1109,4.1109,4.1109,4.1109,4.1109,4.1109,4.1109,4.1109,4.1538,4.2237,4.3328,4.407,4.4853,4.5944,4.6197,4.6197,4.6197,4.6197,4.6197,4.6197,4.6197,4.6197,4.6197,4.6197,4.6197,4.6197,4.6197,4.6197,4.6197,4.6197,4.6197,4.6197,4.6197,4.6197,4.6197,4.6197,4.6197,4.6197,4.6179,4.6148,4.6148,4.5998,4.5917,4.5917,4.6018,4.6106,4.6148,4.6148,4.6179,4.6197,4.6197,4.6197,0.0,3.4843,0.0,3.9624,0.0,0.0,0.0,0.0,4.2395,4.2337,4.1675,4.1109,4.1109,4.1109,4.1109,4.1109,4.1109,4.1109,4.1109,4.1109,4.1109,4.1109,4.1109,4.1109,4.1109,4.1109,4.1109,4.1109,4.1109,4.1109,4.1109,4.1109,4.1104,4.1095,4.1095,4.1094,4.1094,4.1094,4.1103,4.1096,4.1109,4.1095,4.1095,4.1096,4.1095,4.1095,4.1107,4.1105,4.1092,4.1102,4.1096,4.1095,4.1097,4.1109,4.1109,4.1109,4.1109,4.1109,4.1109,4.1109,4.1109,4.1109,4.1109,4.1109,4.1109,4.1109,4.1109,4.1109,4.1128,4.1538,4.3172,4.362,4.4109,4.5808,4.6197,4.6197,4.6197,4.6197,4.6197,4.6197,4.6197,4.6197,4.6197,4.6197,4.6197,4.6197,4.6197,4.6197,4.6197,4.6197,4.6197,4.6197,4.6197,4.6197,4.6197,4.6197,4.6197,4.6197,4.6082,4.601,4.601,4.5812,4.5717,4.5717,4.5724,4.5815,4.601,4.601,4.608,4.6197,4.6197,4.6197,0.0,0.0,0.0,3.896,4.0912,4.2416,4.384,4.4114,4.3742,4.2629,4.2142,4.1752,4.1206,4.1109,4.1109,4.1109,4.1109,4.1109,4.1109,4.1109,4.1109,4.1109,4.1109,4.1109,4.1109,4.0597,4.0262,4.0262,3.9748,3.9435,3.9421,3.9435,3.9433,3.9434,3.9429,3.9695,4.0254,4.0827,4.1091,4.1099,4.1095,4.1102,4.1103,4.109,4.1109,4.1103,4.1108,4.1092,4.1093,4.1108,4.1103,4.1095,4.1109,4.11,4.1109,4.1109,4.1109,4.1109,4.1109,4.1109,4.1109,4.1109,4.1109,4.1109,4.1109,4.1109,4.1109,4.1109,4.1109,4.1499,4.3153,4.3601,4.403,4.5788,4.6197,4.6197,4.6197,4.6197,4.6197,4.6197,4.6197,4.6197,4.6197,4.6197,4.6197,4.6197,4.6197,4.6197,4.6197,4.6113,4.61,4.6192,4.6018,4.5922,4.6051,4.5955,4.5872,4.5872,4.5831,4.5803,4.5803,4.5661,4.5571,4.5571,4.5496,4.5562,4.5803,4.5803,4.5828,4.5875,4.6005,4.6075,3.2204,0.0,0.0,0.0,0.0,4.0504,4.3103,4.3705,4.3528,4.2942,4.2608,4.2217,4.1635,4.1301,4.1105,4.1108,4.1109,4.1109,4.1109,4.1109,4.1109,4.1109,4.1109,4.1109,4.1109,4.0301,3.9808,3.9808,3.8997,3.8506,3.8493,3.8506,3.8504,3.8507,3.8501,3.8784,3.9355,4.0225,4.0667,4.0661,4.0965,4.1107,4.1107,4.1106,4.1104,4.1107,4.1103,4.1106,4.11,4.11,4.1095,4.1107,4.1107,4.11,4.1109,4.1109,4.1109,4.1109,4.1109,4.1109,4.1109,4.1109,4.1109,4.1109,4.1109,4.1109,4.1109,4.1109,4.1109,4.1421,4.2802,4.3603,4.4401,4.5866,4.6197,4.6197,4.6197,4.6197,4.6197,4.6197,4.6197,4.6197,4.6197,4.6197,4.6197,4.6197,4.6197,4.6197,4.6197,4.6084,4.6027,4.6113,4.5863,4.5747,4.5893,4.578,4.5707,4.5707,4.5656,4.5627,4.5627,4.5498,4.5433,4.5433,4.536,4.5386,4.5563,4.56,4.5656,4.571,4.5841,4.5902,0.0,0.0,0.0,0.0,0.0,0.0,4.258,0.0,4.1518,4.3256,4.2936,4.2328,4.2355,4.1666,4.1097,4.1108,4.1109,4.1109,4.1109,4.1109,4.1109,4.1109,4.1108,4.1108,4.1109,4.0281,3.9768,3.9768,3.8938,3.8424,3.8424,3.8424,3.8419,3.8427,3.8446,3.8458,3.8461,3.9353,3.9802,3.9804,4.068,4.1109,4.1091,4.1102,4.1099,4.1094,4.1098,4.1093,4.1091,4.1091,4.1091,4.1091,4.1091,4.1091,4.1109,4.1109,4.1109,4.1109,4.1109,4.1109,4.1109,4.1109,4.1109,4.1109,4.1109,4.1109,4.1109,4.1109,4.1109,4.1284,4.2081,4.3565,4.5087,4.5944,4.6158,4.6178,4.6197,4.6197,4.6197,4.6197,4.6197,4.6197,4.6197,4.6197,4.6197,4.6197,4.6196,4.6194,4.6194,4.6078,4.5991,4.5994,4.5803,4.5696,4.57,4.5696,4.5693,4.5693,4.5563,4.5485,4.5485,4.5375,4.5302,4.5302,4.5302,4.5302,4.5302,4.5433,4.5555,4.5693,4.5696,4.5703,3.0798,0.0,0.0,0.0,0.0,0.0,0.0,0.0,3.9762,4.1461,4.1126,4.0715,4.1342,4.1263,4.1106,4.1108,4.1109,4.1109,4.1109,4.1109,4.1109,4.1109,4.1103,4.1101,4.1108,3.9742,3.8851,0.0,3.7475,3.6627,3.6616,3.6617,3.6611,3.6618,3.7221,3.757,3.7564,3.905,3.981,3.9804,4.0674,4.1109,4.1109,4.1097,4.1105,4.1099,4.1109,4.1108,4.1098,4.1107,4.1108,4.1097,4.1107,4.1096,4.1109,4.1109,4.11,4.1109,4.1109,4.1109,4.1109,4.1109,4.1109,4.1109,4.1109,4.1109,4.1109,4.1109,4.1109,4.1284,4.2081,4.3135,4.4187,4.5048,4.5262,4.5438,4.6061,4.6197,4.6197,4.6197,4.6197,4.6197,4.6197,4.6197,4.6197,4.6197,4.6128,4.6064,4.6064,4.5803,4.5684,4.5773,4.5558,4.5442,4.5558,4.5464,4.54,4.54,4.5385,4.5356,4.5356,4.5314,4.5302,4.5302,4.5302,4.5302,4.5302,4.5345,4.5366,4.5405,4.5507,4.5615,0.0,0.0,0.0,0.0,0.0,0.0,3.7837,3.8324,3.8633,0.0,4.0988,4.0928,4.1069,4.1106,4.1104,4.1108,4.1109,4.1108,4.1104,4.1099,4.1096,4.1096,4.111,4.1108,4.1095,3.9846,3.9034,3.9041,3.7754,3.6828,3.6466,3.6096,3.5898,3.591,3.6395,3.6668,3.6668,3.8038,3.8721,3.8723,3.9594,4.0014,4.002,4.0014,4.0022,4.0045,4.0401,4.0561,4.0583,4.0948,4.1096,4.1104,4.1092,4.1102,4.1095,4.1107,4.1099,4.1109,4.1109,4.1109,4.1109,4.1109,4.1109,4.1109,4.1109,4.1109,4.1109,4.1109,4.1109,4.1284,4.2081,4.2685,4.327,4.415,4.4639,4.505,4.5554,4.5944,4.6197,4.6197,4.6197,4.6197,4.6197,4.6197,4.6187,4.6113,4.6039,4.5964,4.5893,4.5665,4.5533,4.5619,4.5424,4.5334,4.54,4.5336,4.5302,4.5302,4.5302,4.5302,4.5302,4.5302,4.5302,4.5302,4.5302,4.5302,4.5302,4.5302,4.5302,4.5307,4.5376,4.5455,0.0,0.0,0.0,0.0,3.2887,0.0,3.7064,3.7353,3.7544,3.9901,4.0928,4.1216,4.064,4.0614,4.0649,4.0542,4.0777,4.0988,4.1096,4.1106,4.1097,4.1096,4.1095,4.1093,4.1093,4.0302,3.9808,3.979,3.8997,3.8168,3.7392,3.6514,3.6046,3.6049,3.5951,3.5894,3.5894,3.6763,3.7198,3.7218,3.8085,3.8506,3.8497,3.8501,3.8506,3.8552,3.9322,3.9717,3.9877,4.0657,4.1016,4.11,4.1108,4.11,4.1096,4.1099,4.1091,4.1109,4.1109,4.1109,4.1109,4.1109,4.1109,4.1109,4.1091,4.1093,4.1093,4.1094,4.1094,4.125,4.1971,4.2166,4.24,4.3257,4.4057,4.4645,4.4739,4.5434,4.6031,4.6029,4.6114,4.6192,4.6156,4.616,4.6138,4.5999,4.595,4.5882,4.57,4.5555,4.5482,4.5482,4.538,4.5302,4.5302,4.5302,4.5302,4.5302,4.5302,4.5302,4.5302,4.5302,4.5302,4.5302,4.5302,4.5302,4.5302,4.5302,4.5302,4.5302,4.5302,4.5302,3.3131,3.3527,3.3902,3.2652,0.0,0.0,3.3643,3.3778,3.4501,3.5709,3.5528,3.5524,3.6761,3.7577,3.7809,3.7112,3.8725,4.03,4.1008,4.1104,4.11,4.1091,4.11,4.1093,4.1093,4.0312,3.9796,3.981,3.8997,3.8427,3.8267,3.7417,3.6948,3.6943,3.6267,3.59,3.59,3.6768,3.7202,3.7202,3.8083,3.8496,3.8498,3.8557,3.8584,3.8585,3.8765,3.9234,3.9896,4.0067,4.0514,4.11,4.1107,4.1109,4.1108,4.1096,4.1102,4.1109,4.1109,4.1109,4.1109,4.1109,4.1109,4.1093,4.1106,4.1091,4.1094,4.1103,4.1106,4.1145,4.1281,4.134,4.1554,4.2434,4.2766,4.3075,4.3704,4.4452,4.4999,4.4982,4.5647,4.6117,4.5846,4.5933,4.5974,4.579,4.5665,4.5587,4.553,4.5419,4.535,4.535,4.5328,4.5302,4.5302,4.5302,4.5302,4.5302,4.5302,4.5302,4.5302,4.5302,4.5302,4.5302,4.5302,4.5302,4.5302,4.5302,4.5302,4.5302,4.5302,4.5302,3.3214,3.3706,3.449,3.3611,0.0,0.0,0.0,3.4015,3.4014,3.6196,3.5605,3.5096,3.6407,3.6629,3.6759,3.7226,3.8304,3.94,4.0282,4.1187,4.1756,4.175,4.1743,4.1582,4.1132,4.0692,4.0453,4.0441,3.9637,3.9148,3.9157,3.8312,3.7652,3.7217,3.6772,3.6366,3.5941,3.6379,3.6598,3.6618,3.7032,3.7249,3.7252,3.7295,3.7299,3.7322,3.7751,3.82,3.8649,3.9075,3.9757,4.0537,4.0947,4.1103,4.1103,4.1109,4.1097,4.1109,4.1109,4.1109,4.1109,4.1109,4.1109,4.1093,4.1091,4.11,4.1106,4.1092,4.1093,4.1093,4.1093,4.1093,4.121,4.1641,4.2029,4.2424,4.2894,4.3555,4.4167,4.4572,4.5069,4.5475,4.566,4.5787,4.5787,4.5631,4.5534,4.5478,4.5419,4.533,4.5302,4.5302,4.5302,4.5302,4.5302,4.5302,4.5302,4.5302,4.5302,4.5302,4.5302,4.5302,4.5302,4.5302,4.5302,4.5302,4.5302,4.5302,4.5302,4.5302,4.5302,4.5302,0.0,0.0,0.0,0.0,0.0,3.4687,0.0,0.0,0.0,3.6606,3.5998,0.0,0.0,0.0,0.0,3.6893,0.0,0.0,0.0,4.0749,0.0,4.1653,4.1933,4.18,4.0939,4.0996,4.1093,4.1093,4.0451,4.0043,4.0045,3.9225,3.8431,3.7722,3.7548,3.7084,3.6251,3.6258,3.6163,3.6007,3.6009,3.5992,3.5994,3.601,3.5992,3.6035,3.6736,3.7145,3.7342,3.8062,3.8857,3.9707,4.0521,4.0952,4.1098,4.1097,4.1109,4.1109,4.1109,4.1109,4.1109,4.1109,4.1091,4.1097,4.1092,4.1104,4.1091,4.1061,4.1059,4.1057,4.1049,4.1055,4.1061,4.1052,4.1526,4.1992,4.2075,4.2632,4.3306,4.394,4.4312,4.4766,4.5506,4.5653,4.5634,4.5487,4.546,4.5419,4.5304,4.5302,4.5302,4.5302,4.5302,4.5302,4.5302,4.5302,4.5302,4.5302,4.5302,4.5302,4.5302,4.5302,4.5302,4.5302,4.5302,4.5302,4.5302,4.5302,4.5302,4.5302,4.5302,4.5302,0.0,0.0,0.0,0.0,3.5801,0.0,0.0,0.0,3.3084,3.2009,0.0,0.0,0.0,0.0,0.0,0.0,0.0,0.0,3.7286,3.8902,3.9717,3.8957,4.0267,4.0912,4.0023,4.0645,4.1093,4.1093,4.1015,4.0943,4.0954,4.0126,3.9605,3.9508,3.8811,3.8035,3.7161,3.7145,3.6756,3.5994,3.5992,3.5991,3.5992,3.5993,3.5994,3.6014,3.6092,3.6599,3.7318,3.7411,3.7926,3.8742,3.9615,4.0411,4.1108,4.11,4.1109,4.1109,4.1109,4.1109,4.1109,4.1109,4.11,4.1094,4.1095,4.1104,4.1083,4.0969,4.091,4.0918,4.0841,4.0886,4.0907,4.0848,4.0982,4.1102,4.0994,4.1554,4.2098,4.2195,4.3306,4.4493,4.5304,4.5534,4.555,4.5341,4.5319,4.5314,4.5307,4.5302,4.5302,4.5302,4.5302,4.5302,4.5302,4.5302,4.5302,4.5302,4.5302,4.5302,4.5302,4.5302,4.5302,4.5302,4.5302,4.5302,4.5302,4.5302,4.5302,4.5302,4.5302,4.5302,0.0,0.0,0.0,0.0,0.0,0.0,3.3476,0.0,3.2166,0.0,0.0,0.0,0.0,0.0,0.0,0.0,3.3492,0.0,0.0,0.0,3.8203,4.0299,0.0,0.0,3.9769,4.0576,4.1096,4.1096,4.1096,4.1098,4.1103,4.0748,4.0342,3.9865,3.9031,3.8174,3.7315,3.6795,3.6366,3.5993,3.5995,3.5994,3.5991,3.5992,3.5992,3.599,3.599,3.6204,3.6553,3.6547,3.7043,3.7848,3.8165,3.9129,4.0407,4.0911,4.1099,4.1085,4.1016,4.0976,4.0984,4.0984,4.098,4.0979,4.0979,4.097,4.0969,4.0824,4.0777,4.0772,4.0758,4.0764,4.0786,4.0752,4.0761,4.0761,4.081,4.0945,4.1245,4.1791,4.2391,4.322,4.4542,4.5154,4.5457,4.5374,4.5353,4.5338,4.5307,4.5302,4.5302,4.5302,4.5302,4.5302,4.5302,4.5302,4.5302,4.5302,4.5302,4.5302,4.5302,4.5302,4.5302,4.5302,4.5302,4.5302,4.5302,4.5302,4.5302,4.5302,4.5302,4.5302,3.5232,0.0,0.0,0.0,0.0,0.0,0.0,0.0,0.0,0.0,0.0,0.0,0.0,0.0,0.0,0.0,0.0,3.3448,0.0,3.467,0.0,0.0,0.0,0.0,0.0,4.0624,4.1021,4.1072,4.1073,4.1079,4.1108,4.1109,4.0838,4.0258,3.9618,3.8761,3.7666,3.7028,3.6463,3.5991,3.5993,3.5992,3.6007,3.6007,3.6005,3.6001,3.6,3.5999,3.5998,3.601,3.6352,3.6949,3.7129,3.7969,3.9222,4.0331,4.0734,4.0752,4.0857,4.0882,4.0854,4.0854,4.0847,4.0859,4.0859,4.0849,4.082,4.067,4.0654,4.0648,4.0601,4.0619,4.0638,4.061,4.0594,4.0584,4.067,4.0591,4.0704,4.1374,4.1678,4.2184,4.3404,4.444,4.518,4.5375,4.5409,4.5375,4.5334,4.5329,4.5329,4.5329,4.5333,4.5328,4.5328,4.5312,4.5206,4.4953,4.4934,4.4838,4.4614,4.5053,4.5187,4.4953,4.5187,4.5302,4.5302,4.5302,4.5302,4.5302,4.5302,4.5302,0.0,0.0,0.0,3.4121,0.0,0.0,0.0,0.0,3.2088,0.0,0.0,0.0,0.0,0.0,0.0,0.0,0.0,0.0,0.0,0.0,0.0,0.0,0.0,0.0,0.0,4.0798,4.0857,4.099,4.0995,4.1022,4.1107,4.1109,4.1093,4.1059,4.102,4.0225,3.8572,3.8527,3.7666,3.5991,3.6,3.5994,3.5993,3.5993,3.5993,3.5992,3.6004,3.6001,3.6,3.5991,3.5979,3.6029,3.686,3.722,3.7489,3.92,3.9839,3.9935,4.0657,4.082,4.0703,4.0703,4.0705,4.0706,4.0706,4.0706,4.0678,4.0534,4.0508,4.0477,4.0345,4.0418,4.0488,4.0438,4.0458,4.0494,4.0427,4.0458,4.0506,4.0533,4.1211,4.1812,4.1865,4.3255,4.4574,4.5295,4.54,4.54,4.54,4.54,4.54,4.54,4.5395,4.5403,4.5403,4.5333,4.4934,4.4083,4.4045,4.3687,4.2908,4.4442,4.4895,4.4064,4.4876,4.5302,4.5302,4.5302,4.5302,4.5302,4.5302,4.5302,0.0,0.0,3.6093,3.4628,0.0,0.0,0.0,0.0,0.0,0.0,0.0,0.0,0.0,0.0,0.0,0.0,0.0,0.0,0.0,0.0,0.0,0.0,0.0,0.0,0.0,0.0,4.0099,4.0142,4.1247,0.0,4.1128,4.1655,4.1695,4.1112,4.0588,3.9747,3.8547,3.801,3.713,3.5928,3.5971,3.5987,3.5936,3.5936,3.5933,3.5926,3.5923,3.5964,3.6009,3.6006,3.5959,3.5929,3.6227,3.6291,3.6492,3.8905,3.9794,3.9887,4.0539,4.0683,4.0564,4.0619,4.0599,4.0568,4.0568,4.0574,4.0542,4.0405,4.0367,4.0359,4.0304,4.0322,4.0357,4.0346,4.0355,4.0368,4.0342,4.0383,4.0432,4.0432,4.07,4.1118,4.164,4.2244,4.2909,4.3686,4.3816,4.3803,4.3751,4.3747,4.3747,4.3747,4.3747,4.3757,4.3757,4.3723,4.3565,4.3225,4.325,4.3125,4.2813,4.3345,4.3765,4.4006,4.4298,4.4723,4.5302,4.5302,4.5302,4.5302,4.5302,4.5302,3.4928,3.509,0.0,3.3983,3.3359,0.0,3.1914,0.0,3.2636,0.0,0.0,0.0,0.0,0.0,0.0,0.0,0.0,0.0,0.0,3.0945,0.0,0.0,0.0,0.0,0.0,0.0,3.9237,3.9577,4.0718,0.0,0.0,4.1784,4.181,4.1577,4.0761,3.9899,3.9007,3.8156,3.7274,3.6362,3.609,3.5948,3.5895,3.5895,3.5891,3.5902,3.5902,3.5926,3.5952,3.5912,3.5879,3.5831,3.5831,3.576,3.592,3.8053,3.9189,3.9713,4.0092,4.0354,4.0518,4.0542,4.0519,4.0458,4.0446,4.0426,4.0415,4.0328,4.0306,4.0306,4.0306,4.0306,4.0306,4.0306,4.0291,4.0299,4.0299,4.0335,4.0366,4.0366,4.0424,4.063,4.1149,4.1266,4.1709,4.2866,4.3039,4.3026,4.2976,4.2972,4.2972,4.2972,4.2954,4.2936,4.2899,4.263,4.2449,4.2402,4.2444,4.2315,4.1968,4.2513,4.2934,4.3187,4.3741,4.431,4.4869,4.5159,4.5302,4.5302,4.5302,4.5302]}]]